<?xml version="1.0" encoding="UTF-8" standalone="no" ?>
<gpx xmlns="http://www.topografix.com/GPX/1/1" xmlns:xsi="http://www.w3.org/2001/XMLSchema-instance" xsi:schemaLocation="http://www.topografix.com/GPX/1/1 http://www.topografix.com/GPX/1/1/gpx.xsd" version="1.1" creator="VisuGPX - https://www.visugpx.com">
  <metadata>
    <name>aspiran18/05/14</name>
    <desc><![CDATA[Parcours rando d\'aspiran fait en sens inverse.]]></desc>
  </metadata>
  <trk>
    <name><![CDATA[APIRAN-220514]]></name>
    <trkseg>
      <trkpt lat="43.56975" lon="3.39774">
        <ele>108.29</ele>
        <time>2014-05-18T07:18:25Z</time>
      </trkpt>
      <trkpt lat="43.56974" lon="3.39774">
        <ele>109.73</ele>
        <time>2014-05-18T07:18:51Z</time>
      </trkpt>
      <trkpt lat="43.56974" lon="3.39781">
        <ele>111.17</ele>
        <time>2014-05-18T07:18:56Z</time>
      </trkpt>
      <trkpt lat="43.57015" lon="3.39759">
        <ele>112.61</ele>
        <time>2014-05-18T07:19:07Z</time>
      </trkpt>
      <trkpt lat="43.57033" lon="3.39745">
        <ele>113.09</ele>
        <time>2014-05-18T07:19:14Z</time>
      </trkpt>
      <trkpt lat="43.57046" lon="3.39739">
        <ele>112.61</ele>
        <time>2014-05-18T07:19:25Z</time>
      </trkpt>
      <trkpt lat="43.5706" lon="3.39728">
        <ele>113.09</ele>
        <time>2014-05-18T07:19:38Z</time>
      </trkpt>
      <trkpt lat="43.57066" lon="3.39723">
        <ele>113.57</ele>
        <time>2014-05-18T07:19:42Z</time>
      </trkpt>
      <trkpt lat="43.57069" lon="3.39721">
        <ele>113.57</ele>
        <time>2014-05-18T07:19:45Z</time>
      </trkpt>
      <trkpt lat="43.57083" lon="3.39738">
        <ele>114.05</ele>
        <time>2014-05-18T07:19:57Z</time>
      </trkpt>
      <trkpt lat="43.5711" lon="3.39777">
        <ele>115.5</ele>
        <time>2014-05-18T07:20:13Z</time>
      </trkpt>
      <trkpt lat="43.5714" lon="3.398">
        <ele>117.42</ele>
        <time>2014-05-18T07:20:28Z</time>
      </trkpt>
      <trkpt lat="43.57179" lon="3.3982">
        <ele>118.86</ele>
        <time>2014-05-18T07:20:45Z</time>
      </trkpt>
      <trkpt lat="43.57229" lon="3.39829">
        <ele>118.86</ele>
        <time>2014-05-18T07:21:04Z</time>
      </trkpt>
      <trkpt lat="43.57251" lon="3.39828">
        <ele>119.82</ele>
        <time>2014-05-18T07:21:16Z</time>
      </trkpt>
      <trkpt lat="43.57275" lon="3.39829">
        <ele>121.74</ele>
        <time>2014-05-18T07:21:30Z</time>
      </trkpt>
      <trkpt lat="43.57307" lon="3.39831">
        <ele>120.3</ele>
        <time>2014-05-18T07:21:45Z</time>
      </trkpt>
      <trkpt lat="43.57337" lon="3.39839">
        <ele>121.26</ele>
        <time>2014-05-18T07:21:59Z</time>
      </trkpt>
      <trkpt lat="43.57354" lon="3.39882">
        <ele>123.19</ele>
        <time>2014-05-18T07:22:13Z</time>
      </trkpt>
      <trkpt lat="43.57349" lon="3.39938">
        <ele>125.59</ele>
        <time>2014-05-18T07:22:29Z</time>
      </trkpt>
      <trkpt lat="43.5736" lon="3.39984">
        <ele>127.51</ele>
        <time>2014-05-18T07:22:43Z</time>
      </trkpt>
      <trkpt lat="43.57406" lon="3.39992">
        <ele>130.88</ele>
        <time>2014-05-18T07:23:00Z</time>
      </trkpt>
      <trkpt lat="43.57421" lon="3.39992">
        <ele>131.84</ele>
        <time>2014-05-18T07:23:06Z</time>
      </trkpt>
      <trkpt lat="43.57426" lon="3.40007">
        <ele>130.88</ele>
        <time>2014-05-18T07:23:10Z</time>
      </trkpt>
      <trkpt lat="43.57426" lon="3.40051">
        <ele>128.95</ele>
        <time>2014-05-18T07:23:17Z</time>
      </trkpt>
      <trkpt lat="43.57393" lon="3.40139">
        <ele>122.22</ele>
        <time>2014-05-18T07:23:30Z</time>
      </trkpt>
      <trkpt lat="43.57387" lon="3.40156">
        <ele>120.3</ele>
        <time>2014-05-18T07:23:33Z</time>
      </trkpt>
      <trkpt lat="43.57405" lon="3.40174">
        <ele>119.82</ele>
        <time>2014-05-18T07:23:40Z</time>
      </trkpt>
      <trkpt lat="43.57443" lon="3.40206">
        <ele>122.22</ele>
        <time>2014-05-18T07:23:55Z</time>
      </trkpt>
      <trkpt lat="43.57484" lon="3.40258">
        <ele>123.19</ele>
        <time>2014-05-18T07:24:13Z</time>
      </trkpt>
      <trkpt lat="43.57521" lon="3.40299">
        <ele>126.07</ele>
        <time>2014-05-18T07:24:30Z</time>
      </trkpt>
      <trkpt lat="43.57545" lon="3.40301">
        <ele>128.47</ele>
        <time>2014-05-18T07:24:40Z</time>
      </trkpt>
      <trkpt lat="43.57578" lon="3.40343">
        <ele>130.4</ele>
        <time>2014-05-18T07:24:58Z</time>
      </trkpt>
      <trkpt lat="43.5759" lon="3.40394">
        <ele>127.99</ele>
        <time>2014-05-18T07:25:10Z</time>
      </trkpt>
      <trkpt lat="43.57614" lon="3.40469">
        <ele>127.03</ele>
        <time>2014-05-18T07:25:24Z</time>
      </trkpt>
      <trkpt lat="43.57633" lon="3.40527">
        <ele>127.51</ele>
        <time>2014-05-18T07:25:38Z</time>
      </trkpt>
      <trkpt lat="43.57649" lon="3.40568">
        <ele>126.55</ele>
        <time>2014-05-18T07:25:47Z</time>
      </trkpt>
      <trkpt lat="43.57643" lon="3.40674">
        <ele>123.19</ele>
        <time>2014-05-18T07:26:02Z</time>
      </trkpt>
      <trkpt lat="43.57639" lon="3.4069">
        <ele>122.71</ele>
        <time>2014-05-18T07:26:04Z</time>
      </trkpt>
      <trkpt lat="43.57612" lon="3.40769">
        <ele>120.78</ele>
        <time>2014-05-18T07:26:14Z</time>
      </trkpt>
      <trkpt lat="43.57608" lon="3.40825">
        <ele>119.82</ele>
        <time>2014-05-18T07:26:21Z</time>
      </trkpt>
      <trkpt lat="43.57615" lon="3.40853">
        <ele>119.34</ele>
        <time>2014-05-18T07:26:25Z</time>
      </trkpt>
      <trkpt lat="43.57622" lon="3.40871">
        <ele>119.82</ele>
        <time>2014-05-18T07:26:28Z</time>
      </trkpt>
      <trkpt lat="43.57645" lon="3.40907">
        <ele>120.3</ele>
        <time>2014-05-18T07:26:36Z</time>
      </trkpt>
      <trkpt lat="43.57664" lon="3.40939">
        <ele>120.3</ele>
        <time>2014-05-18T07:26:42Z</time>
      </trkpt>
      <trkpt lat="43.57671" lon="3.4095">
        <ele>119.82</ele>
        <time>2014-05-18T07:26:44Z</time>
      </trkpt>
      <trkpt lat="43.57673" lon="3.41016">
        <ele>122.22</ele>
        <time>2014-05-18T07:26:57Z</time>
      </trkpt>
      <trkpt lat="43.57666" lon="3.41095">
        <ele>124.63</ele>
        <time>2014-05-18T07:27:14Z</time>
      </trkpt>
      <trkpt lat="43.57662" lon="3.41113">
        <ele>125.11</ele>
        <time>2014-05-18T07:27:18Z</time>
      </trkpt>
      <trkpt lat="43.57668" lon="3.41126">
        <ele>125.59</ele>
        <time>2014-05-18T07:27:22Z</time>
      </trkpt>
      <trkpt lat="43.5769" lon="3.41153">
        <ele>129.43</ele>
        <time>2014-05-18T07:27:35Z</time>
      </trkpt>
      <trkpt lat="43.57728" lon="3.41198">
        <ele>132.32</ele>
        <time>2014-05-18T07:27:55Z</time>
      </trkpt>
      <trkpt lat="43.57754" lon="3.41238">
        <ele>134.24</ele>
        <time>2014-05-18T07:28:11Z</time>
      </trkpt>
      <trkpt lat="43.57762" lon="3.41277">
        <ele>137.13</ele>
        <time>2014-05-18T07:28:27Z</time>
      </trkpt>
      <trkpt lat="43.57766" lon="3.41302">
        <ele>139.05</ele>
        <time>2014-05-18T07:28:39Z</time>
      </trkpt>
      <trkpt lat="43.57771" lon="3.41309">
        <ele>140.01</ele>
        <time>2014-05-18T07:28:43Z</time>
      </trkpt>
      <trkpt lat="43.57778" lon="3.4132">
        <ele>141.45</ele>
        <time>2014-05-18T07:28:49Z</time>
      </trkpt>
      <trkpt lat="43.57803" lon="3.4135">
        <ele>142.41</ele>
        <time>2014-05-18T07:29:04Z</time>
      </trkpt>
      <trkpt lat="43.57815" lon="3.41363">
        <ele>140.97</ele>
        <time>2014-05-18T07:29:09Z</time>
      </trkpt>
      <trkpt lat="43.57873" lon="3.41404">
        <ele>135.2</ele>
        <time>2014-05-18T07:29:19Z</time>
      </trkpt>
      <trkpt lat="43.57975" lon="3.41457">
        <ele>129.43</ele>
        <time>2014-05-18T07:29:33Z</time>
      </trkpt>
      <trkpt lat="43.58" lon="3.41471">
        <ele>127.51</ele>
        <time>2014-05-18T07:29:37Z</time>
      </trkpt>
      <trkpt lat="43.58031" lon="3.41482">
        <ele>125.11</ele>
        <time>2014-05-18T07:29:41Z</time>
      </trkpt>
      <trkpt lat="43.58072" lon="3.41496">
        <ele>124.63</ele>
        <time>2014-05-18T07:29:47Z</time>
      </trkpt>
      <trkpt lat="43.58118" lon="3.41496">
        <ele>126.55</ele>
        <time>2014-05-18T07:29:58Z</time>
      </trkpt>
      <trkpt lat="43.58172" lon="3.41525">
        <ele>128.47</ele>
        <time>2014-05-18T07:30:13Z</time>
      </trkpt>
      <trkpt lat="43.58229" lon="3.41546">
        <ele>128.95</ele>
        <time>2014-05-18T07:30:29Z</time>
      </trkpt>
      <trkpt lat="43.58288" lon="3.41566">
        <ele>129.92</ele>
        <time>2014-05-18T07:30:45Z</time>
      </trkpt>
      <trkpt lat="43.5833" lon="3.41574">
        <ele>129.92</ele>
        <time>2014-05-18T07:30:55Z</time>
      </trkpt>
      <trkpt lat="43.58385" lon="3.41573">
        <ele>129.92</ele>
        <time>2014-05-18T07:31:09Z</time>
      </trkpt>
      <trkpt lat="43.58391" lon="3.4157">
        <ele>129.92</ele>
        <time>2014-05-18T07:31:11Z</time>
      </trkpt>
      <trkpt lat="43.58409" lon="3.41577">
        <ele>129.43</ele>
        <time>2014-05-18T07:31:16Z</time>
      </trkpt>
      <trkpt lat="43.58416" lon="3.41582">
        <ele>129.43</ele>
        <time>2014-05-18T07:31:18Z</time>
      </trkpt>
      <trkpt lat="43.58437" lon="3.41597">
        <ele>129.92</ele>
        <time>2014-05-18T07:31:24Z</time>
      </trkpt>
      <trkpt lat="43.58441" lon="3.41606">
        <ele>129.92</ele>
        <time>2014-05-18T07:31:26Z</time>
      </trkpt>
      <trkpt lat="43.58448" lon="3.41621">
        <ele>129.43</ele>
        <time>2014-05-18T07:31:29Z</time>
      </trkpt>
      <trkpt lat="43.58491" lon="3.41662">
        <ele>130.88</ele>
        <time>2014-05-18T07:31:42Z</time>
      </trkpt>
      <trkpt lat="43.58545" lon="3.41691">
        <ele>132.8</ele>
        <time>2014-05-18T07:31:59Z</time>
      </trkpt>
      <trkpt lat="43.58574" lon="3.41714">
        <ele>133.28</ele>
        <time>2014-05-18T07:32:10Z</time>
      </trkpt>
      <trkpt lat="43.58591" lon="3.41736">
        <ele>131.36</ele>
        <time>2014-05-18T07:32:15Z</time>
      </trkpt>
      <trkpt lat="43.58595" lon="3.41779">
        <ele>129.43</ele>
        <time>2014-05-18T07:32:21Z</time>
      </trkpt>
      <trkpt lat="43.58545" lon="3.41907">
        <ele>123.19</ele>
        <time>2014-05-18T07:32:35Z</time>
      </trkpt>
      <trkpt lat="43.58507" lon="3.42001">
        <ele>120.78</ele>
        <time>2014-05-18T07:32:45Z</time>
      </trkpt>
      <trkpt lat="43.58512" lon="3.42042">
        <ele>120.3</ele>
        <time>2014-05-18T07:32:50Z</time>
      </trkpt>
      <trkpt lat="43.58547" lon="3.42072">
        <ele>121.74</ele>
        <time>2014-05-18T07:32:58Z</time>
      </trkpt>
      <trkpt lat="43.58581" lon="3.42124">
        <ele>125.11</ele>
        <time>2014-05-18T07:33:12Z</time>
      </trkpt>
      <trkpt lat="43.58606" lon="3.4218">
        <ele>127.99</ele>
        <time>2014-05-18T07:33:29Z</time>
      </trkpt>
      <trkpt lat="43.58633" lon="3.42242">
        <ele>131.84</ele>
        <time>2014-05-18T07:33:49Z</time>
      </trkpt>
      <trkpt lat="43.58658" lon="3.42294">
        <ele>134.24</ele>
        <time>2014-05-18T07:34:07Z</time>
      </trkpt>
      <trkpt lat="43.58688" lon="3.42362">
        <ele>137.61</ele>
        <time>2014-05-18T07:34:31Z</time>
      </trkpt>
      <trkpt lat="43.58719" lon="3.42422">
        <ele>140.49</ele>
        <time>2014-05-18T07:34:54Z</time>
      </trkpt>
      <trkpt lat="43.58747" lon="3.42457">
        <ele>142.89</ele>
        <time>2014-05-18T07:35:12Z</time>
      </trkpt>
      <trkpt lat="43.58738" lon="3.42492">
        <ele>144.34</ele>
        <time>2014-05-18T07:35:27Z</time>
      </trkpt>
      <trkpt lat="43.58734" lon="3.42501">
        <ele>144.82</ele>
        <time>2014-05-18T07:35:31Z</time>
      </trkpt>
      <trkpt lat="43.58755" lon="3.42507">
        <ele>149.62</ele>
        <time>2014-05-18T07:35:45Z</time>
      </trkpt>
      <trkpt lat="43.58769" lon="3.4252">
        <ele>154.91</ele>
        <time>2014-05-18T07:36:00Z</time>
      </trkpt>
      <trkpt lat="43.58771" lon="3.4253">
        <ele>156.83</ele>
        <time>2014-05-18T07:36:06Z</time>
      </trkpt>
      <trkpt lat="43.58777" lon="3.42559">
        <ele>161.16</ele>
        <time>2014-05-18T07:36:22Z</time>
      </trkpt>
      <trkpt lat="43.5878" lon="3.42587">
        <ele>164.52</ele>
        <time>2014-05-18T07:36:38Z</time>
      </trkpt>
      <trkpt lat="43.58775" lon="3.42598">
        <ele>165.96</ele>
        <time>2014-05-18T07:36:44Z</time>
      </trkpt>
      <trkpt lat="43.58763" lon="3.42628">
        <ele>168.37</ele>
        <time>2014-05-18T07:37:00Z</time>
      </trkpt>
      <trkpt lat="43.58752" lon="3.42659">
        <ele>171.25</ele>
        <time>2014-05-18T07:37:16Z</time>
      </trkpt>
      <trkpt lat="43.58743" lon="3.42692">
        <ele>175.1</ele>
        <time>2014-05-18T07:37:32Z</time>
      </trkpt>
      <trkpt lat="43.58743" lon="3.42699">
        <ele>175.58</ele>
        <time>2014-05-18T07:37:35Z</time>
      </trkpt>
      <trkpt lat="43.58734" lon="3.42743">
        <ele>179.9</ele>
        <time>2014-05-18T07:37:54Z</time>
      </trkpt>
      <trkpt lat="43.58725" lon="3.42784">
        <ele>180.38</ele>
        <time>2014-05-18T07:38:08Z</time>
      </trkpt>
      <trkpt lat="43.58716" lon="3.42833">
        <ele>180.38</ele>
        <time>2014-05-18T07:38:20Z</time>
      </trkpt>
      <trkpt lat="43.58717" lon="3.42833">
        <ele>179.9</ele>
        <time>2014-05-18T07:38:44Z</time>
      </trkpt>
      <trkpt lat="43.58717" lon="3.42835">
        <ele>179.42</ele>
        <time>2014-05-18T07:39:09Z</time>
      </trkpt>
      <trkpt lat="43.58716" lon="3.42837">
        <ele>180.38</ele>
        <time>2014-05-18T07:39:37Z</time>
      </trkpt>
      <trkpt lat="43.58714" lon="3.42837">
        <ele>180.38</ele>
        <time>2014-05-18T07:40:08Z</time>
      </trkpt>
      <trkpt lat="43.58715" lon="3.42838">
        <ele>179.9</ele>
        <time>2014-05-18T07:40:34Z</time>
      </trkpt>
      <trkpt lat="43.58714" lon="3.42843">
        <ele>179.9</ele>
        <time>2014-05-18T07:40:41Z</time>
      </trkpt>
      <trkpt lat="43.58704" lon="3.42884">
        <ele>177.5</ele>
        <time>2014-05-18T07:40:52Z</time>
      </trkpt>
      <trkpt lat="43.5868" lon="3.42969">
        <ele>173.17</ele>
        <time>2014-05-18T07:41:05Z</time>
      </trkpt>
      <trkpt lat="43.58672" lon="3.43011">
        <ele>170.29</ele>
        <time>2014-05-18T07:41:11Z</time>
      </trkpt>
      <trkpt lat="43.58649" lon="3.43104">
        <ele>166.45</ele>
        <time>2014-05-18T07:41:23Z</time>
      </trkpt>
      <trkpt lat="43.58629" lon="3.43139">
        <ele>164.04</ele>
        <time>2014-05-18T07:41:28Z</time>
      </trkpt>
      <trkpt lat="43.58614" lon="3.43158">
        <ele>163.08</ele>
        <time>2014-05-18T07:41:31Z</time>
      </trkpt>
      <trkpt lat="43.58594" lon="3.43194">
        <ele>163.56</ele>
        <time>2014-05-18T07:41:37Z</time>
      </trkpt>
      <trkpt lat="43.58575" lon="3.43274">
        <ele>167.41</ele>
        <time>2014-05-18T07:41:53Z</time>
      </trkpt>
      <trkpt lat="43.58568" lon="3.43295">
        <ele>167.41</ele>
        <time>2014-05-18T07:41:57Z</time>
      </trkpt>
      <trkpt lat="43.58557" lon="3.43339">
        <ele>166.93</ele>
        <time>2014-05-18T07:42:04Z</time>
      </trkpt>
      <trkpt lat="43.58549" lon="3.43383">
        <ele>168.37</ele>
        <time>2014-05-18T07:42:11Z</time>
      </trkpt>
      <trkpt lat="43.58538" lon="3.43412">
        <ele>169.81</ele>
        <time>2014-05-18T07:42:16Z</time>
      </trkpt>
      <trkpt lat="43.58526" lon="3.43493">
        <ele>170.77</ele>
        <time>2014-05-18T07:42:29Z</time>
      </trkpt>
      <trkpt lat="43.58522" lon="3.43505">
        <ele>171.25</ele>
        <time>2014-05-18T07:42:31Z</time>
      </trkpt>
      <trkpt lat="43.5851" lon="3.43553">
        <ele>170.29</ele>
        <time>2014-05-18T07:42:38Z</time>
      </trkpt>
      <trkpt lat="43.58506" lon="3.43577">
        <ele>169.81</ele>
        <time>2014-05-18T07:42:41Z</time>
      </trkpt>
      <trkpt lat="43.58501" lon="3.4361">
        <ele>168.85</ele>
        <time>2014-05-18T07:42:45Z</time>
      </trkpt>
      <trkpt lat="43.58483" lon="3.43685">
        <ele>168.37</ele>
        <time>2014-05-18T07:42:54Z</time>
      </trkpt>
      <trkpt lat="43.58458" lon="3.43766">
        <ele>168.37</ele>
        <time>2014-05-18T07:43:05Z</time>
      </trkpt>
      <trkpt lat="43.58445" lon="3.4385">
        <ele>167.41</ele>
        <time>2014-05-18T07:43:16Z</time>
      </trkpt>
      <trkpt lat="43.58443" lon="3.43865">
        <ele>166.93</ele>
        <time>2014-05-18T07:43:18Z</time>
      </trkpt>
      <trkpt lat="43.5845" lon="3.43905">
        <ele>165.96</ele>
        <time>2014-05-18T07:43:23Z</time>
      </trkpt>
      <trkpt lat="43.58457" lon="3.4392">
        <ele>165.48</ele>
        <time>2014-05-18T07:43:25Z</time>
      </trkpt>
      <trkpt lat="43.58465" lon="3.4395">
        <ele>165</ele>
        <time>2014-05-18T07:43:29Z</time>
      </trkpt>
      <trkpt lat="43.58477" lon="3.43985">
        <ele>165</ele>
        <time>2014-05-18T07:43:34Z</time>
      </trkpt>
      <trkpt lat="43.58495" lon="3.44015">
        <ele>164.52</ele>
        <time>2014-05-18T07:43:39Z</time>
      </trkpt>
      <trkpt lat="43.58529" lon="3.44058">
        <ele>162.6</ele>
        <time>2014-05-18T07:43:47Z</time>
      </trkpt>
      <trkpt lat="43.58549" lon="3.44082">
        <ele>160.68</ele>
        <time>2014-05-18T07:43:51Z</time>
      </trkpt>
      <trkpt lat="43.58567" lon="3.44095">
        <ele>159.24</ele>
        <time>2014-05-18T07:43:54Z</time>
      </trkpt>
      <trkpt lat="43.58586" lon="3.44099">
        <ele>157.79</ele>
        <time>2014-05-18T07:43:57Z</time>
      </trkpt>
      <trkpt lat="43.58627" lon="3.44117">
        <ele>153.95</ele>
        <time>2014-05-18T07:44:04Z</time>
      </trkpt>
      <trkpt lat="43.58681" lon="3.44151">
        <ele>148.66</ele>
        <time>2014-05-18T07:44:12Z</time>
      </trkpt>
      <trkpt lat="43.58716" lon="3.44215">
        <ele>143.85</ele>
        <time>2014-05-18T07:44:19Z</time>
      </trkpt>
      <trkpt lat="43.58721" lon="3.44261">
        <ele>143.85</ele>
        <time>2014-05-18T07:44:24Z</time>
      </trkpt>
      <trkpt lat="43.58714" lon="3.44283">
        <ele>144.34</ele>
        <time>2014-05-18T07:44:27Z</time>
      </trkpt>
      <trkpt lat="43.58687" lon="3.44402">
        <ele>142.89</ele>
        <time>2014-05-18T07:44:42Z</time>
      </trkpt>
      <trkpt lat="43.58679" lon="3.44424">
        <ele>142.41</ele>
        <time>2014-05-18T07:44:45Z</time>
      </trkpt>
      <trkpt lat="43.58671" lon="3.44451">
        <ele>142.89</ele>
        <time>2014-05-18T07:44:49Z</time>
      </trkpt>
      <trkpt lat="43.58654" lon="3.44488">
        <ele>143.37</ele>
        <time>2014-05-18T07:44:56Z</time>
      </trkpt>
      <trkpt lat="43.58645" lon="3.44503">
        <ele>143.85</ele>
        <time>2014-05-18T07:44:59Z</time>
      </trkpt>
      <trkpt lat="43.58606" lon="3.44556">
        <ele>142.89</ele>
        <time>2014-05-18T07:45:14Z</time>
      </trkpt>
      <trkpt lat="43.58588" lon="3.4458">
        <ele>141.93</ele>
        <time>2014-05-18T07:45:21Z</time>
      </trkpt>
      <trkpt lat="43.58576" lon="3.44587">
        <ele>141.45</ele>
        <time>2014-05-18T07:45:24Z</time>
      </trkpt>
      <trkpt lat="43.58543" lon="3.44639">
        <ele>138.57</ele>
        <time>2014-05-18T07:45:35Z</time>
      </trkpt>
      <trkpt lat="43.58541" lon="3.44646">
        <ele>138.57</ele>
        <time>2014-05-18T07:45:36Z</time>
      </trkpt>
      <trkpt lat="43.58534" lon="3.44665">
        <ele>137.61</ele>
        <time>2014-05-18T07:45:39Z</time>
      </trkpt>
      <trkpt lat="43.58528" lon="3.44678">
        <ele>137.13</ele>
        <time>2014-05-18T07:45:41Z</time>
      </trkpt>
      <trkpt lat="43.58521" lon="3.44699">
        <ele>135.2</ele>
        <time>2014-05-18T07:45:44Z</time>
      </trkpt>
      <trkpt lat="43.58522" lon="3.44756">
        <ele>130.88</ele>
        <time>2014-05-18T07:45:51Z</time>
      </trkpt>
      <trkpt lat="43.58525" lon="3.44772">
        <ele>129.43</ele>
        <time>2014-05-18T07:45:53Z</time>
      </trkpt>
      <trkpt lat="43.58532" lon="3.44792">
        <ele>127.51</ele>
        <time>2014-05-18T07:45:56Z</time>
      </trkpt>
      <trkpt lat="43.58538" lon="3.44839">
        <ele>123.19</ele>
        <time>2014-05-18T07:46:05Z</time>
      </trkpt>
      <trkpt lat="43.58535" lon="3.44841">
        <ele>123.19</ele>
        <time>2014-05-18T07:46:06Z</time>
      </trkpt>
      <trkpt lat="43.58512" lon="3.44859">
        <ele>120.3</ele>
        <time>2014-05-18T07:46:13Z</time>
      </trkpt>
      <trkpt lat="43.5851" lon="3.44884">
        <ele>118.38</ele>
        <time>2014-05-18T07:46:17Z</time>
      </trkpt>
      <trkpt lat="43.58516" lon="3.44922">
        <ele>115.5</ele>
        <time>2014-05-18T07:46:22Z</time>
      </trkpt>
      <trkpt lat="43.58517" lon="3.44953">
        <ele>113.09</ele>
        <time>2014-05-18T07:46:26Z</time>
      </trkpt>
      <trkpt lat="43.5851" lon="3.44985">
        <ele>110.69</ele>
        <time>2014-05-18T07:46:30Z</time>
      </trkpt>
      <trkpt lat="43.58503" lon="3.45026">
        <ele>108.29</ele>
        <time>2014-05-18T07:46:35Z</time>
      </trkpt>
      <trkpt lat="43.58506" lon="3.45053">
        <ele>105.4</ele>
        <time>2014-05-18T07:46:40Z</time>
      </trkpt>
      <trkpt lat="43.58508" lon="3.4506">
        <ele>103.96</ele>
        <time>2014-05-18T07:46:42Z</time>
      </trkpt>
      <trkpt lat="43.58502" lon="3.45072">
        <ele>102.52</ele>
        <time>2014-05-18T07:46:46Z</time>
      </trkpt>
      <trkpt lat="43.58471" lon="3.45093">
        <ele>97.23</ele>
        <time>2014-05-18T07:46:53Z</time>
      </trkpt>
      <trkpt lat="43.58426" lon="3.45137">
        <ele>91.94</ele>
        <time>2014-05-18T07:47:01Z</time>
      </trkpt>
      <trkpt lat="43.58417" lon="3.45144">
        <ele>91.94</ele>
        <time>2014-05-18T07:47:09Z</time>
      </trkpt>
      <trkpt lat="43.58419" lon="3.45143">
        <ele>92.42</ele>
        <time>2014-05-18T07:47:38Z</time>
      </trkpt>
      <trkpt lat="43.58419" lon="3.45143">
        <ele>93.39</ele>
        <time>2014-05-18T07:48:01Z</time>
      </trkpt>
      <trkpt lat="43.58419" lon="3.45143">
        <ele>93.87</ele>
        <time>2014-05-18T07:48:24Z</time>
      </trkpt>
      <trkpt lat="43.58418" lon="3.45143">
        <ele>93.87</ele>
        <time>2014-05-18T07:48:28Z</time>
      </trkpt>
      <trkpt lat="43.58406" lon="3.45159">
        <ele>93.39</ele>
        <time>2014-05-18T07:48:35Z</time>
      </trkpt>
      <trkpt lat="43.58373" lon="3.45194">
        <ele>90.5</ele>
        <time>2014-05-18T07:48:44Z</time>
      </trkpt>
      <trkpt lat="43.5836" lon="3.45183">
        <ele>89.06</ele>
        <time>2014-05-18T07:48:48Z</time>
      </trkpt>
      <trkpt lat="43.58324" lon="3.45075">
        <ele>84.73</ele>
        <time>2014-05-18T07:49:01Z</time>
      </trkpt>
      <trkpt lat="43.58304" lon="3.44935">
        <ele>78.97</ele>
        <time>2014-05-18T07:49:14Z</time>
      </trkpt>
      <trkpt lat="43.58293" lon="3.44867">
        <ele>77.52</ele>
        <time>2014-05-18T07:49:20Z</time>
      </trkpt>
      <trkpt lat="43.5828" lon="3.44833">
        <ele>77.52</ele>
        <time>2014-05-18T07:49:24Z</time>
      </trkpt>
      <trkpt lat="43.58238" lon="3.44747">
        <ele>78</ele>
        <time>2014-05-18T07:49:37Z</time>
      </trkpt>
      <trkpt lat="43.58234" lon="3.44726">
        <ele>78.48</ele>
        <time>2014-05-18T07:49:40Z</time>
      </trkpt>
      <trkpt lat="43.58227" lon="3.44642">
        <ele>79.93</ele>
        <time>2014-05-18T07:49:54Z</time>
      </trkpt>
      <trkpt lat="43.58225" lon="3.44628">
        <ele>79.93</ele>
        <time>2014-05-18T07:49:58Z</time>
      </trkpt>
      <trkpt lat="43.58215" lon="3.44622">
        <ele>79.93</ele>
        <time>2014-05-18T07:50:02Z</time>
      </trkpt>
      <trkpt lat="43.58181" lon="3.44629">
        <ele>81.85</ele>
        <time>2014-05-18T07:50:15Z</time>
      </trkpt>
      <trkpt lat="43.58175" lon="3.44614">
        <ele>83.29</ele>
        <time>2014-05-18T07:50:21Z</time>
      </trkpt>
      <trkpt lat="43.58167" lon="3.44552">
        <ele>86.66</ele>
        <time>2014-05-18T07:50:40Z</time>
      </trkpt>
      <trkpt lat="43.58147" lon="3.44504">
        <ele>88.58</ele>
        <time>2014-05-18T07:50:57Z</time>
      </trkpt>
      <trkpt lat="43.58128" lon="3.4447">
        <ele>91.94</ele>
        <time>2014-05-18T07:51:11Z</time>
      </trkpt>
      <trkpt lat="43.58105" lon="3.44435">
        <ele>94.83</ele>
        <time>2014-05-18T07:51:27Z</time>
      </trkpt>
      <trkpt lat="43.5808" lon="3.44391">
        <ele>97.71</ele>
        <time>2014-05-18T07:51:46Z</time>
      </trkpt>
      <trkpt lat="43.58055" lon="3.4436">
        <ele>101.08</ele>
        <time>2014-05-18T07:52:02Z</time>
      </trkpt>
      <trkpt lat="43.58025" lon="3.44324">
        <ele>105.88</ele>
        <time>2014-05-18T07:52:22Z</time>
      </trkpt>
      <trkpt lat="43.58003" lon="3.44297">
        <ele>108.29</ele>
        <time>2014-05-18T07:52:36Z</time>
      </trkpt>
      <trkpt lat="43.57979" lon="3.44273">
        <ele>112.13</ele>
        <time>2014-05-18T07:52:51Z</time>
      </trkpt>
      <trkpt lat="43.57947" lon="3.4425">
        <ele>113.57</ele>
        <time>2014-05-18T07:53:08Z</time>
      </trkpt>
      <trkpt lat="43.57915" lon="3.44238">
        <ele>114.05</ele>
        <time>2014-05-18T07:53:24Z</time>
      </trkpt>
      <trkpt lat="43.57913" lon="3.44237">
        <ele>114.53</ele>
        <time>2014-05-18T07:53:25Z</time>
      </trkpt>
      <trkpt lat="43.57903" lon="3.44251">
        <ele>115.5</ele>
        <time>2014-05-18T07:53:36Z</time>
      </trkpt>
      <trkpt lat="43.579" lon="3.4427">
        <ele>116.46</ele>
        <time>2014-05-18T07:53:50Z</time>
      </trkpt>
      <trkpt lat="43.57899" lon="3.44271">
        <ele>116.46</ele>
        <time>2014-05-18T07:53:55Z</time>
      </trkpt>
      <trkpt lat="43.57879" lon="3.44309">
        <ele>113.09</ele>
        <time>2014-05-18T07:54:05Z</time>
      </trkpt>
      <trkpt lat="43.57828" lon="3.44399">
        <ele>105.88</ele>
        <time>2014-05-18T07:54:17Z</time>
      </trkpt>
      <trkpt lat="43.57792" lon="3.44456">
        <ele>99.15</ele>
        <time>2014-05-18T07:54:24Z</time>
      </trkpt>
      <trkpt lat="43.57754" lon="3.44514">
        <ele>91.94</ele>
        <time>2014-05-18T07:54:33Z</time>
      </trkpt>
      <trkpt lat="43.57741" lon="3.44493">
        <ele>88.58</ele>
        <time>2014-05-18T07:54:39Z</time>
      </trkpt>
      <trkpt lat="43.57721" lon="3.44422">
        <ele>89.54</ele>
        <time>2014-05-18T07:54:52Z</time>
      </trkpt>
      <trkpt lat="43.57716" lon="3.44413">
        <ele>90.5</ele>
        <time>2014-05-18T07:54:55Z</time>
      </trkpt>
      <trkpt lat="43.57699" lon="3.44416">
        <ele>93.39</ele>
        <time>2014-05-18T07:55:02Z</time>
      </trkpt>
      <trkpt lat="43.57694" lon="3.44417">
        <ele>93.87</ele>
        <time>2014-05-18T07:55:04Z</time>
      </trkpt>
      <trkpt lat="43.57684" lon="3.44427">
        <ele>93.87</ele>
        <time>2014-05-18T07:55:09Z</time>
      </trkpt>
      <trkpt lat="43.57642" lon="3.44475">
        <ele>90.5</ele>
        <time>2014-05-18T07:55:24Z</time>
      </trkpt>
      <trkpt lat="43.57625" lon="3.44492">
        <ele>89.54</ele>
        <time>2014-05-18T07:55:29Z</time>
      </trkpt>
      <trkpt lat="43.57614" lon="3.44488">
        <ele>89.06</ele>
        <time>2014-05-18T07:55:33Z</time>
      </trkpt>
      <trkpt lat="43.57599" lon="3.44478">
        <ele>87.62</ele>
        <time>2014-05-18T07:55:38Z</time>
      </trkpt>
      <trkpt lat="43.57568" lon="3.44433">
        <ele>84.73</ele>
        <time>2014-05-18T07:55:50Z</time>
      </trkpt>
      <trkpt lat="43.57559" lon="3.44409">
        <ele>82.81</ele>
        <time>2014-05-18T07:55:56Z</time>
      </trkpt>
      <trkpt lat="43.57528" lon="3.44395">
        <ele>80.41</ele>
        <time>2014-05-18T07:56:04Z</time>
      </trkpt>
      <trkpt lat="43.57504" lon="3.4443">
        <ele>80.89</ele>
        <time>2014-05-18T07:56:15Z</time>
      </trkpt>
      <trkpt lat="43.57484" lon="3.44475">
        <ele>83.77</ele>
        <time>2014-05-18T07:56:30Z</time>
      </trkpt>
      <trkpt lat="43.57454" lon="3.44474">
        <ele>84.73</ele>
        <time>2014-05-18T07:56:43Z</time>
      </trkpt>
      <trkpt lat="43.57429" lon="3.44508">
        <ele>87.14</ele>
        <time>2014-05-18T07:56:57Z</time>
      </trkpt>
      <trkpt lat="43.57395" lon="3.44535">
        <ele>86.66</ele>
        <time>2014-05-18T07:57:12Z</time>
      </trkpt>
      <trkpt lat="43.57358" lon="3.4458">
        <ele>85.21</ele>
        <time>2014-05-18T07:57:26Z</time>
      </trkpt>
      <trkpt lat="43.57329" lon="3.44613">
        <ele>84.73</ele>
        <time>2014-05-18T07:57:36Z</time>
      </trkpt>
      <trkpt lat="43.57317" lon="3.44608">
        <ele>83.77</ele>
        <time>2014-05-18T07:57:40Z</time>
      </trkpt>
      <trkpt lat="43.57312" lon="3.446">
        <ele>82.81</ele>
        <time>2014-05-18T07:57:42Z</time>
      </trkpt>
      <trkpt lat="43.573" lon="3.44599">
        <ele>81.85</ele>
        <time>2014-05-18T07:57:46Z</time>
      </trkpt>
      <trkpt lat="43.57283" lon="3.44619">
        <ele>81.37</ele>
        <time>2014-05-18T07:57:51Z</time>
      </trkpt>
      <trkpt lat="43.57264" lon="3.44639">
        <ele>80.89</ele>
        <time>2014-05-18T07:57:57Z</time>
      </trkpt>
      <trkpt lat="43.57247" lon="3.44625">
        <ele>80.89</ele>
        <time>2014-05-18T07:58:02Z</time>
      </trkpt>
      <trkpt lat="43.57207" lon="3.44573">
        <ele>80.41</ele>
        <time>2014-05-18T07:58:17Z</time>
      </trkpt>
      <trkpt lat="43.57203" lon="3.4457">
        <ele>80.41</ele>
        <time>2014-05-18T07:58:19Z</time>
      </trkpt>
      <trkpt lat="43.57194" lon="3.44578">
        <ele>80.41</ele>
        <time>2014-05-18T07:58:24Z</time>
      </trkpt>
      <trkpt lat="43.5715" lon="3.44624">
        <ele>80.41</ele>
        <time>2014-05-18T07:58:39Z</time>
      </trkpt>
      <trkpt lat="43.57092" lon="3.44676">
        <ele>79.93</ele>
        <time>2014-05-18T07:58:54Z</time>
      </trkpt>
      <trkpt lat="43.57028" lon="3.44709">
        <ele>79.93</ele>
        <time>2014-05-18T07:59:09Z</time>
      </trkpt>
      <trkpt lat="43.57011" lon="3.44717">
        <ele>79.93</ele>
        <time>2014-05-18T07:59:13Z</time>
      </trkpt>
      <trkpt lat="43.56967" lon="3.44742">
        <ele>79.45</ele>
        <time>2014-05-18T07:59:24Z</time>
      </trkpt>
      <trkpt lat="43.569" lon="3.44779">
        <ele>79.45</ele>
        <time>2014-05-18T07:59:41Z</time>
      </trkpt>
      <trkpt lat="43.56849" lon="3.44817">
        <ele>80.41</ele>
        <time>2014-05-18T07:59:56Z</time>
      </trkpt>
      <trkpt lat="43.56809" lon="3.44855">
        <ele>79.45</ele>
        <time>2014-05-18T08:00:10Z</time>
      </trkpt>
      <trkpt lat="43.56748" lon="3.44909">
        <ele>78.97</ele>
        <time>2014-05-18T08:00:26Z</time>
      </trkpt>
      <trkpt lat="43.5673" lon="3.44917">
        <ele>78.97</ele>
        <time>2014-05-18T08:00:30Z</time>
      </trkpt>
      <trkpt lat="43.56712" lon="3.44903">
        <ele>78</ele>
        <time>2014-05-18T08:00:34Z</time>
      </trkpt>
      <trkpt lat="43.56702" lon="3.4488">
        <ele>77.04</ele>
        <time>2014-05-18T08:00:37Z</time>
      </trkpt>
      <trkpt lat="43.56669" lon="3.44826">
        <ele>74.16</ele>
        <time>2014-05-18T08:00:45Z</time>
      </trkpt>
      <trkpt lat="43.56669" lon="3.44802">
        <ele>73.68</ele>
        <time>2014-05-18T08:00:49Z</time>
      </trkpt>
      <trkpt lat="43.56704" lon="3.44752">
        <ele>77.52</ele>
        <time>2014-05-18T08:01:04Z</time>
      </trkpt>
      <trkpt lat="43.56726" lon="3.44723">
        <ele>77.52</ele>
        <time>2014-05-18T08:01:15Z</time>
      </trkpt>
      <trkpt lat="43.56767" lon="3.44662">
        <ele>79.93</ele>
        <time>2014-05-18T08:01:31Z</time>
      </trkpt>
      <trkpt lat="43.56796" lon="3.44591">
        <ele>79.93</ele>
        <time>2014-05-18T08:01:49Z</time>
      </trkpt>
      <trkpt lat="43.56809" lon="3.44513">
        <ele>81.37</ele>
        <time>2014-05-18T08:02:07Z</time>
      </trkpt>
      <trkpt lat="43.56826" lon="3.44432">
        <ele>81.85</ele>
        <time>2014-05-18T08:02:26Z</time>
      </trkpt>
      <trkpt lat="43.56846" lon="3.4435">
        <ele>81.85</ele>
        <time>2014-05-18T08:02:45Z</time>
      </trkpt>
      <trkpt lat="43.56864" lon="3.44282">
        <ele>83.77</ele>
        <time>2014-05-18T08:03:02Z</time>
      </trkpt>
      <trkpt lat="43.56881" lon="3.44203">
        <ele>85.21</ele>
        <time>2014-05-18T08:03:22Z</time>
      </trkpt>
      <trkpt lat="43.56894" lon="3.44128">
        <ele>87.62</ele>
        <time>2014-05-18T08:03:41Z</time>
      </trkpt>
      <trkpt lat="43.56904" lon="3.44074">
        <ele>88.1</ele>
        <time>2014-05-18T08:03:54Z</time>
      </trkpt>
      <trkpt lat="43.56909" lon="3.4399">
        <ele>88.1</ele>
        <time>2014-05-18T08:04:11Z</time>
      </trkpt>
      <trkpt lat="43.56913" lon="3.43902">
        <ele>89.06</ele>
        <time>2014-05-18T08:04:27Z</time>
      </trkpt>
      <trkpt lat="43.56934" lon="3.43832">
        <ele>90.5</ele>
        <time>2014-05-18T08:04:42Z</time>
      </trkpt>
      <trkpt lat="43.56946" lon="3.43788">
        <ele>91.46</ele>
        <time>2014-05-18T08:04:53Z</time>
      </trkpt>
      <trkpt lat="43.56944" lon="3.4372">
        <ele>92.42</ele>
        <time>2014-05-18T08:05:08Z</time>
      </trkpt>
      <trkpt lat="43.56971" lon="3.43651">
        <ele>95.31</ele>
        <time>2014-05-18T08:05:26Z</time>
      </trkpt>
      <trkpt lat="43.57007" lon="3.43595">
        <ele>98.19</ele>
        <time>2014-05-18T08:05:43Z</time>
      </trkpt>
      <trkpt lat="43.57036" lon="3.43542">
        <ele>99.15</ele>
        <time>2014-05-18T08:05:57Z</time>
      </trkpt>
      <trkpt lat="43.57078" lon="3.43481">
        <ele>101.08</ele>
        <time>2014-05-18T08:06:15Z</time>
      </trkpt>
      <trkpt lat="43.57107" lon="3.43445">
        <ele>102.04</ele>
        <time>2014-05-18T08:06:30Z</time>
      </trkpt>
      <trkpt lat="43.57107" lon="3.43445">
        <ele>102.04</ele>
        <time>2014-05-18T08:06:33Z</time>
      </trkpt>
      <trkpt lat="43.5712" lon="3.43423">
        <ele>101.56</ele>
        <time>2014-05-18T08:06:41Z</time>
      </trkpt>
      <trkpt lat="43.57156" lon="3.43408">
        <ele>103</ele>
        <time>2014-05-18T08:06:52Z</time>
      </trkpt>
      <trkpt lat="43.57205" lon="3.43385">
        <ele>104.92</ele>
        <time>2014-05-18T08:07:08Z</time>
      </trkpt>
      <trkpt lat="43.5727" lon="3.43346">
        <ele>108.29</ele>
        <time>2014-05-18T08:07:30Z</time>
      </trkpt>
      <trkpt lat="43.57331" lon="3.43302">
        <ele>111.17</ele>
        <time>2014-05-18T08:07:52Z</time>
      </trkpt>
      <trkpt lat="43.57388" lon="3.43258">
        <ele>114.05</ele>
        <time>2014-05-18T08:08:13Z</time>
      </trkpt>
      <trkpt lat="43.57441" lon="3.43221">
        <ele>117.9</ele>
        <time>2014-05-18T08:08:32Z</time>
      </trkpt>
      <trkpt lat="43.57492" lon="3.432">
        <ele>119.82</ele>
        <time>2014-05-18T08:08:50Z</time>
      </trkpt>
      <trkpt lat="43.57541" lon="3.432">
        <ele>122.22</ele>
        <time>2014-05-18T08:09:06Z</time>
      </trkpt>
      <trkpt lat="43.576" lon="3.43192">
        <ele>124.15</ele>
        <time>2014-05-18T08:09:26Z</time>
      </trkpt>
      <trkpt lat="43.5765" lon="3.43185">
        <ele>125.59</ele>
        <time>2014-05-18T08:09:42Z</time>
      </trkpt>
      <trkpt lat="43.57711" lon="3.43172">
        <ele>126.07</ele>
        <time>2014-05-18T08:09:59Z</time>
      </trkpt>
      <trkpt lat="43.57753" lon="3.43162">
        <ele>127.03</ele>
        <time>2014-05-18T08:10:13Z</time>
      </trkpt>
      <trkpt lat="43.57763" lon="3.43175">
        <ele>126.07</ele>
        <time>2014-05-18T08:10:17Z</time>
      </trkpt>
      <trkpt lat="43.57779" lon="3.4316">
        <ele>126.07</ele>
        <time>2014-05-18T08:10:24Z</time>
      </trkpt>
      <trkpt lat="43.57831" lon="3.4311">
        <ele>124.15</ele>
        <time>2014-05-18T08:10:38Z</time>
      </trkpt>
      <trkpt lat="43.57909" lon="3.43043">
        <ele>121.74</ele>
        <time>2014-05-18T08:10:54Z</time>
      </trkpt>
      <trkpt lat="43.5797" lon="3.4299">
        <ele>120.78</ele>
        <time>2014-05-18T08:11:08Z</time>
      </trkpt>
      <trkpt lat="43.58016" lon="3.42991">
        <ele>121.74</ele>
        <time>2014-05-18T08:11:19Z</time>
      </trkpt>
      <trkpt lat="43.58059" lon="3.42994">
        <ele>123.19</ele>
        <time>2014-05-18T08:11:35Z</time>
      </trkpt>
      <trkpt lat="43.58109" lon="3.42996">
        <ele>124.15</ele>
        <time>2014-05-18T08:11:52Z</time>
      </trkpt>
      <trkpt lat="43.5817" lon="3.42984">
        <ele>124.15</ele>
        <time>2014-05-18T08:12:11Z</time>
      </trkpt>
      <trkpt lat="43.58223" lon="3.42968">
        <ele>124.63</ele>
        <time>2014-05-18T08:12:28Z</time>
      </trkpt>
      <trkpt lat="43.5825" lon="3.42918">
        <ele>121.74</ele>
        <time>2014-05-18T08:12:37Z</time>
      </trkpt>
      <trkpt lat="43.58291" lon="3.42857">
        <ele>118.38</ele>
        <time>2014-05-18T08:12:45Z</time>
      </trkpt>
      <trkpt lat="43.58325" lon="3.42843">
        <ele>118.38</ele>
        <time>2014-05-18T08:12:50Z</time>
      </trkpt>
      <trkpt lat="43.58358" lon="3.42817">
        <ele>119.34</ele>
        <time>2014-05-18T08:12:57Z</time>
      </trkpt>
      <trkpt lat="43.58395" lon="3.42716">
        <ele>120.78</ele>
        <time>2014-05-18T08:13:15Z</time>
      </trkpt>
      <trkpt lat="43.58407" lon="3.42693">
        <ele>121.26</ele>
        <time>2014-05-18T08:13:20Z</time>
      </trkpt>
      <trkpt lat="43.58458" lon="3.42637">
        <ele>124.63</ele>
        <time>2014-05-18T08:13:38Z</time>
      </trkpt>
      <trkpt lat="43.58503" lon="3.42578">
        <ele>126.55</ele>
        <time>2014-05-18T08:13:57Z</time>
      </trkpt>
      <trkpt lat="43.58527" lon="3.42513">
        <ele>127.99</ele>
        <time>2014-05-18T08:14:14Z</time>
      </trkpt>
      <trkpt lat="43.58558" lon="3.42446">
        <ele>130.4</ele>
        <time>2014-05-18T08:14:33Z</time>
      </trkpt>
      <trkpt lat="43.586" lon="3.4237">
        <ele>131.84</ele>
        <time>2014-05-18T08:14:55Z</time>
      </trkpt>
      <trkpt lat="43.58638" lon="3.42297">
        <ele>131.36</ele>
        <time>2014-05-18T08:15:13Z</time>
      </trkpt>
      <trkpt lat="43.58648" lon="3.42272">
        <ele>131.36</ele>
        <time>2014-05-18T08:15:19Z</time>
      </trkpt>
      <trkpt lat="43.58621" lon="3.42203">
        <ele>127.03</ele>
        <time>2014-05-18T08:15:29Z</time>
      </trkpt>
      <trkpt lat="43.58573" lon="3.42101">
        <ele>121.26</ele>
        <time>2014-05-18T08:15:39Z</time>
      </trkpt>
      <trkpt lat="43.58517" lon="3.42046">
        <ele>118.38</ele>
        <time>2014-05-18T08:15:47Z</time>
      </trkpt>
      <trkpt lat="43.58506" lon="3.42004">
        <ele>117.9</ele>
        <time>2014-05-18T08:15:52Z</time>
      </trkpt>
      <trkpt lat="43.5851" lon="3.41996">
        <ele>117.9</ele>
        <time>2014-05-18T08:15:53Z</time>
      </trkpt>
      <trkpt lat="43.58551" lon="3.41892">
        <ele>120.78</ele>
        <time>2014-05-18T08:16:09Z</time>
      </trkpt>
      <trkpt lat="43.58573" lon="3.41834">
        <ele>126.07</ele>
        <time>2014-05-18T08:16:22Z</time>
      </trkpt>
      <trkpt lat="43.58596" lon="3.41781">
        <ele>129.92</ele>
        <time>2014-05-18T08:16:37Z</time>
      </trkpt>
      <trkpt lat="43.5861" lon="3.41772">
        <ele>130.88</ele>
        <time>2014-05-18T08:16:43Z</time>
      </trkpt>
      <trkpt lat="43.58618" lon="3.41776">
        <ele>131.84</ele>
        <time>2014-05-18T08:16:47Z</time>
      </trkpt>
      <trkpt lat="43.58649" lon="3.41817">
        <ele>134.24</ele>
        <time>2014-05-18T08:17:06Z</time>
      </trkpt>
      <trkpt lat="43.58676" lon="3.41862">
        <ele>134.72</ele>
        <time>2014-05-18T08:17:25Z</time>
      </trkpt>
      <trkpt lat="43.58698" lon="3.41908">
        <ele>135.68</ele>
        <time>2014-05-18T08:17:43Z</time>
      </trkpt>
      <trkpt lat="43.58725" lon="3.41948">
        <ele>138.57</ele>
        <time>2014-05-18T08:18:01Z</time>
      </trkpt>
      <trkpt lat="43.58758" lon="3.41973">
        <ele>142.41</ele>
        <time>2014-05-18T08:18:18Z</time>
      </trkpt>
      <trkpt lat="43.58799" lon="3.41994">
        <ele>147.22</ele>
        <time>2014-05-18T08:18:39Z</time>
      </trkpt>
      <trkpt lat="43.58826" lon="3.41999">
        <ele>152.03</ele>
        <time>2014-05-18T08:18:52Z</time>
      </trkpt>
      <trkpt lat="43.58834" lon="3.42002">
        <ele>152.99</ele>
        <time>2014-05-18T08:18:56Z</time>
      </trkpt>
      <trkpt lat="43.58864" lon="3.42008">
        <ele>154.43</ele>
        <time>2014-05-18T08:19:10Z</time>
      </trkpt>
      <trkpt lat="43.58894" lon="3.42014">
        <ele>156.83</ele>
        <time>2014-05-18T08:19:25Z</time>
      </trkpt>
      <trkpt lat="43.58926" lon="3.41998">
        <ele>158.75</ele>
        <time>2014-05-18T08:19:43Z</time>
      </trkpt>
      <trkpt lat="43.58933" lon="3.41953">
        <ele>161.16</ele>
        <time>2014-05-18T08:20:01Z</time>
      </trkpt>
      <trkpt lat="43.58944" lon="3.41917">
        <ele>165</ele>
        <time>2014-05-18T08:20:17Z</time>
      </trkpt>
      <trkpt lat="43.58949" lon="3.41865">
        <ele>167.41</ele>
        <time>2014-05-18T08:20:37Z</time>
      </trkpt>
      <trkpt lat="43.58969" lon="3.41841">
        <ele>169.81</ele>
        <time>2014-05-18T08:20:51Z</time>
      </trkpt>
      <trkpt lat="43.58983" lon="3.41804">
        <ele>173.66</ele>
        <time>2014-05-18T08:21:07Z</time>
      </trkpt>
      <trkpt lat="43.58991" lon="3.41756">
        <ele>178.94</ele>
        <time>2014-05-18T08:21:25Z</time>
      </trkpt>
      <trkpt lat="43.59007" lon="3.41711">
        <ele>182.79</ele>
        <time>2014-05-18T08:21:43Z</time>
      </trkpt>
      <trkpt lat="43.59017" lon="3.41668">
        <ele>185.67</ele>
        <time>2014-05-18T08:21:59Z</time>
      </trkpt>
      <trkpt lat="43.59029" lon="3.41634">
        <ele>188.08</ele>
        <time>2014-05-18T08:22:13Z</time>
      </trkpt>
      <trkpt lat="43.59029" lon="3.41625">
        <ele>189.04</ele>
        <time>2014-05-18T08:22:16Z</time>
      </trkpt>
      <trkpt lat="43.59022" lon="3.41624">
        <ele>190.48</ele>
        <time>2014-05-18T08:22:20Z</time>
      </trkpt>
      <trkpt lat="43.58999" lon="3.41656">
        <ele>193.36</ele>
        <time>2014-05-18T08:22:36Z</time>
      </trkpt>
      <trkpt lat="43.58989" lon="3.41673">
        <ele>193.84</ele>
        <time>2014-05-18T08:22:42Z</time>
      </trkpt>
      <trkpt lat="43.58981" lon="3.41668">
        <ele>195.77</ele>
        <time>2014-05-18T08:22:47Z</time>
      </trkpt>
      <trkpt lat="43.58989" lon="3.41619">
        <ele>199.61</ele>
        <time>2014-05-18T08:23:03Z</time>
      </trkpt>
      <trkpt lat="43.59001" lon="3.41571">
        <ele>202.98</ele>
        <time>2014-05-18T08:23:18Z</time>
      </trkpt>
      <trkpt lat="43.59004" lon="3.41519">
        <ele>204.9</ele>
        <time>2014-05-18T08:23:33Z</time>
      </trkpt>
      <trkpt lat="43.59005" lon="3.41448">
        <ele>209.7</ele>
        <time>2014-05-18T08:23:53Z</time>
      </trkpt>
      <trkpt lat="43.59005" lon="3.41379">
        <ele>214.03</ele>
        <time>2014-05-18T08:24:12Z</time>
      </trkpt>
      <trkpt lat="43.59011" lon="3.41304">
        <ele>214.51</ele>
        <time>2014-05-18T08:24:30Z</time>
      </trkpt>
      <trkpt lat="43.59003" lon="3.41224">
        <ele>214.99</ele>
        <time>2014-05-18T08:24:48Z</time>
      </trkpt>
      <trkpt lat="43.59007" lon="3.41141">
        <ele>214.99</ele>
        <time>2014-05-18T08:25:02Z</time>
      </trkpt>
      <trkpt lat="43.59007" lon="3.41096">
        <ele>215.47</ele>
        <time>2014-05-18T08:25:09Z</time>
      </trkpt>
      <trkpt lat="43.58993" lon="3.41021">
        <ele>217.88</ele>
        <time>2014-05-18T08:25:24Z</time>
      </trkpt>
      <trkpt lat="43.58968" lon="3.40959">
        <ele>217.88</ele>
        <time>2014-05-18T08:25:39Z</time>
      </trkpt>
      <trkpt lat="43.58929" lon="3.40913">
        <ele>219.8</ele>
        <time>2014-05-18T08:25:55Z</time>
      </trkpt>
      <trkpt lat="43.58907" lon="3.40879">
        <ele>223.64</ele>
        <time>2014-05-18T08:26:08Z</time>
      </trkpt>
      <trkpt lat="43.58883" lon="3.40849">
        <ele>227.01</ele>
        <time>2014-05-18T08:26:22Z</time>
      </trkpt>
      <trkpt lat="43.58861" lon="3.40817">
        <ele>228.45</ele>
        <time>2014-05-18T08:26:38Z</time>
      </trkpt>
      <trkpt lat="43.58861" lon="3.40816">
        <ele>229.41</ele>
        <time>2014-05-18T08:26:56Z</time>
      </trkpt>
      <trkpt lat="43.58861" lon="3.40816">
        <ele>229.89</ele>
        <time>2014-05-18T08:27:21Z</time>
      </trkpt>
      <trkpt lat="43.58861" lon="3.40815">
        <ele>229.89</ele>
        <time>2014-05-18T08:27:40Z</time>
      </trkpt>
      <trkpt lat="43.58861" lon="3.40815">
        <ele>228.93</ele>
        <time>2014-05-18T08:27:57Z</time>
      </trkpt>
      <trkpt lat="43.58861" lon="3.40816">
        <ele>229.41</ele>
        <time>2014-05-18T08:28:16Z</time>
      </trkpt>
      <trkpt lat="43.58861" lon="3.40817">
        <ele>229.89</ele>
        <time>2014-05-18T08:28:29Z</time>
      </trkpt>
      <trkpt lat="43.58867" lon="3.40818">
        <ele>229.89</ele>
        <time>2014-05-18T08:28:40Z</time>
      </trkpt>
      <trkpt lat="43.58867" lon="3.40818">
        <ele>229.89</ele>
        <time>2014-05-18T08:29:02Z</time>
      </trkpt>
      <trkpt lat="43.58867" lon="3.40819">
        <ele>230.85</ele>
        <time>2014-05-18T08:29:39Z</time>
      </trkpt>
      <trkpt lat="43.58868" lon="3.40819">
        <ele>231.33</ele>
        <time>2014-05-18T08:30:06Z</time>
      </trkpt>
      <trkpt lat="43.58867" lon="3.40819">
        <ele>230.37</ele>
        <time>2014-05-18T08:30:37Z</time>
      </trkpt>
      <trkpt lat="43.58867" lon="3.40818">
        <ele>229.89</ele>
        <time>2014-05-18T08:30:51Z</time>
      </trkpt>
      <trkpt lat="43.58865" lon="3.40817">
        <ele>228.45</ele>
        <time>2014-05-18T08:31:04Z</time>
      </trkpt>
      <trkpt lat="43.58851" lon="3.4079">
        <ele>229.41</ele>
        <time>2014-05-18T08:31:18Z</time>
      </trkpt>
      <trkpt lat="43.58834" lon="3.40752">
        <ele>230.37</ele>
        <time>2014-05-18T08:31:33Z</time>
      </trkpt>
      <trkpt lat="43.58817" lon="3.40719">
        <ele>232.78</ele>
        <time>2014-05-18T08:31:46Z</time>
      </trkpt>
      <trkpt lat="43.58799" lon="3.40696">
        <ele>235.66</ele>
        <time>2014-05-18T08:32:01Z</time>
      </trkpt>
      <trkpt lat="43.58783" lon="3.40674">
        <ele>237.58</ele>
        <time>2014-05-18T08:32:17Z</time>
      </trkpt>
      <trkpt lat="43.58779" lon="3.40633">
        <ele>240.47</ele>
        <time>2014-05-18T08:32:35Z</time>
      </trkpt>
      <trkpt lat="43.58774" lon="3.4061">
        <ele>242.39</ele>
        <time>2014-05-18T08:32:49Z</time>
      </trkpt>
      <trkpt lat="43.58766" lon="3.40589">
        <ele>244.31</ele>
        <time>2014-05-18T08:33:03Z</time>
      </trkpt>
      <trkpt lat="43.58775" lon="3.40571">
        <ele>245.75</ele>
        <time>2014-05-18T08:33:15Z</time>
      </trkpt>
      <trkpt lat="43.58789" lon="3.40544">
        <ele>250.08</ele>
        <time>2014-05-18T08:33:31Z</time>
      </trkpt>
      <trkpt lat="43.58794" lon="3.40516">
        <ele>252.96</ele>
        <time>2014-05-18T08:33:46Z</time>
      </trkpt>
      <trkpt lat="43.58797" lon="3.40482">
        <ele>256.33</ele>
        <time>2014-05-18T08:34:04Z</time>
      </trkpt>
      <trkpt lat="43.58805" lon="3.40445">
        <ele>258.73</ele>
        <time>2014-05-18T08:34:22Z</time>
      </trkpt>
      <trkpt lat="43.58809" lon="3.40417">
        <ele>261.62</ele>
        <time>2014-05-18T08:34:37Z</time>
      </trkpt>
      <trkpt lat="43.58814" lon="3.40385">
        <ele>265.46</ele>
        <time>2014-05-18T08:34:54Z</time>
      </trkpt>
      <trkpt lat="43.58819" lon="3.40353">
        <ele>268.35</ele>
        <time>2014-05-18T08:35:10Z</time>
      </trkpt>
      <trkpt lat="43.58826" lon="3.40317">
        <ele>270.75</ele>
        <time>2014-05-18T08:35:27Z</time>
      </trkpt>
      <trkpt lat="43.58838" lon="3.40281">
        <ele>274.11</ele>
        <time>2014-05-18T08:35:45Z</time>
      </trkpt>
      <trkpt lat="43.58848" lon="3.40244">
        <ele>275.56</ele>
        <time>2014-05-18T08:36:00Z</time>
      </trkpt>
      <trkpt lat="43.58859" lon="3.40201">
        <ele>276.04</ele>
        <time>2014-05-18T08:36:16Z</time>
      </trkpt>
      <trkpt lat="43.58869" lon="3.40171">
        <ele>274.59</ele>
        <time>2014-05-18T08:36:23Z</time>
      </trkpt>
      <trkpt lat="43.58875" lon="3.40149">
        <ele>274.11</ele>
        <time>2014-05-18T08:36:27Z</time>
      </trkpt>
      <trkpt lat="43.58878" lon="3.40139">
        <ele>273.63</ele>
        <time>2014-05-18T08:36:29Z</time>
      </trkpt>
      <trkpt lat="43.58896" lon="3.40083">
        <ele>273.63</ele>
        <time>2014-05-18T08:36:40Z</time>
      </trkpt>
      <trkpt lat="43.58923" lon="3.40028">
        <ele>274.59</ele>
        <time>2014-05-18T08:36:53Z</time>
      </trkpt>
      <trkpt lat="43.58956" lon="3.39984">
        <ele>276.52</ele>
        <time>2014-05-18T08:37:07Z</time>
      </trkpt>
      <trkpt lat="43.58995" lon="3.39953">
        <ele>278.44</ele>
        <time>2014-05-18T08:37:22Z</time>
      </trkpt>
      <trkpt lat="43.59014" lon="3.3993">
        <ele>280.36</ele>
        <time>2014-05-18T08:37:33Z</time>
      </trkpt>
      <trkpt lat="43.5903" lon="3.39903">
        <ele>283.73</ele>
        <time>2014-05-18T08:37:48Z</time>
      </trkpt>
      <trkpt lat="43.5905" lon="3.3988">
        <ele>285.65</ele>
        <time>2014-05-18T08:38:02Z</time>
      </trkpt>
      <trkpt lat="43.59071" lon="3.39856">
        <ele>288.05</ele>
        <time>2014-05-18T08:38:16Z</time>
      </trkpt>
      <trkpt lat="43.59068" lon="3.39846">
        <ele>288.53</ele>
        <time>2014-05-18T08:38:21Z</time>
      </trkpt>
      <trkpt lat="43.59059" lon="3.3984">
        <ele>288.05</ele>
        <time>2014-05-18T08:38:28Z</time>
      </trkpt>
      <trkpt lat="43.59053" lon="3.39834">
        <ele>287.57</ele>
        <time>2014-05-18T08:38:39Z</time>
      </trkpt>
      <trkpt lat="43.59054" lon="3.39834">
        <ele>287.09</ele>
        <time>2014-05-18T08:39:09Z</time>
      </trkpt>
      <trkpt lat="43.59054" lon="3.39833">
        <ele>286.61</ele>
        <time>2014-05-18T08:39:21Z</time>
      </trkpt>
      <trkpt lat="43.59054" lon="3.39832">
        <ele>287.09</ele>
        <time>2014-05-18T08:39:50Z</time>
      </trkpt>
      <trkpt lat="43.59054" lon="3.39833">
        <ele>288.05</ele>
        <time>2014-05-18T08:40:25Z</time>
      </trkpt>
      <trkpt lat="43.59053" lon="3.39833">
        <ele>288.53</ele>
        <time>2014-05-18T08:40:26Z</time>
      </trkpt>
      <trkpt lat="43.59032" lon="3.39841">
        <ele>287.09</ele>
        <time>2014-05-18T08:40:38Z</time>
      </trkpt>
      <trkpt lat="43.58993" lon="3.39845">
        <ele>286.61</ele>
        <time>2014-05-18T08:40:50Z</time>
      </trkpt>
      <trkpt lat="43.58984" lon="3.39819">
        <ele>286.61</ele>
        <time>2014-05-18T08:40:59Z</time>
      </trkpt>
      <trkpt lat="43.58948" lon="3.39809">
        <ele>285.17</ele>
        <time>2014-05-18T08:41:12Z</time>
      </trkpt>
      <trkpt lat="43.58898" lon="3.39819">
        <ele>285.65</ele>
        <time>2014-05-18T08:41:26Z</time>
      </trkpt>
      <trkpt lat="43.58853" lon="3.39836">
        <ele>285.65</ele>
        <time>2014-05-18T08:41:42Z</time>
      </trkpt>
      <trkpt lat="43.58816" lon="3.39841">
        <ele>285.65</ele>
        <time>2014-05-18T08:41:57Z</time>
      </trkpt>
      <trkpt lat="43.58816" lon="3.39841">
        <ele>284.69</ele>
        <time>2014-05-18T08:42:14Z</time>
      </trkpt>
      <trkpt lat="43.58806" lon="3.39842">
        <ele>284.21</ele>
        <time>2014-05-18T08:42:35Z</time>
      </trkpt>
      <trkpt lat="43.58747" lon="3.39843">
        <ele>284.21</ele>
        <time>2014-05-18T08:42:51Z</time>
      </trkpt>
      <trkpt lat="43.58693" lon="3.39843">
        <ele>284.21</ele>
        <time>2014-05-18T08:43:06Z</time>
      </trkpt>
      <trkpt lat="43.58649" lon="3.39841">
        <ele>284.69</ele>
        <time>2014-05-18T08:43:22Z</time>
      </trkpt>
      <trkpt lat="43.58605" lon="3.39857">
        <ele>285.65</ele>
        <time>2014-05-18T08:43:37Z</time>
      </trkpt>
      <trkpt lat="43.58567" lon="3.39894">
        <ele>287.57</ele>
        <time>2014-05-18T08:43:52Z</time>
      </trkpt>
      <trkpt lat="43.58532" lon="3.39915">
        <ele>287.09</ele>
        <time>2014-05-18T08:44:06Z</time>
      </trkpt>
      <trkpt lat="43.58488" lon="3.39928">
        <ele>288.53</ele>
        <time>2014-05-18T08:44:24Z</time>
      </trkpt>
      <trkpt lat="43.58456" lon="3.39929">
        <ele>288.05</ele>
        <time>2014-05-18T08:44:34Z</time>
      </trkpt>
      <trkpt lat="43.58448" lon="3.39928">
        <ele>288.05</ele>
        <time>2014-05-18T08:44:36Z</time>
      </trkpt>
      <trkpt lat="43.5843" lon="3.39931">
        <ele>286.61</ele>
        <time>2014-05-18T08:44:40Z</time>
      </trkpt>
      <trkpt lat="43.58417" lon="3.39937">
        <ele>285.65</ele>
        <time>2014-05-18T08:44:43Z</time>
      </trkpt>
      <trkpt lat="43.58393" lon="3.39914">
        <ele>280.36</ele>
        <time>2014-05-18T08:44:50Z</time>
      </trkpt>
      <trkpt lat="43.584" lon="3.3989">
        <ele>279.4</ele>
        <time>2014-05-18T08:44:53Z</time>
      </trkpt>
      <trkpt lat="43.58432" lon="3.39825">
        <ele>274.59</ele>
        <time>2014-05-18T08:45:02Z</time>
      </trkpt>
      <trkpt lat="43.58417" lon="3.39791">
        <ele>269.79</ele>
        <time>2014-05-18T08:45:08Z</time>
      </trkpt>
      <trkpt lat="43.5839" lon="3.39772">
        <ele>268.35</ele>
        <time>2014-05-18T08:45:13Z</time>
      </trkpt>
      <trkpt lat="43.58374" lon="3.39733">
        <ele>265.46</ele>
        <time>2014-05-18T08:45:18Z</time>
      </trkpt>
      <trkpt lat="43.58369" lon="3.39651">
        <ele>259.21</ele>
        <time>2014-05-18T08:45:25Z</time>
      </trkpt>
      <trkpt lat="43.58389" lon="3.39593">
        <ele>254.89</ele>
        <time>2014-05-18T08:45:31Z</time>
      </trkpt>
      <trkpt lat="43.58388" lon="3.39551">
        <ele>250.08</ele>
        <time>2014-05-18T08:45:36Z</time>
      </trkpt>
      <trkpt lat="43.58368" lon="3.39503">
        <ele>244.79</ele>
        <time>2014-05-18T08:45:40Z</time>
      </trkpt>
      <trkpt lat="43.58358" lon="3.39463">
        <ele>243.35</ele>
        <time>2014-05-18T08:45:43Z</time>
      </trkpt>
      <trkpt lat="43.58334" lon="3.39416">
        <ele>243.35</ele>
        <time>2014-05-18T08:45:48Z</time>
      </trkpt>
      <trkpt lat="43.58302" lon="3.39388">
        <ele>242.87</ele>
        <time>2014-05-18T08:45:53Z</time>
      </trkpt>
      <trkpt lat="43.58284" lon="3.39351">
        <ele>238.06</ele>
        <time>2014-05-18T08:46:00Z</time>
      </trkpt>
      <trkpt lat="43.58297" lon="3.39329">
        <ele>236.14</ele>
        <time>2014-05-18T08:46:04Z</time>
      </trkpt>
      <trkpt lat="43.58308" lon="3.39296">
        <ele>234.7</ele>
        <time>2014-05-18T08:46:08Z</time>
      </trkpt>
      <trkpt lat="43.58317" lon="3.39279">
        <ele>234.22</ele>
        <time>2014-05-18T08:46:10Z</time>
      </trkpt>
      <trkpt lat="43.58375" lon="3.39206">
        <ele>229.41</ele>
        <time>2014-05-18T08:46:20Z</time>
      </trkpt>
      <trkpt lat="43.58408" lon="3.39135">
        <ele>225.09</ele>
        <time>2014-05-18T08:46:29Z</time>
      </trkpt>
      <trkpt lat="43.58417" lon="3.39104">
        <ele>223.64</ele>
        <time>2014-05-18T08:46:33Z</time>
      </trkpt>
      <trkpt lat="43.58441" lon="3.39037">
        <ele>219.32</ele>
        <time>2014-05-18T08:46:40Z</time>
      </trkpt>
      <trkpt lat="43.58457" lon="3.38954">
        <ele>214.51</ele>
        <time>2014-05-18T08:46:47Z</time>
      </trkpt>
      <trkpt lat="43.58472" lon="3.38917">
        <ele>211.15</ele>
        <time>2014-05-18T08:46:51Z</time>
      </trkpt>
      <trkpt lat="43.58509" lon="3.38867">
        <ele>206.34</ele>
        <time>2014-05-18T08:46:59Z</time>
      </trkpt>
      <trkpt lat="43.5851" lon="3.38847">
        <ele>205.38</ele>
        <time>2014-05-18T08:47:02Z</time>
      </trkpt>
      <trkpt lat="43.5851" lon="3.38831">
        <ele>204.42</ele>
        <time>2014-05-18T08:47:04Z</time>
      </trkpt>
      <trkpt lat="43.58511" lon="3.38814">
        <ele>203.46</ele>
        <time>2014-05-18T08:47:06Z</time>
      </trkpt>
      <trkpt lat="43.58517" lon="3.38769">
        <ele>201.05</ele>
        <time>2014-05-18T08:47:11Z</time>
      </trkpt>
      <trkpt lat="43.58517" lon="3.38721">
        <ele>199.61</ele>
        <time>2014-05-18T08:47:16Z</time>
      </trkpt>
      <trkpt lat="43.5851" lon="3.38683">
        <ele>198.65</ele>
        <time>2014-05-18T08:47:20Z</time>
      </trkpt>
      <trkpt lat="43.58496" lon="3.3857">
        <ele>194.8</ele>
        <time>2014-05-18T08:47:32Z</time>
      </trkpt>
      <trkpt lat="43.58483" lon="3.38491">
        <ele>196.73</ele>
        <time>2014-05-18T08:47:41Z</time>
      </trkpt>
      <trkpt lat="43.58469" lon="3.38477">
        <ele>198.17</ele>
        <time>2014-05-18T08:47:44Z</time>
      </trkpt>
      <trkpt lat="43.58449" lon="3.38469">
        <ele>199.13</ele>
        <time>2014-05-18T08:47:48Z</time>
      </trkpt>
      <trkpt lat="43.58436" lon="3.38433">
        <ele>199.61</ele>
        <time>2014-05-18T08:47:56Z</time>
      </trkpt>
      <trkpt lat="43.58441" lon="3.38412">
        <ele>198.17</ele>
        <time>2014-05-18T08:47:59Z</time>
      </trkpt>
      <trkpt lat="43.58432" lon="3.3833">
        <ele>194.32</ele>
        <time>2014-05-18T08:48:11Z</time>
      </trkpt>
      <trkpt lat="43.58422" lon="3.38268">
        <ele>186.15</ele>
        <time>2014-05-18T08:48:24Z</time>
      </trkpt>
      <trkpt lat="43.5841" lon="3.38221">
        <ele>179.9</ele>
        <time>2014-05-18T08:48:34Z</time>
      </trkpt>
      <trkpt lat="43.58406" lon="3.38188">
        <ele>176.54</ele>
        <time>2014-05-18T08:48:43Z</time>
      </trkpt>
      <trkpt lat="43.58406" lon="3.38188">
        <ele>179.42</ele>
        <time>2014-05-18T08:49:07Z</time>
      </trkpt>
      <trkpt lat="43.58406" lon="3.38188">
        <ele>180.38</ele>
        <time>2014-05-18T08:49:33Z</time>
      </trkpt>
      <trkpt lat="43.58406" lon="3.38188">
        <ele>179.42</ele>
        <time>2014-05-18T08:49:52Z</time>
      </trkpt>
      <trkpt lat="43.58399" lon="3.38182">
        <ele>179.9</ele>
        <time>2014-05-18T08:49:56Z</time>
      </trkpt>
      <trkpt lat="43.58365" lon="3.38135">
        <ele>179.42</ele>
        <time>2014-05-18T08:50:10Z</time>
      </trkpt>
      <trkpt lat="43.58349" lon="3.38082">
        <ele>178.46</ele>
        <time>2014-05-18T08:50:23Z</time>
      </trkpt>
      <trkpt lat="43.5834" lon="3.38056">
        <ele>177.5</ele>
        <time>2014-05-18T08:50:29Z</time>
      </trkpt>
      <trkpt lat="43.58325" lon="3.38001">
        <ele>174.14</ele>
        <time>2014-05-18T08:50:38Z</time>
      </trkpt>
      <trkpt lat="43.58324" lon="3.37968">
        <ele>172.21</ele>
        <time>2014-05-18T08:50:44Z</time>
      </trkpt>
      <trkpt lat="43.58312" lon="3.37938">
        <ele>170.77</ele>
        <time>2014-05-18T08:50:49Z</time>
      </trkpt>
      <trkpt lat="43.58252" lon="3.3788">
        <ele>171.73</ele>
        <time>2014-05-18T08:51:01Z</time>
      </trkpt>
      <trkpt lat="43.5821" lon="3.37843">
        <ele>175.58</ele>
        <time>2014-05-18T08:51:15Z</time>
      </trkpt>
      <trkpt lat="43.58209" lon="3.37839">
        <ele>175.58</ele>
        <time>2014-05-18T08:51:16Z</time>
      </trkpt>
      <trkpt lat="43.58203" lon="3.3783">
        <ele>175.1</ele>
        <time>2014-05-18T08:51:18Z</time>
      </trkpt>
      <trkpt lat="43.58175" lon="3.37808">
        <ele>173.66</ele>
        <time>2014-05-18T08:51:25Z</time>
      </trkpt>
      <trkpt lat="43.58162" lon="3.3779">
        <ele>173.66</ele>
        <time>2014-05-18T08:51:29Z</time>
      </trkpt>
      <trkpt lat="43.58154" lon="3.37768">
        <ele>174.14</ele>
        <time>2014-05-18T08:51:33Z</time>
      </trkpt>
      <trkpt lat="43.58125" lon="3.37725">
        <ele>172.21</ele>
        <time>2014-05-18T08:51:41Z</time>
      </trkpt>
      <trkpt lat="43.58119" lon="3.37686">
        <ele>170.29</ele>
        <time>2014-05-18T08:51:46Z</time>
      </trkpt>
      <trkpt lat="43.58128" lon="3.37628">
        <ele>167.41</ele>
        <time>2014-05-18T08:51:52Z</time>
      </trkpt>
      <trkpt lat="43.58113" lon="3.3759">
        <ele>165</ele>
        <time>2014-05-18T08:51:56Z</time>
      </trkpt>
      <trkpt lat="43.58103" lon="3.37567">
        <ele>163.08</ele>
        <time>2014-05-18T08:51:58Z</time>
      </trkpt>
      <trkpt lat="43.58064" lon="3.37515">
        <ele>157.79</ele>
        <time>2014-05-18T08:52:03Z</time>
      </trkpt>
      <trkpt lat="43.58035" lon="3.3746">
        <ele>152.03</ele>
        <time>2014-05-18T08:52:07Z</time>
      </trkpt>
      <trkpt lat="43.58026" lon="3.3743">
        <ele>148.66</ele>
        <time>2014-05-18T08:52:09Z</time>
      </trkpt>
      <trkpt lat="43.58002" lon="3.37353">
        <ele>141.45</ele>
        <time>2014-05-18T08:52:14Z</time>
      </trkpt>
      <trkpt lat="43.57953" lon="3.37309">
        <ele>139.53</ele>
        <time>2014-05-18T08:52:21Z</time>
      </trkpt>
      <trkpt lat="43.5786" lon="3.37245">
        <ele>140.97</ele>
        <time>2014-05-18T08:52:35Z</time>
      </trkpt>
      <trkpt lat="43.5778" lon="3.37177">
        <ele>134.72</ele>
        <time>2014-05-18T08:52:47Z</time>
      </trkpt>
      <trkpt lat="43.5777" lon="3.3714">
        <ele>131.84</ele>
        <time>2014-05-18T08:52:51Z</time>
      </trkpt>
      <trkpt lat="43.57778" lon="3.37058">
        <ele>124.63</ele>
        <time>2014-05-18T08:52:57Z</time>
      </trkpt>
      <trkpt lat="43.57793" lon="3.36997">
        <ele>121.74</ele>
        <time>2014-05-18T08:53:01Z</time>
      </trkpt>
      <trkpt lat="43.5781" lon="3.36905">
        <ele>125.11</ele>
        <time>2014-05-18T08:53:09Z</time>
      </trkpt>
      <trkpt lat="43.57809" lon="3.36895">
        <ele>125.59</ele>
        <time>2014-05-18T08:53:10Z</time>
      </trkpt>
      <trkpt lat="43.57803" lon="3.36842">
        <ele>127.51</ele>
        <time>2014-05-18T08:53:16Z</time>
      </trkpt>
      <trkpt lat="43.57776" lon="3.36731">
        <ele>122.22</ele>
        <time>2014-05-18T08:53:27Z</time>
      </trkpt>
      <trkpt lat="43.57785" lon="3.3668">
        <ele>120.78</ele>
        <time>2014-05-18T08:53:32Z</time>
      </trkpt>
      <trkpt lat="43.57826" lon="3.36611">
        <ele>118.86</ele>
        <time>2014-05-18T08:53:40Z</time>
      </trkpt>
      <trkpt lat="43.57835" lon="3.36567">
        <ele>118.38</ele>
        <time>2014-05-18T08:53:45Z</time>
      </trkpt>
      <trkpt lat="43.5787" lon="3.36534">
        <ele>115.98</ele>
        <time>2014-05-18T08:53:52Z</time>
      </trkpt>
      <trkpt lat="43.57892" lon="3.36533">
        <ele>115.01</ele>
        <time>2014-05-18T08:53:55Z</time>
      </trkpt>
      <trkpt lat="43.57915" lon="3.36497">
        <ele>111.17</ele>
        <time>2014-05-18T08:54:03Z</time>
      </trkpt>
      <trkpt lat="43.57911" lon="3.36488">
        <ele>110.69</ele>
        <time>2014-05-18T08:54:04Z</time>
      </trkpt>
      <trkpt lat="43.57895" lon="3.36453">
        <ele>109.25</ele>
        <time>2014-05-18T08:54:08Z</time>
      </trkpt>
      <trkpt lat="43.57887" lon="3.36403">
        <ele>111.65</ele>
        <time>2014-05-18T08:54:18Z</time>
      </trkpt>
      <trkpt lat="43.57884" lon="3.36391">
        <ele>113.57</ele>
        <time>2014-05-18T08:54:23Z</time>
      </trkpt>
      <trkpt lat="43.57883" lon="3.36385">
        <ele>115.01</ele>
        <time>2014-05-18T08:54:34Z</time>
      </trkpt>
      <trkpt lat="43.57883" lon="3.36385">
        <ele>115.01</ele>
        <time>2014-05-18T08:54:40Z</time>
      </trkpt>
      <trkpt lat="43.57876" lon="3.36376">
        <ele>115.98</ele>
        <time>2014-05-18T08:54:49Z</time>
      </trkpt>
      <trkpt lat="43.57866" lon="3.36378">
        <ele>115.5</ele>
        <time>2014-05-18T08:54:53Z</time>
      </trkpt>
      <trkpt lat="43.57809" lon="3.3639">
        <ele>114.53</ele>
        <time>2014-05-18T08:55:08Z</time>
      </trkpt>
      <trkpt lat="43.57759" lon="3.36399">
        <ele>113.09</ele>
        <time>2014-05-18T08:55:22Z</time>
      </trkpt>
      <trkpt lat="43.57692" lon="3.36394">
        <ele>113.09</ele>
        <time>2014-05-18T08:55:37Z</time>
      </trkpt>
      <trkpt lat="43.57608" lon="3.36377">
        <ele>110.69</ele>
        <time>2014-05-18T08:55:53Z</time>
      </trkpt>
      <trkpt lat="43.5752" lon="3.36364">
        <ele>108.29</ele>
        <time>2014-05-18T08:56:09Z</time>
      </trkpt>
      <trkpt lat="43.57443" lon="3.36352">
        <ele>108.77</ele>
        <time>2014-05-18T08:56:23Z</time>
      </trkpt>
      <trkpt lat="43.57429" lon="3.36352">
        <ele>109.73</ele>
        <time>2014-05-18T08:56:26Z</time>
      </trkpt>
      <trkpt lat="43.574" lon="3.3636">
        <ele>110.69</ele>
        <time>2014-05-18T08:56:32Z</time>
      </trkpt>
      <trkpt lat="43.57381" lon="3.36366">
        <ele>109.73</ele>
        <time>2014-05-18T08:56:36Z</time>
      </trkpt>
      <trkpt lat="43.57365" lon="3.36393">
        <ele>108.77</ele>
        <time>2014-05-18T08:56:42Z</time>
      </trkpt>
      <trkpt lat="43.57362" lon="3.36419">
        <ele>108.29</ele>
        <time>2014-05-18T08:56:46Z</time>
      </trkpt>
      <trkpt lat="43.57342" lon="3.36445">
        <ele>108.77</ele>
        <time>2014-05-18T08:56:53Z</time>
      </trkpt>
      <trkpt lat="43.57286" lon="3.36455">
        <ele>109.25</ele>
        <time>2014-05-18T08:57:11Z</time>
      </trkpt>
      <trkpt lat="43.57246" lon="3.36461">
        <ele>110.69</ele>
        <time>2014-05-18T08:57:28Z</time>
      </trkpt>
      <trkpt lat="43.572" lon="3.36476">
        <ele>112.13</ele>
        <time>2014-05-18T08:57:48Z</time>
      </trkpt>
      <trkpt lat="43.57174" lon="3.36497">
        <ele>114.05</ele>
        <time>2014-05-18T08:58:02Z</time>
      </trkpt>
      <trkpt lat="43.57148" lon="3.36527">
        <ele>114.53</ele>
        <time>2014-05-18T08:58:16Z</time>
      </trkpt>
      <trkpt lat="43.57124" lon="3.36557">
        <ele>115.98</ele>
        <time>2014-05-18T08:58:31Z</time>
      </trkpt>
      <trkpt lat="43.57103" lon="3.36585">
        <ele>116.94</ele>
        <time>2014-05-18T08:58:47Z</time>
      </trkpt>
      <trkpt lat="43.57099" lon="3.36617">
        <ele>122.22</ele>
        <time>2014-05-18T08:59:03Z</time>
      </trkpt>
      <trkpt lat="43.571" lon="3.36622">
        <ele>122.71</ele>
        <time>2014-05-18T08:59:05Z</time>
      </trkpt>
      <trkpt lat="43.57117" lon="3.36661">
        <ele>129.43</ele>
        <time>2014-05-18T08:59:26Z</time>
      </trkpt>
      <trkpt lat="43.57132" lon="3.36687">
        <ele>133.76</ele>
        <time>2014-05-18T08:59:41Z</time>
      </trkpt>
      <trkpt lat="43.57141" lon="3.367">
        <ele>136.16</ele>
        <time>2014-05-18T08:59:50Z</time>
      </trkpt>
      <trkpt lat="43.57146" lon="3.36706">
        <ele>137.61</ele>
        <time>2014-05-18T08:59:55Z</time>
      </trkpt>
      <trkpt lat="43.5717" lon="3.3673">
        <ele>141.45</ele>
        <time>2014-05-18T09:00:13Z</time>
      </trkpt>
      <trkpt lat="43.57195" lon="3.36757">
        <ele>143.85</ele>
        <time>2014-05-18T09:00:31Z</time>
      </trkpt>
      <trkpt lat="43.57218" lon="3.36777">
        <ele>144.82</ele>
        <time>2014-05-18T09:00:47Z</time>
      </trkpt>
      <trkpt lat="43.5725" lon="3.3681">
        <ele>147.7</ele>
        <time>2014-05-18T09:01:07Z</time>
      </trkpt>
      <trkpt lat="43.57277" lon="3.36853">
        <ele>149.62</ele>
        <time>2014-05-18T09:01:27Z</time>
      </trkpt>
      <trkpt lat="43.57294" lon="3.36887">
        <ele>152.03</ele>
        <time>2014-05-18T09:01:42Z</time>
      </trkpt>
      <trkpt lat="43.57313" lon="3.36931">
        <ele>154.91</ele>
        <time>2014-05-18T09:02:02Z</time>
      </trkpt>
      <trkpt lat="43.5734" lon="3.36958">
        <ele>155.39</ele>
        <time>2014-05-18T09:02:20Z</time>
      </trkpt>
      <trkpt lat="43.57359" lon="3.37">
        <ele>154.91</ele>
        <time>2014-05-18T09:02:39Z</time>
      </trkpt>
      <trkpt lat="43.57374" lon="3.37028">
        <ele>155.87</ele>
        <time>2014-05-18T09:02:54Z</time>
      </trkpt>
      <trkpt lat="43.57381" lon="3.37071">
        <ele>158.75</ele>
        <time>2014-05-18T09:03:15Z</time>
      </trkpt>
      <trkpt lat="43.5738" lon="3.37109">
        <ele>161.16</ele>
        <time>2014-05-18T09:03:33Z</time>
      </trkpt>
      <trkpt lat="43.57385" lon="3.37137">
        <ele>163.56</ele>
        <time>2014-05-18T09:03:48Z</time>
      </trkpt>
      <trkpt lat="43.57396" lon="3.37167">
        <ele>168.85</ele>
        <time>2014-05-18T09:04:06Z</time>
      </trkpt>
      <trkpt lat="43.57407" lon="3.37184">
        <ele>171.73</ele>
        <time>2014-05-18T09:04:19Z</time>
      </trkpt>
      <trkpt lat="43.57415" lon="3.3721">
        <ele>177.98</ele>
        <time>2014-05-18T09:04:36Z</time>
      </trkpt>
      <trkpt lat="43.5742" lon="3.37246">
        <ele>183.75</ele>
        <time>2014-05-18T09:04:56Z</time>
      </trkpt>
      <trkpt lat="43.5742" lon="3.37248">
        <ele>183.75</ele>
        <time>2014-05-18T09:04:57Z</time>
      </trkpt>
      <trkpt lat="43.57422" lon="3.37261">
        <ele>184.71</ele>
        <time>2014-05-18T09:05:04Z</time>
      </trkpt>
      <trkpt lat="43.57423" lon="3.37271">
        <ele>185.67</ele>
        <time>2014-05-18T09:05:09Z</time>
      </trkpt>
      <trkpt lat="43.57426" lon="3.373">
        <ele>190</ele>
        <time>2014-05-18T09:05:26Z</time>
      </trkpt>
      <trkpt lat="43.57427" lon="3.37333">
        <ele>192.4</ele>
        <time>2014-05-18T09:05:44Z</time>
      </trkpt>
      <trkpt lat="43.57428" lon="3.37352">
        <ele>193.84</ele>
        <time>2014-05-18T09:05:54Z</time>
      </trkpt>
      <trkpt lat="43.57429" lon="3.37369">
        <ele>195.28</ele>
        <time>2014-05-18T09:06:03Z</time>
      </trkpt>
      <trkpt lat="43.57427" lon="3.37395">
        <ele>197.69</ele>
        <time>2014-05-18T09:06:17Z</time>
      </trkpt>
      <trkpt lat="43.57418" lon="3.37433">
        <ele>201.05</ele>
        <time>2014-05-18T09:06:39Z</time>
      </trkpt>
      <trkpt lat="43.57407" lon="3.37461">
        <ele>203.94</ele>
        <time>2014-05-18T09:06:56Z</time>
      </trkpt>
      <trkpt lat="43.57406" lon="3.37462">
        <ele>203.94</ele>
        <time>2014-05-18T09:06:57Z</time>
      </trkpt>
      <trkpt lat="43.57399" lon="3.37489">
        <ele>207.3</ele>
        <time>2014-05-18T09:07:14Z</time>
      </trkpt>
      <trkpt lat="43.57389" lon="3.37519">
        <ele>211.63</ele>
        <time>2014-05-18T09:07:33Z</time>
      </trkpt>
      <trkpt lat="43.57381" lon="3.3754">
        <ele>216.91</ele>
        <time>2014-05-18T09:07:48Z</time>
      </trkpt>
      <trkpt lat="43.57371" lon="3.37562">
        <ele>219.32</ele>
        <time>2014-05-18T09:08:04Z</time>
      </trkpt>
      <trkpt lat="43.57369" lon="3.37585">
        <ele>220.76</ele>
        <time>2014-05-18T09:08:19Z</time>
      </trkpt>
      <trkpt lat="43.57377" lon="3.37605">
        <ele>224.12</ele>
        <time>2014-05-18T09:08:34Z</time>
      </trkpt>
      <trkpt lat="43.57392" lon="3.37616">
        <ele>225.57</ele>
        <time>2014-05-18T09:08:49Z</time>
      </trkpt>
      <trkpt lat="43.57398" lon="3.37616">
        <ele>226.53</ele>
        <time>2014-05-18T09:08:54Z</time>
      </trkpt>
      <trkpt lat="43.57404" lon="3.37618">
        <ele>227.49</ele>
        <time>2014-05-18T09:09:00Z</time>
      </trkpt>
      <trkpt lat="43.57425" lon="3.37634">
        <ele>232.78</ele>
        <time>2014-05-18T09:09:21Z</time>
      </trkpt>
      <trkpt lat="43.57425" lon="3.37661">
        <ele>235.66</ele>
        <time>2014-05-18T09:09:37Z</time>
      </trkpt>
      <trkpt lat="43.5742" lon="3.3769">
        <ele>238.54</ele>
        <time>2014-05-18T09:09:54Z</time>
      </trkpt>
      <trkpt lat="43.57424" lon="3.3772">
        <ele>240.95</ele>
        <time>2014-05-18T09:10:11Z</time>
      </trkpt>
      <trkpt lat="43.57425" lon="3.37726">
        <ele>240.95</ele>
        <time>2014-05-18T09:10:25Z</time>
      </trkpt>
      <trkpt lat="43.57428" lon="3.37737">
        <ele>242.87</ele>
        <time>2014-05-18T09:10:45Z</time>
      </trkpt>
      <trkpt lat="43.5743" lon="3.37765">
        <ele>246.23</ele>
        <time>2014-05-18T09:11:01Z</time>
      </trkpt>
      <trkpt lat="43.5743" lon="3.3777">
        <ele>246.72</ele>
        <time>2014-05-18T09:11:04Z</time>
      </trkpt>
      <trkpt lat="43.5743" lon="3.37777">
        <ele>247.2</ele>
        <time>2014-05-18T09:11:08Z</time>
      </trkpt>
      <trkpt lat="43.57424" lon="3.37804">
        <ele>249.6</ele>
        <time>2014-05-18T09:11:24Z</time>
      </trkpt>
      <trkpt lat="43.57401" lon="3.37822">
        <ele>251.04</ele>
        <time>2014-05-18T09:11:42Z</time>
      </trkpt>
      <trkpt lat="43.5739" lon="3.37837">
        <ele>251.52</ele>
        <time>2014-05-18T09:11:53Z</time>
      </trkpt>
      <trkpt lat="43.57395" lon="3.37845">
        <ele>252.96</ele>
        <time>2014-05-18T09:12:00Z</time>
      </trkpt>
      <trkpt lat="43.57417" lon="3.37859">
        <ele>256.33</ele>
        <time>2014-05-18T09:12:18Z</time>
      </trkpt>
      <trkpt lat="43.57418" lon="3.37859">
        <ele>256.81</ele>
        <time>2014-05-18T09:12:19Z</time>
      </trkpt>
      <trkpt lat="43.57425" lon="3.3786">
        <ele>257.77</ele>
        <time>2014-05-18T09:12:24Z</time>
      </trkpt>
      <trkpt lat="43.57433" lon="3.37858">
        <ele>259.69</ele>
        <time>2014-05-18T09:12:31Z</time>
      </trkpt>
      <trkpt lat="43.57437" lon="3.37857">
        <ele>260.65</ele>
        <time>2014-05-18T09:12:34Z</time>
      </trkpt>
      <trkpt lat="43.57443" lon="3.37856">
        <ele>261.62</ele>
        <time>2014-05-18T09:12:39Z</time>
      </trkpt>
      <trkpt lat="43.57466" lon="3.37858">
        <ele>263.54</ele>
        <time>2014-05-18T09:12:57Z</time>
      </trkpt>
      <trkpt lat="43.57469" lon="3.37861">
        <ele>262.58</ele>
        <time>2014-05-18T09:13:09Z</time>
      </trkpt>
      <trkpt lat="43.57468" lon="3.37861">
        <ele>262.58</ele>
        <time>2014-05-18T09:13:34Z</time>
      </trkpt>
      <trkpt lat="43.57469" lon="3.37861">
        <ele>263.54</ele>
        <time>2014-05-18T09:14:14Z</time>
      </trkpt>
      <trkpt lat="43.57468" lon="3.37861">
        <ele>262.58</ele>
        <time>2014-05-18T09:14:47Z</time>
      </trkpt>
      <trkpt lat="43.57468" lon="3.37862">
        <ele>262.58</ele>
        <time>2014-05-18T09:15:29Z</time>
      </trkpt>
      <trkpt lat="43.57468" lon="3.37862">
        <ele>262.58</ele>
        <time>2014-05-18T09:16:05Z</time>
      </trkpt>
      <trkpt lat="43.57467" lon="3.37863">
        <ele>262.58</ele>
        <time>2014-05-18T09:16:48Z</time>
      </trkpt>
      <trkpt lat="43.57468" lon="3.37862">
        <ele>262.58</ele>
        <time>2014-05-18T09:16:49Z</time>
      </trkpt>
      <trkpt lat="43.57464" lon="3.37857">
        <ele>263.06</ele>
        <time>2014-05-18T09:16:59Z</time>
      </trkpt>
      <trkpt lat="43.57445" lon="3.37857">
        <ele>262.1</ele>
        <time>2014-05-18T09:17:10Z</time>
      </trkpt>
      <trkpt lat="43.57426" lon="3.37861">
        <ele>259.21</ele>
        <time>2014-05-18T09:17:19Z</time>
      </trkpt>
      <trkpt lat="43.57408" lon="3.37855">
        <ele>256.33</ele>
        <time>2014-05-18T09:17:23Z</time>
      </trkpt>
      <trkpt lat="43.57382" lon="3.37837">
        <ele>250.56</ele>
        <time>2014-05-18T09:17:32Z</time>
      </trkpt>
      <trkpt lat="43.57338" lon="3.37842">
        <ele>246.72</ele>
        <time>2014-05-18T09:17:39Z</time>
      </trkpt>
      <trkpt lat="43.57307" lon="3.37845">
        <ele>243.83</ele>
        <time>2014-05-18T09:17:43Z</time>
      </trkpt>
      <trkpt lat="43.57288" lon="3.37823">
        <ele>241.91</ele>
        <time>2014-05-18T09:17:48Z</time>
      </trkpt>
      <trkpt lat="43.57269" lon="3.37762">
        <ele>242.87</ele>
        <time>2014-05-18T09:18:00Z</time>
      </trkpt>
      <trkpt lat="43.57259" lon="3.37729">
        <ele>239.02</ele>
        <time>2014-05-18T09:18:11Z</time>
      </trkpt>
      <trkpt lat="43.57258" lon="3.3773">
        <ele>240.47</ele>
        <time>2014-05-18T09:18:43Z</time>
      </trkpt>
      <trkpt lat="43.57258" lon="3.3773">
        <ele>240.47</ele>
        <time>2014-05-18T09:18:45Z</time>
      </trkpt>
      <trkpt lat="43.57228" lon="3.37702">
        <ele>237.58</ele>
        <time>2014-05-18T09:18:56Z</time>
      </trkpt>
      <trkpt lat="43.57217" lon="3.37692">
        <ele>236.14</ele>
        <time>2014-05-18T09:18:58Z</time>
      </trkpt>
      <trkpt lat="43.57211" lon="3.37654">
        <ele>233.26</ele>
        <time>2014-05-18T09:19:05Z</time>
      </trkpt>
      <trkpt lat="43.57219" lon="3.3765">
        <ele>232.3</ele>
        <time>2014-05-18T09:19:07Z</time>
      </trkpt>
      <trkpt lat="43.57243" lon="3.3765">
        <ele>230.85</ele>
        <time>2014-05-18T09:19:12Z</time>
      </trkpt>
      <trkpt lat="43.57294" lon="3.37664">
        <ele>223.16</ele>
        <time>2014-05-18T09:19:19Z</time>
      </trkpt>
      <trkpt lat="43.57348" lon="3.37635">
        <ele>215.47</ele>
        <time>2014-05-18T09:19:26Z</time>
      </trkpt>
      <trkpt lat="43.57355" lon="3.37616">
        <ele>216.91</ele>
        <time>2014-05-18T09:19:28Z</time>
      </trkpt>
      <trkpt lat="43.57364" lon="3.37579">
        <ele>218.36</ele>
        <time>2014-05-18T09:19:32Z</time>
      </trkpt>
      <trkpt lat="43.574" lon="3.37481">
        <ele>205.86</ele>
        <time>2014-05-18T09:19:42Z</time>
      </trkpt>
      <trkpt lat="43.57407" lon="3.37455">
        <ele>201.53</ele>
        <time>2014-05-18T09:19:44Z</time>
      </trkpt>
      <trkpt lat="43.57424" lon="3.3741">
        <ele>195.77</ele>
        <time>2014-05-18T09:19:48Z</time>
      </trkpt>
      <trkpt lat="43.57429" lon="3.37386">
        <ele>192.4</ele>
        <time>2014-05-18T09:19:56Z</time>
      </trkpt>
      <trkpt lat="43.5743" lon="3.37388">
        <ele>192.4</ele>
        <time>2014-05-18T09:20:21Z</time>
      </trkpt>
      <trkpt lat="43.57431" lon="3.37388">
        <ele>192.88</ele>
        <time>2014-05-18T09:20:49Z</time>
      </trkpt>
      <trkpt lat="43.57431" lon="3.37387">
        <ele>192.4</ele>
        <time>2014-05-18T09:21:19Z</time>
      </trkpt>
      <trkpt lat="43.57432" lon="3.37389">
        <ele>190.96</ele>
        <time>2014-05-18T09:21:56Z</time>
      </trkpt>
      <trkpt lat="43.57432" lon="3.37389">
        <ele>190.48</ele>
        <time>2014-05-18T09:22:31Z</time>
      </trkpt>
      <trkpt lat="43.57431" lon="3.37389">
        <ele>191.92</ele>
        <time>2014-05-18T09:23:12Z</time>
      </trkpt>
      <trkpt lat="43.5743" lon="3.37388">
        <ele>191.44</ele>
        <time>2014-05-18T09:23:46Z</time>
      </trkpt>
      <trkpt lat="43.57431" lon="3.37388">
        <ele>191.92</ele>
        <time>2014-05-18T09:24:11Z</time>
      </trkpt>
      <trkpt lat="43.57431" lon="3.37387">
        <ele>192.4</ele>
        <time>2014-05-18T09:24:40Z</time>
      </trkpt>
      <trkpt lat="43.57431" lon="3.37387">
        <ele>192.88</ele>
        <time>2014-05-18T09:25:06Z</time>
      </trkpt>
      <trkpt lat="43.57432" lon="3.37387">
        <ele>193.36</ele>
        <time>2014-05-18T09:25:36Z</time>
      </trkpt>
      <trkpt lat="43.57431" lon="3.37387">
        <ele>193.36</ele>
        <time>2014-05-18T09:26:03Z</time>
      </trkpt>
      <trkpt lat="43.57431" lon="3.37387">
        <ele>193.84</ele>
        <time>2014-05-18T09:26:32Z</time>
      </trkpt>
      <trkpt lat="43.5743" lon="3.37388">
        <ele>194.32</ele>
        <time>2014-05-18T09:26:44Z</time>
      </trkpt>
      <trkpt lat="43.57429" lon="3.37388">
        <ele>195.28</ele>
        <time>2014-05-18T09:27:00Z</time>
      </trkpt>
      <trkpt lat="43.57428" lon="3.37389">
        <ele>195.77</ele>
        <time>2014-05-18T09:27:19Z</time>
      </trkpt>
      <trkpt lat="43.57428" lon="3.3739">
        <ele>195.77</ele>
        <time>2014-05-18T09:27:23Z</time>
      </trkpt>
      <trkpt lat="43.57427" lon="3.37401">
        <ele>196.73</ele>
        <time>2014-05-18T09:27:29Z</time>
      </trkpt>
      <trkpt lat="43.57416" lon="3.37433">
        <ele>199.61</ele>
        <time>2014-05-18T09:27:47Z</time>
      </trkpt>
      <trkpt lat="43.5741" lon="3.37448">
        <ele>201.53</ele>
        <time>2014-05-18T09:27:56Z</time>
      </trkpt>
      <trkpt lat="43.574" lon="3.37479">
        <ele>205.38</ele>
        <time>2014-05-18T09:28:15Z</time>
      </trkpt>
      <trkpt lat="43.57396" lon="3.37495">
        <ele>208.26</ele>
        <time>2014-05-18T09:28:26Z</time>
      </trkpt>
      <trkpt lat="43.57392" lon="3.37512">
        <ele>211.15</ele>
        <time>2014-05-18T09:28:37Z</time>
      </trkpt>
      <trkpt lat="43.57389" lon="3.3752">
        <ele>212.59</ele>
        <time>2014-05-18T09:28:43Z</time>
      </trkpt>
      <trkpt lat="43.57381" lon="3.37541">
        <ele>216.43</ele>
        <time>2014-05-18T09:29:00Z</time>
      </trkpt>
      <trkpt lat="43.57373" lon="3.3756">
        <ele>218.36</ele>
        <time>2014-05-18T09:29:16Z</time>
      </trkpt>
      <trkpt lat="43.57371" lon="3.37565">
        <ele>219.32</ele>
        <time>2014-05-18T09:29:20Z</time>
      </trkpt>
      <trkpt lat="43.57368" lon="3.37573">
        <ele>220.76</ele>
        <time>2014-05-18T09:29:26Z</time>
      </trkpt>
      <trkpt lat="43.57368" lon="3.37581">
        <ele>221.24</ele>
        <time>2014-05-18T09:29:31Z</time>
      </trkpt>
      <trkpt lat="43.57367" lon="3.37584">
        <ele>221.72</ele>
        <time>2014-05-18T09:29:33Z</time>
      </trkpt>
      <trkpt lat="43.57369" lon="3.37589">
        <ele>222.2</ele>
        <time>2014-05-18T09:29:37Z</time>
      </trkpt>
      <trkpt lat="43.5737" lon="3.37593">
        <ele>222.68</ele>
        <time>2014-05-18T09:29:40Z</time>
      </trkpt>
      <trkpt lat="43.57386" lon="3.37614">
        <ele>225.57</ele>
        <time>2014-05-18T09:30:00Z</time>
      </trkpt>
      <trkpt lat="43.57408" lon="3.3762">
        <ele>228.93</ele>
        <time>2014-05-18T09:30:20Z</time>
      </trkpt>
      <trkpt lat="43.57424" lon="3.37633">
        <ele>232.78</ele>
        <time>2014-05-18T09:30:35Z</time>
      </trkpt>
      <trkpt lat="43.57426" lon="3.37656">
        <ele>234.7</ele>
        <time>2014-05-18T09:30:51Z</time>
      </trkpt>
      <trkpt lat="43.5742" lon="3.37688">
        <ele>237.58</ele>
        <time>2014-05-18T09:31:09Z</time>
      </trkpt>
      <trkpt lat="43.57423" lon="3.37714">
        <ele>239.99</ele>
        <time>2014-05-18T09:31:25Z</time>
      </trkpt>
      <trkpt lat="43.57428" lon="3.37741">
        <ele>243.83</ele>
        <time>2014-05-18T09:31:41Z</time>
      </trkpt>
      <trkpt lat="43.5743" lon="3.37756">
        <ele>245.75</ele>
        <time>2014-05-18T09:31:50Z</time>
      </trkpt>
      <trkpt lat="43.57431" lon="3.37783">
        <ele>248.64</ele>
        <time>2014-05-18T09:32:05Z</time>
      </trkpt>
      <trkpt lat="43.57417" lon="3.37809">
        <ele>251.52</ele>
        <time>2014-05-18T09:32:22Z</time>
      </trkpt>
      <trkpt lat="43.57392" lon="3.37829">
        <ele>252</ele>
        <time>2014-05-18T09:32:40Z</time>
      </trkpt>
      <trkpt lat="43.57389" lon="3.37841">
        <ele>252.96</ele>
        <time>2014-05-18T09:32:47Z</time>
      </trkpt>
      <trkpt lat="43.57393" lon="3.37845">
        <ele>253.93</ele>
        <time>2014-05-18T09:32:51Z</time>
      </trkpt>
      <trkpt lat="43.57416" lon="3.37859">
        <ele>258.25</ele>
        <time>2014-05-18T09:33:10Z</time>
      </trkpt>
      <trkpt lat="43.57431" lon="3.3786">
        <ele>261.14</ele>
        <time>2014-05-18T09:33:20Z</time>
      </trkpt>
      <trkpt lat="43.5746" lon="3.37856">
        <ele>264.5</ele>
        <time>2014-05-18T09:33:40Z</time>
      </trkpt>
      <trkpt lat="43.57462" lon="3.37857">
        <ele>264.5</ele>
        <time>2014-05-18T09:33:42Z</time>
      </trkpt>
      <trkpt lat="43.57467" lon="3.3786">
        <ele>263.54</ele>
        <time>2014-05-18T09:33:57Z</time>
      </trkpt>
      <trkpt lat="43.57467" lon="3.37859">
        <ele>263.54</ele>
        <time>2014-05-18T09:34:25Z</time>
      </trkpt>
      <trkpt lat="43.57468" lon="3.37858">
        <ele>264.5</ele>
        <time>2014-05-18T09:35:09Z</time>
      </trkpt>
      <trkpt lat="43.57467" lon="3.37859">
        <ele>264.02</ele>
        <time>2014-05-18T09:35:42Z</time>
      </trkpt>
      <trkpt lat="43.57468" lon="3.37859">
        <ele>264.02</ele>
        <time>2014-05-18T09:36:21Z</time>
      </trkpt>
      <trkpt lat="43.57468" lon="3.37859">
        <ele>264.02</ele>
        <time>2014-05-18T09:37:00Z</time>
      </trkpt>
      <trkpt lat="43.57468" lon="3.37859">
        <ele>264.02</ele>
        <time>2014-05-18T09:37:39Z</time>
      </trkpt>
      <trkpt lat="43.57477" lon="3.37866">
        <ele>263.06</ele>
        <time>2014-05-18T09:37:45Z</time>
      </trkpt>
      <trkpt lat="43.57495" lon="3.37898">
        <ele>261.14</ele>
        <time>2014-05-18T09:37:51Z</time>
      </trkpt>
      <trkpt lat="43.57526" lon="3.37919">
        <ele>263.06</ele>
        <time>2014-05-18T09:38:01Z</time>
      </trkpt>
      <trkpt lat="43.57532" lon="3.37921">
        <ele>263.54</ele>
        <time>2014-05-18T09:38:04Z</time>
      </trkpt>
      <trkpt lat="43.57537" lon="3.37923">
        <ele>264.02</ele>
        <time>2014-05-18T09:38:08Z</time>
      </trkpt>
      <trkpt lat="43.5757" lon="3.37938">
        <ele>263.06</ele>
        <time>2014-05-18T09:38:23Z</time>
      </trkpt>
      <trkpt lat="43.57589" lon="3.3795">
        <ele>262.1</ele>
        <time>2014-05-18T09:38:31Z</time>
      </trkpt>
      <trkpt lat="43.57614" lon="3.37959">
        <ele>259.69</ele>
        <time>2014-05-18T09:38:36Z</time>
      </trkpt>
      <trkpt lat="43.57682" lon="3.37999">
        <ele>256.33</ele>
        <time>2014-05-18T09:38:49Z</time>
      </trkpt>
      <trkpt lat="43.5772" lon="3.38035">
        <ele>254.89</ele>
        <time>2014-05-18T09:38:57Z</time>
      </trkpt>
      <trkpt lat="43.57751" lon="3.38046">
        <ele>255.37</ele>
        <time>2014-05-18T09:39:04Z</time>
      </trkpt>
      <trkpt lat="43.5779" lon="3.38032">
        <ele>261.62</ele>
        <time>2014-05-18T09:39:19Z</time>
      </trkpt>
      <trkpt lat="43.57831" lon="3.38013">
        <ele>267.86</ele>
        <time>2014-05-18T09:39:41Z</time>
      </trkpt>
      <trkpt lat="43.57857" lon="3.38026">
        <ele>268.35</ele>
        <time>2014-05-18T09:39:56Z</time>
      </trkpt>
      <trkpt lat="43.57867" lon="3.38067">
        <ele>269.31</ele>
        <time>2014-05-18T09:40:13Z</time>
      </trkpt>
      <trkpt lat="43.57878" lon="3.38115">
        <ele>273.63</ele>
        <time>2014-05-18T09:40:34Z</time>
      </trkpt>
      <trkpt lat="43.57895" lon="3.38166">
        <ele>275.56</ele>
        <time>2014-05-18T09:40:53Z</time>
      </trkpt>
      <trkpt lat="43.57911" lon="3.38226">
        <ele>277</ele>
        <time>2014-05-18T09:41:12Z</time>
      </trkpt>
      <trkpt lat="43.57923" lon="3.38288">
        <ele>276.52</ele>
        <time>2014-05-18T09:41:28Z</time>
      </trkpt>
      <trkpt lat="43.57923" lon="3.38292">
        <ele>276.52</ele>
        <time>2014-05-18T09:41:29Z</time>
      </trkpt>
      <trkpt lat="43.57935" lon="3.38298">
        <ele>277.48</ele>
        <time>2014-05-18T09:41:36Z</time>
      </trkpt>
      <trkpt lat="43.57944" lon="3.38293">
        <ele>278.44</ele>
        <time>2014-05-18T09:41:42Z</time>
      </trkpt>
      <trkpt lat="43.57962" lon="3.38284">
        <ele>282.28</ele>
        <time>2014-05-18T09:41:57Z</time>
      </trkpt>
      <trkpt lat="43.57982" lon="3.38271">
        <ele>286.61</ele>
        <time>2014-05-18T09:42:16Z</time>
      </trkpt>
      <trkpt lat="43.57986" lon="3.3827">
        <ele>287.57</ele>
        <time>2014-05-18T09:42:20Z</time>
      </trkpt>
      <trkpt lat="43.57999" lon="3.38282">
        <ele>291.42</ele>
        <time>2014-05-18T09:42:37Z</time>
      </trkpt>
      <trkpt lat="43.58007" lon="3.38294">
        <ele>293.82</ele>
        <time>2014-05-18T09:42:49Z</time>
      </trkpt>
      <trkpt lat="43.58009" lon="3.38298">
        <ele>294.3</ele>
        <time>2014-05-18T09:42:52Z</time>
      </trkpt>
      <trkpt lat="43.58015" lon="3.38305">
        <ele>295.74</ele>
        <time>2014-05-18T09:42:59Z</time>
      </trkpt>
      <trkpt lat="43.58017" lon="3.38309">
        <ele>296.7</ele>
        <time>2014-05-18T09:43:03Z</time>
      </trkpt>
      <trkpt lat="43.58027" lon="3.38322">
        <ele>299.59</ele>
        <time>2014-05-18T09:43:16Z</time>
      </trkpt>
      <trkpt lat="43.58038" lon="3.3834">
        <ele>301.99</ele>
        <time>2014-05-18T09:43:31Z</time>
      </trkpt>
      <trkpt lat="43.5805" lon="3.38361">
        <ele>305.84</ele>
        <time>2014-05-18T09:43:49Z</time>
      </trkpt>
      <trkpt lat="43.58065" lon="3.38386">
        <ele>307.28</ele>
        <time>2014-05-18T09:44:07Z</time>
      </trkpt>
      <trkpt lat="43.58075" lon="3.38404">
        <ele>307.28</ele>
        <time>2014-05-18T09:44:19Z</time>
      </trkpt>
      <trkpt lat="43.58077" lon="3.38408">
        <ele>307.28</ele>
        <time>2014-05-18T09:44:22Z</time>
      </trkpt>
      <trkpt lat="43.5809" lon="3.38428">
        <ele>306.32</ele>
        <time>2014-05-18T09:44:38Z</time>
      </trkpt>
      <trkpt lat="43.58091" lon="3.38428">
        <ele>306.8</ele>
        <time>2014-05-18T09:45:03Z</time>
      </trkpt>
      <trkpt lat="43.5809" lon="3.38428">
        <ele>307.28</ele>
        <time>2014-05-18T09:45:27Z</time>
      </trkpt>
      <trkpt lat="43.5809" lon="3.38429">
        <ele>307.28</ele>
        <time>2014-05-18T09:46:01Z</time>
      </trkpt>
      <trkpt lat="43.58097" lon="3.38444">
        <ele>306.32</ele>
        <time>2014-05-18T09:46:22Z</time>
      </trkpt>
      <trkpt lat="43.58121" lon="3.38514">
        <ele>299.59</ele>
        <time>2014-05-18T09:46:31Z</time>
      </trkpt>
      <trkpt lat="43.58144" lon="3.3861">
        <ele>298.63</ele>
        <time>2014-05-18T09:46:41Z</time>
      </trkpt>
      <trkpt lat="43.58162" lon="3.38639">
        <ele>298.15</ele>
        <time>2014-05-18T09:46:46Z</time>
      </trkpt>
      <trkpt lat="43.58217" lon="3.38671">
        <ele>295.74</ele>
        <time>2014-05-18T09:46:56Z</time>
      </trkpt>
      <trkpt lat="43.58241" lon="3.38707">
        <ele>295.74</ele>
        <time>2014-05-18T09:47:05Z</time>
      </trkpt>
      <trkpt lat="43.58241" lon="3.38767">
        <ele>293.82</ele>
        <time>2014-05-18T09:47:13Z</time>
      </trkpt>
      <trkpt lat="43.58192" lon="3.38905">
        <ele>288.05</ele>
        <time>2014-05-18T09:47:31Z</time>
      </trkpt>
      <trkpt lat="43.58189" lon="3.38913">
        <ele>287.57</ele>
        <time>2014-05-18T09:47:32Z</time>
      </trkpt>
      <trkpt lat="43.58151" lon="3.38927">
        <ele>282.28</ele>
        <time>2014-05-18T09:47:39Z</time>
      </trkpt>
      <trkpt lat="43.58145" lon="3.38923">
        <ele>281.32</ele>
        <time>2014-05-18T09:47:40Z</time>
      </trkpt>
      <trkpt lat="43.58132" lon="3.38912">
        <ele>279.4</ele>
        <time>2014-05-18T09:47:42Z</time>
      </trkpt>
      <trkpt lat="43.58109" lon="3.38915">
        <ele>276.52</ele>
        <time>2014-05-18T09:47:46Z</time>
      </trkpt>
      <trkpt lat="43.58072" lon="3.38933">
        <ele>269.31</ele>
        <time>2014-05-18T09:47:51Z</time>
      </trkpt>
      <trkpt lat="43.58028" lon="3.38951">
        <ele>264.5</ele>
        <time>2014-05-18T09:47:56Z</time>
      </trkpt>
      <trkpt lat="43.57995" lon="3.38971">
        <ele>261.62</ele>
        <time>2014-05-18T09:48:00Z</time>
      </trkpt>
      <trkpt lat="43.57972" lon="3.38992">
        <ele>259.21</ele>
        <time>2014-05-18T09:48:04Z</time>
      </trkpt>
      <trkpt lat="43.57965" lon="3.39009">
        <ele>257.29</ele>
        <time>2014-05-18T09:48:06Z</time>
      </trkpt>
      <trkpt lat="43.57958" lon="3.39026">
        <ele>255.37</ele>
        <time>2014-05-18T09:48:08Z</time>
      </trkpt>
      <trkpt lat="43.57951" lon="3.39073">
        <ele>250.08</ele>
        <time>2014-05-18T09:48:15Z</time>
      </trkpt>
      <trkpt lat="43.57941" lon="3.39096">
        <ele>247.2</ele>
        <time>2014-05-18T09:48:19Z</time>
      </trkpt>
      <trkpt lat="43.57932" lon="3.39134">
        <ele>242.39</ele>
        <time>2014-05-18T09:48:25Z</time>
      </trkpt>
      <trkpt lat="43.57924" lon="3.39146">
        <ele>239.51</ele>
        <time>2014-05-18T09:48:28Z</time>
      </trkpt>
      <trkpt lat="43.57921" lon="3.39185">
        <ele>234.7</ele>
        <time>2014-05-18T09:48:36Z</time>
      </trkpt>
      <trkpt lat="43.57933" lon="3.39195">
        <ele>232.78</ele>
        <time>2014-05-18T09:48:39Z</time>
      </trkpt>
      <trkpt lat="43.57946" lon="3.39202">
        <ele>231.33</ele>
        <time>2014-05-18T09:48:42Z</time>
      </trkpt>
      <trkpt lat="43.57948" lon="3.39229">
        <ele>227.01</ele>
        <time>2014-05-18T09:48:48Z</time>
      </trkpt>
      <trkpt lat="43.57927" lon="3.39258">
        <ele>221.72</ele>
        <time>2014-05-18T09:48:56Z</time>
      </trkpt>
      <trkpt lat="43.57951" lon="3.39263">
        <ele>220.76</ele>
        <time>2014-05-18T09:49:03Z</time>
      </trkpt>
      <trkpt lat="43.57973" lon="3.39277">
        <ele>218.36</ele>
        <time>2014-05-18T09:49:12Z</time>
      </trkpt>
      <trkpt lat="43.57966" lon="3.3928">
        <ele>217.4</ele>
        <time>2014-05-18T09:49:16Z</time>
      </trkpt>
      <trkpt lat="43.57961" lon="3.39284">
        <ele>217.4</ele>
        <time>2014-05-18T09:49:28Z</time>
      </trkpt>
      <trkpt lat="43.57961" lon="3.39286">
        <ele>218.36</ele>
        <time>2014-05-18T09:49:59Z</time>
      </trkpt>
      <trkpt lat="43.57961" lon="3.39286">
        <ele>218.84</ele>
        <time>2014-05-18T09:50:23Z</time>
      </trkpt>
      <trkpt lat="43.57933" lon="3.39302">
        <ele>215.47</ele>
        <time>2014-05-18T09:50:33Z</time>
      </trkpt>
      <trkpt lat="43.57879" lon="3.39311">
        <ele>210.19</ele>
        <time>2014-05-18T09:50:43Z</time>
      </trkpt>
      <trkpt lat="43.57866" lon="3.39314">
        <ele>209.22</ele>
        <time>2014-05-18T09:50:45Z</time>
      </trkpt>
      <trkpt lat="43.57826" lon="3.39327">
        <ele>205.86</ele>
        <time>2014-05-18T09:50:52Z</time>
      </trkpt>
      <trkpt lat="43.57759" lon="3.39327">
        <ele>195.77</ele>
        <time>2014-05-18T09:51:02Z</time>
      </trkpt>
      <trkpt lat="43.57719" lon="3.39298">
        <ele>187.59</ele>
        <time>2014-05-18T09:51:08Z</time>
      </trkpt>
      <trkpt lat="43.57695" lon="3.39248">
        <ele>179.9</ele>
        <time>2014-05-18T09:51:15Z</time>
      </trkpt>
      <trkpt lat="43.57686" lon="3.39253">
        <ele>178.46</ele>
        <time>2014-05-18T09:51:18Z</time>
      </trkpt>
      <trkpt lat="43.57678" lon="3.3927">
        <ele>176.06</ele>
        <time>2014-05-18T09:51:21Z</time>
      </trkpt>
      <trkpt lat="43.57677" lon="3.39318">
        <ele>172.69</ele>
        <time>2014-05-18T09:51:27Z</time>
      </trkpt>
      <trkpt lat="43.57682" lon="3.39397">
        <ele>165</ele>
        <time>2014-05-18T09:51:36Z</time>
      </trkpt>
      <trkpt lat="43.57682" lon="3.3941">
        <ele>163.56</ele>
        <time>2014-05-18T09:51:38Z</time>
      </trkpt>
      <trkpt lat="43.57685" lon="3.39463">
        <ele>158.27</ele>
        <time>2014-05-18T09:51:50Z</time>
      </trkpt>
      <trkpt lat="43.57685" lon="3.39463">
        <ele>160.2</ele>
        <time>2014-05-18T09:52:12Z</time>
      </trkpt>
      <trkpt lat="43.57673" lon="3.39469">
        <ele>159.24</ele>
        <time>2014-05-18T09:52:18Z</time>
      </trkpt>
      <trkpt lat="43.57643" lon="3.39464">
        <ele>155.87</ele>
        <time>2014-05-18T09:52:24Z</time>
      </trkpt>
      <trkpt lat="43.57574" lon="3.39489">
        <ele>151.54</ele>
        <time>2014-05-18T09:52:34Z</time>
      </trkpt>
      <trkpt lat="43.57526" lon="3.39481">
        <ele>148.66</ele>
        <time>2014-05-18T09:52:40Z</time>
      </trkpt>
      <trkpt lat="43.57499" lon="3.39474">
        <ele>144.34</ele>
        <time>2014-05-18T09:52:48Z</time>
      </trkpt>
      <trkpt lat="43.57494" lon="3.39464">
        <ele>143.85</ele>
        <time>2014-05-18T09:52:53Z</time>
      </trkpt>
      <trkpt lat="43.57491" lon="3.39454">
        <ele>143.85</ele>
        <time>2014-05-18T09:52:57Z</time>
      </trkpt>
      <trkpt lat="43.57492" lon="3.39452">
        <ele>144.34</ele>
        <time>2014-05-18T09:53:05Z</time>
      </trkpt>
      <trkpt lat="43.57496" lon="3.39467">
        <ele>143.85</ele>
        <time>2014-05-18T09:53:08Z</time>
      </trkpt>
      <trkpt lat="43.57499" lon="3.39479">
        <ele>143.37</ele>
        <time>2014-05-18T09:53:10Z</time>
      </trkpt>
      <trkpt lat="43.57522" lon="3.39544">
        <ele>141.93</ele>
        <time>2014-05-18T09:53:19Z</time>
      </trkpt>
      <trkpt lat="43.57513" lon="3.3959">
        <ele>140.97</ele>
        <time>2014-05-18T09:53:25Z</time>
      </trkpt>
      <trkpt lat="43.57485" lon="3.39622">
        <ele>140.49</ele>
        <time>2014-05-18T09:53:31Z</time>
      </trkpt>
      <trkpt lat="43.57475" lon="3.39635">
        <ele>140.01</ele>
        <time>2014-05-18T09:53:33Z</time>
      </trkpt>
      <trkpt lat="43.57457" lon="3.39677">
        <ele>140.49</ele>
        <time>2014-05-18T09:53:38Z</time>
      </trkpt>
      <trkpt lat="43.57448" lon="3.39768">
        <ele>138.09</ele>
        <time>2014-05-18T09:53:48Z</time>
      </trkpt>
      <trkpt lat="43.57429" lon="3.39799">
        <ele>134.24</ele>
        <time>2014-05-18T09:53:55Z</time>
      </trkpt>
      <trkpt lat="43.57368" lon="3.39816">
        <ele>129.92</ele>
        <time>2014-05-18T09:54:04Z</time>
      </trkpt>
      <trkpt lat="43.57354" lon="3.39819">
        <ele>127.99</ele>
        <time>2014-05-18T09:54:07Z</time>
      </trkpt>
      <trkpt lat="43.57332" lon="3.39824">
        <ele>125.59</ele>
        <time>2014-05-18T09:54:13Z</time>
      </trkpt>
      <trkpt lat="43.57318" lon="3.39827">
        <ele>124.63</ele>
        <time>2014-05-18T09:54:16Z</time>
      </trkpt>
      <trkpt lat="43.57296" lon="3.39833">
        <ele>123.19</ele>
        <time>2014-05-18T09:54:20Z</time>
      </trkpt>
      <trkpt lat="43.57264" lon="3.39825">
        <ele>121.26</ele>
        <time>2014-05-18T09:54:26Z</time>
      </trkpt>
      <trkpt lat="43.57254" lon="3.39825">
        <ele>121.26</ele>
        <time>2014-05-18T09:54:28Z</time>
      </trkpt>
      <trkpt lat="43.57198" lon="3.39825">
        <ele>119.34</ele>
        <time>2014-05-18T09:54:37Z</time>
      </trkpt>
      <trkpt lat="43.57129" lon="3.39791">
        <ele>116.94</ele>
        <time>2014-05-18T09:54:47Z</time>
      </trkpt>
      <trkpt lat="43.57084" lon="3.39731">
        <ele>114.53</ele>
        <time>2014-05-18T09:54:55Z</time>
      </trkpt>
      <trkpt lat="43.57052" lon="3.39733">
        <ele>113.57</ele>
        <time>2014-05-18T09:55:00Z</time>
      </trkpt>
      <trkpt lat="43.57033" lon="3.39745">
        <ele>113.09</ele>
        <time>2014-05-18T09:55:05Z</time>
      </trkpt>
      <trkpt lat="43.57033" lon="3.39745">
        <ele>113.09</ele>
        <time>2014-05-18T09:55:08Z</time>
      </trkpt>
      <trkpt lat="43.57029" lon="3.39753">
        <ele>113.09</ele>
        <time>2014-05-18T09:55:13Z</time>
      </trkpt>
      <trkpt lat="43.56993" lon="3.39779">
        <ele>111.65</ele>
        <time>2014-05-18T09:55:26Z</time>
      </trkpt>
      <trkpt lat="43.56988" lon="3.39782">
        <ele>111.65</ele>
        <time>2014-05-18T09:55:28Z</time>
      </trkpt>
      <trkpt lat="43.56981" lon="3.39777">
        <ele>111.65</ele>
        <time>2014-05-18T09:55:35Z</time>
      </trkpt>
      <trkpt lat="43.5698" lon="3.39776">
        <ele>113.57</ele>
        <time>2014-05-18T09:55:55Z</time>
      </trkpt>
      <trkpt lat="43.56978" lon="3.39776">
        <ele>114.53</ele>
        <time>2014-05-18T09:56:36Z</time>
      </trkpt>
      <trkpt lat="43.56979" lon="3.39775">
        <ele>115.01</ele>
        <time>2014-05-18T09:57:25Z</time>
      </trkpt>
      <trkpt lat="43.56979" lon="3.39775">
        <ele>113.57</ele>
        <time>2014-05-18T09:58:03Z</time>
      </trkpt>
      <trkpt lat="43.5698" lon="3.39775">
        <ele>113.09</ele>
        <time>2014-05-18T09:58:23Z</time>
      </trkpt>
      <trkpt lat="43.5698" lon="3.39774">
        <ele>112.13</ele>
        <time>2014-05-18T09:58:32Z</time>
      </trkpt>
      <trkpt lat="43.5698" lon="3.39775">
        <ele>110.69</ele>
        <time>2014-05-18T09:58:47Z</time>
      </trkpt>
      <trkpt lat="43.5698" lon="3.39774">
        <ele>110.69</ele>
        <time>2014-05-18T09:59:32Z</time>
      </trkpt>
      <trkpt lat="43.5698" lon="3.39775">
        <ele>109.73</ele>
        <time>2014-05-18T10:00:08Z</time>
      </trkpt>
      <trkpt lat="43.56981" lon="3.39775">
        <ele>109.25</ele>
        <time>2014-05-18T10:00:36Z</time>
      </trkpt>
      <trkpt lat="43.56981" lon="3.39775">
        <ele>109.25</ele>
        <time>2014-05-18T10:01:04Z</time>
      </trkpt>
      <trkpt lat="43.56979" lon="3.39776">
        <ele>109.25</ele>
        <time>2014-05-18T10:01:46Z</time>
      </trkpt>
      <trkpt lat="43.56978" lon="3.39776">
        <ele>110.21</ele>
        <time>2014-05-18T10:02:18Z</time>
      </trkpt>
      <trkpt lat="43.56977" lon="3.39777">
        <ele>110.69</ele>
        <time>2014-05-18T10:02:55Z</time>
      </trkpt>
      <trkpt lat="43.56978" lon="3.39777">
        <ele>110.21</ele>
        <time>2014-05-18T10:03:20Z</time>
      </trkpt>
      <trkpt lat="43.56978" lon="3.39777">
        <ele>109.25</ele>
        <time>2014-05-18T10:03:50Z</time>
      </trkpt>
      <trkpt lat="43.56979" lon="3.39776">
        <ele>108.77</ele>
        <time>2014-05-18T10:04:30Z</time>
      </trkpt>
      <trkpt lat="43.56979" lon="3.39776">
        <ele>109.25</ele>
        <time>2014-05-18T10:05:04Z</time>
      </trkpt>
      <trkpt lat="43.56979" lon="3.39776">
        <ele>109.25</ele>
        <time>2014-05-18T10:05:38Z</time>
      </trkpt>
      <trkpt lat="43.56979" lon="3.39777">
        <ele>109.73</ele>
        <time>2014-05-18T10:06:15Z</time>
      </trkpt>
      <trkpt lat="43.56979" lon="3.39776">
        <ele>109.25</ele>
        <time>2014-05-18T10:06:46Z</time>
      </trkpt>
      <trkpt lat="43.56979" lon="3.39776">
        <ele>110.21</ele>
        <time>2014-05-18T10:07:24Z</time>
      </trkpt>
      <trkpt lat="43.56979" lon="3.39775">
        <ele>110.21</ele>
        <time>2014-05-18T10:08:05Z</time>
      </trkpt>
      <trkpt lat="43.5698" lon="3.39774">
        <ele>110.69</ele>
        <time>2014-05-18T10:08:45Z</time>
      </trkpt>
      <trkpt lat="43.56979" lon="3.39774">
        <ele>110.21</ele>
        <time>2014-05-18T10:09:25Z</time>
      </trkpt>
      <trkpt lat="43.56979" lon="3.39774">
        <ele>109.25</ele>
        <time>2014-05-18T10:09:57Z</time>
      </trkpt>
      <trkpt lat="43.56979" lon="3.39774">
        <ele>109.25</ele>
        <time>2014-05-18T10:10:31Z</time>
      </trkpt>
      <trkpt lat="43.56979" lon="3.39774">
        <ele>108.77</ele>
        <time>2014-05-18T10:11:07Z</time>
      </trkpt>
      <trkpt lat="43.56979" lon="3.39775">
        <ele>108.77</ele>
        <time>2014-05-18T10:11:40Z</time>
      </trkpt>
      <trkpt lat="43.56979" lon="3.39775">
        <ele>108.29</ele>
        <time>2014-05-18T10:12:13Z</time>
      </trkpt>
      <trkpt lat="43.56979" lon="3.39774">
        <ele>107.81</ele>
        <time>2014-05-18T10:12:44Z</time>
      </trkpt>
      <trkpt lat="43.56978" lon="3.39774">
        <ele>106.84</ele>
        <time>2014-05-18T10:13:18Z</time>
      </trkpt>
      <trkpt lat="43.56979" lon="3.39773">
        <ele>106.84</ele>
        <time>2014-05-18T10:13:55Z</time>
      </trkpt>
      <trkpt lat="43.5698" lon="3.39772">
        <ele>106.84</ele>
        <time>2014-05-18T10:14:36Z</time>
      </trkpt>
      <trkpt lat="43.5698" lon="3.39772">
        <ele>107.32</ele>
        <time>2014-05-18T10:15:24Z</time>
      </trkpt>
      <trkpt lat="43.5698" lon="3.39771">
        <ele>107.81</ele>
        <time>2014-05-18T10:16:06Z</time>
      </trkpt>
      <trkpt lat="43.5698" lon="3.39772">
        <ele>108.77</ele>
        <time>2014-05-18T10:16:42Z</time>
      </trkpt>
      <trkpt lat="43.56981" lon="3.39772">
        <ele>108.77</ele>
        <time>2014-05-18T10:17:20Z</time>
      </trkpt>
      <trkpt lat="43.56981" lon="3.39773">
        <ele>109.25</ele>
        <time>2014-05-18T10:18:00Z</time>
      </trkpt>
      <trkpt lat="43.56981" lon="3.39772">
        <ele>109.25</ele>
        <time>2014-05-18T10:18:42Z</time>
      </trkpt>
      <trkpt lat="43.56979" lon="3.39773">
        <ele>109.25</ele>
        <time>2014-05-18T10:19:21Z</time>
      </trkpt>
      <trkpt lat="43.56978" lon="3.39774">
        <ele>110.21</ele>
        <time>2014-05-18T10:20:01Z</time>
      </trkpt>
      <trkpt lat="43.56978" lon="3.39774">
        <ele>109.73</ele>
        <time>2014-05-18T10:20:42Z</time>
      </trkpt>
      <trkpt lat="43.56976" lon="3.39775">
        <ele>110.21</ele>
        <time>2014-05-18T10:21:22Z</time>
      </trkpt>
      <trkpt lat="43.56976" lon="3.39776">
        <ele>110.69</ele>
        <time>2014-05-18T10:22:02Z</time>
      </trkpt>
      <trkpt lat="43.56976" lon="3.39776">
        <ele>111.17</ele>
        <time>2014-05-18T10:22:43Z</time>
      </trkpt>
      <trkpt lat="43.56976" lon="3.39778">
        <ele>111.65</ele>
        <time>2014-05-18T10:23:26Z</time>
      </trkpt>
      <trkpt lat="43.56976" lon="3.39777">
        <ele>112.61</ele>
        <time>2014-05-18T10:24:19Z</time>
      </trkpt>
      <trkpt lat="43.56976" lon="3.39778">
        <ele>112.61</ele>
        <time>2014-05-18T10:25:06Z</time>
      </trkpt>
      <trkpt lat="43.56976" lon="3.39779">
        <ele>113.09</ele>
        <time>2014-05-18T10:25:54Z</time>
      </trkpt>
      <trkpt lat="43.56977" lon="3.39779">
        <ele>115.01</ele>
        <time>2014-05-18T10:26:46Z</time>
      </trkpt>
      <trkpt lat="43.56978" lon="3.39779">
        <ele>115.01</ele>
        <time>2014-05-18T10:27:29Z</time>
      </trkpt>
      <trkpt lat="43.56978" lon="3.39779">
        <ele>115.01</ele>
        <time>2014-05-18T10:28:16Z</time>
      </trkpt>
      <trkpt lat="43.56978" lon="3.39777">
        <ele>115.01</ele>
        <time>2014-05-18T10:28:54Z</time>
      </trkpt>
      <trkpt lat="43.56979" lon="3.39776">
        <ele>114.05</ele>
        <time>2014-05-18T10:29:33Z</time>
      </trkpt>
      <trkpt lat="43.56979" lon="3.39774">
        <ele>111.17</ele>
        <time>2014-05-18T10:30:28Z</time>
      </trkpt>
      <trkpt lat="43.56979" lon="3.39774">
        <ele>110.69</ele>
        <time>2014-05-18T10:31:19Z</time>
      </trkpt>
      <trkpt lat="43.5698" lon="3.39775">
        <ele>111.17</ele>
        <time>2014-05-18T10:32:06Z</time>
      </trkpt>
      <trkpt lat="43.5698" lon="3.39776">
        <ele>110.69</ele>
        <time>2014-05-18T10:32:43Z</time>
      </trkpt>
      <trkpt lat="43.5698" lon="3.39774">
        <ele>108.77</ele>
        <time>2014-05-18T10:33:35Z</time>
      </trkpt>
      <trkpt lat="43.5698" lon="3.39773">
        <ele>107.32</ele>
        <time>2014-05-18T10:34:12Z</time>
      </trkpt>
      <trkpt lat="43.56981" lon="3.39774">
        <ele>107.81</ele>
        <time>2014-05-18T10:34:55Z</time>
      </trkpt>
      <trkpt lat="43.5698" lon="3.39775">
        <ele>108.29</ele>
        <time>2014-05-18T10:35:42Z</time>
      </trkpt>
      <trkpt lat="43.5698" lon="3.39775">
        <ele>108.29</ele>
        <time>2014-05-18T10:36:31Z</time>
      </trkpt>
      <trkpt lat="43.5698" lon="3.39775">
        <ele>109.25</ele>
        <time>2014-05-18T10:37:36Z</time>
      </trkpt>
      <trkpt lat="43.5698" lon="3.39775">
        <ele>108.77</ele>
        <time>2014-05-18T10:38:27Z</time>
      </trkpt>
      <trkpt lat="43.56979" lon="3.39777">
        <ele>110.69</ele>
        <time>2014-05-18T10:39:19Z</time>
      </trkpt>
      <trkpt lat="43.56978" lon="3.39777">
        <ele>111.17</ele>
        <time>2014-05-18T10:40:18Z</time>
      </trkpt>
      <trkpt lat="43.56978" lon="3.39778">
        <ele>111.17</ele>
        <time>2014-05-18T10:41:18Z</time>
      </trkpt>
      <trkpt lat="43.56978" lon="3.39776">
        <ele>109.25</ele>
        <time>2014-05-18T10:42:16Z</time>
      </trkpt>
      <trkpt lat="43.56978" lon="3.39776">
        <ele>108.29</ele>
        <time>2014-05-18T10:43:15Z</time>
      </trkpt>
      <trkpt lat="43.56978" lon="3.39776">
        <ele>108.29</ele>
        <time>2014-05-18T10:44:14Z</time>
      </trkpt>
      <trkpt lat="43.56978" lon="3.39776">
        <ele>107.32</ele>
        <time>2014-05-18T10:45:17Z</time>
      </trkpt>
      <trkpt lat="43.56978" lon="3.39776">
        <ele>105.4</ele>
        <time>2014-05-18T10:46:21Z</time>
      </trkpt>
      <trkpt lat="43.5698" lon="3.39776">
        <ele>105.4</ele>
        <time>2014-05-18T10:47:25Z</time>
      </trkpt>
      <trkpt lat="43.56982" lon="3.39775">
        <ele>104.44</ele>
        <time>2014-05-18T10:48:21Z</time>
      </trkpt>
      <trkpt lat="43.56982" lon="3.39775">
        <ele>103.96</ele>
        <time>2014-05-18T10:49:12Z</time>
      </trkpt>
      <trkpt lat="43.5698" lon="3.39776">
        <ele>104.92</ele>
        <time>2014-05-18T10:50:12Z</time>
      </trkpt>
      <trkpt lat="43.5698" lon="3.39776">
        <ele>104.92</ele>
        <time>2014-05-18T10:51:12Z</time>
      </trkpt>
      <trkpt lat="43.56979" lon="3.39775">
        <ele>103.96</ele>
        <time>2014-05-18T10:52:09Z</time>
      </trkpt>
      <trkpt lat="43.56979" lon="3.39776">
        <ele>103</ele>
        <time>2014-05-18T10:53:09Z</time>
      </trkpt>
      <trkpt lat="43.5698" lon="3.39774">
        <ele>102.52</ele>
        <time>2014-05-18T10:54:14Z</time>
      </trkpt>
      <trkpt lat="43.5698" lon="3.39775">
        <ele>102.04</ele>
        <time>2014-05-18T10:55:13Z</time>
      </trkpt>
      <trkpt lat="43.56981" lon="3.39774">
        <ele>102.52</ele>
        <time>2014-05-18T10:56:14Z</time>
      </trkpt>
      <trkpt lat="43.5698" lon="3.39775">
        <ele>103.96</ele>
        <time>2014-05-18T10:56:54Z</time>
      </trkpt>
      <trkpt lat="43.5698" lon="3.39775">
        <ele>105.4</ele>
        <time>2014-05-18T10:57:51Z</time>
      </trkpt>
      <trkpt lat="43.56979" lon="3.39775">
        <ele>106.36</ele>
        <time>2014-05-18T10:58:35Z</time>
      </trkpt>
      <trkpt lat="43.56979" lon="3.39775">
        <ele>106.84</ele>
        <time>2014-05-18T10:59:19Z</time>
      </trkpt>
      <trkpt lat="43.56979" lon="3.39775">
        <ele>107.32</ele>
        <time>2014-05-18T11:00:19Z</time>
      </trkpt>
      <trkpt lat="43.56979" lon="3.39775">
        <ele>107.81</ele>
        <time>2014-05-18T11:01:13Z</time>
      </trkpt>
      <trkpt lat="43.5698" lon="3.39776">
        <ele>108.29</ele>
        <time>2014-05-18T11:02:04Z</time>
      </trkpt>
      <trkpt lat="43.56979" lon="3.39776">
        <ele>109.25</ele>
        <time>2014-05-18T11:02:48Z</time>
      </trkpt>
      <trkpt lat="43.5698" lon="3.39776">
        <ele>109.25</ele>
        <time>2014-05-18T11:03:32Z</time>
      </trkpt>
      <trkpt lat="43.5698" lon="3.39776">
        <ele>109.73</ele>
        <time>2014-05-18T11:04:17Z</time>
      </trkpt>
      <trkpt lat="43.5698" lon="3.39777">
        <ele>109.73</ele>
        <time>2014-05-18T11:05:02Z</time>
      </trkpt>
      <trkpt lat="43.56981" lon="3.39777">
        <ele>110.21</ele>
        <time>2014-05-18T11:05:43Z</time>
      </trkpt>
      <trkpt lat="43.5698" lon="3.39776">
        <ele>110.69</ele>
        <time>2014-05-18T11:06:19Z</time>
      </trkpt>
      <trkpt lat="43.5698" lon="3.39778">
        <ele>111.65</ele>
        <time>2014-05-18T11:07:08Z</time>
      </trkpt>
      <trkpt lat="43.5698" lon="3.39777">
        <ele>112.13</ele>
        <time>2014-05-18T11:07:47Z</time>
      </trkpt>
      <trkpt lat="43.56981" lon="3.39777">
        <ele>112.61</ele>
        <time>2014-05-18T11:08:42Z</time>
      </trkpt>
      <trkpt lat="43.56981" lon="3.39778">
        <ele>112.61</ele>
        <time>2014-05-18T11:09:28Z</time>
      </trkpt>
      <trkpt lat="43.5698" lon="3.39777">
        <ele>111.65</ele>
        <time>2014-05-18T11:10:12Z</time>
      </trkpt>
      <trkpt lat="43.5698" lon="3.39776">
        <ele>111.65</ele>
        <time>2014-05-18T11:10:42Z</time>
      </trkpt>
      <trkpt lat="43.56981" lon="3.39775">
        <ele>111.65</ele>
        <time>2014-05-18T11:11:27Z</time>
      </trkpt>
      <trkpt lat="43.5698" lon="3.39774">
        <ele>111.65</ele>
        <time>2014-05-18T11:12:14Z</time>
      </trkpt>
      <trkpt lat="43.56981" lon="3.39776">
        <ele>111.65</ele>
        <time>2014-05-18T11:12:50Z</time>
      </trkpt>
      <trkpt lat="43.56981" lon="3.39777">
        <ele>112.13</ele>
        <time>2014-05-18T11:13:18Z</time>
      </trkpt>
      <trkpt lat="43.56993" lon="3.39783">
        <ele>111.17</ele>
        <time>2014-05-18T11:13:25Z</time>
      </trkpt>
      <trkpt lat="43.5707" lon="3.39723">
        <ele>113.09</ele>
        <time>2014-05-18T11:13:45Z</time>
      </trkpt>
      <trkpt lat="43.57073" lon="3.39722">
        <ele>113.57</ele>
        <time>2014-05-18T11:13:46Z</time>
      </trkpt>
      <trkpt lat="43.57088" lon="3.39742">
        <ele>114.53</ele>
        <time>2014-05-18T11:13:51Z</time>
      </trkpt>
      <trkpt lat="43.57117" lon="3.39786">
        <ele>116.46</ele>
        <time>2014-05-18T11:13:59Z</time>
      </trkpt>
      <trkpt lat="43.57123" lon="3.39792">
        <ele>116.94</ele>
        <time>2014-05-18T11:14:01Z</time>
      </trkpt>
      <trkpt lat="43.57192" lon="3.39827">
        <ele>118.86</ele>
        <time>2014-05-18T11:14:11Z</time>
      </trkpt>
      <trkpt lat="43.57269" lon="3.39829">
        <ele>120.3</ele>
        <time>2014-05-18T11:14:23Z</time>
      </trkpt>
      <trkpt lat="43.5727" lon="3.39852">
        <ele>120.78</ele>
        <time>2014-05-18T11:14:30Z</time>
      </trkpt>
      <trkpt lat="43.57194" lon="3.3995">
        <ele>115.98</ele>
        <time>2014-05-18T11:14:41Z</time>
      </trkpt>
      <trkpt lat="43.57061" lon="3.40112">
        <ele>109.25</ele>
        <time>2014-05-18T11:14:56Z</time>
      </trkpt>
      <trkpt lat="43.5696" lon="3.40182">
        <ele>106.36</ele>
        <time>2014-05-18T11:15:05Z</time>
      </trkpt>
      <trkpt lat="43.56805" lon="3.40339">
        <ele>101.08</ele>
        <time>2014-05-18T11:15:19Z</time>
      </trkpt>
      <trkpt lat="43.56699" lon="3.40449">
        <ele>97.23</ele>
        <time>2014-05-18T11:15:28Z</time>
      </trkpt>
      <trkpt lat="43.56576" lon="3.40559">
        <ele>94.35</ele>
        <time>2014-05-18T11:15:38Z</time>
      </trkpt>
      <trkpt lat="43.56544" lon="3.4062">
        <ele>93.39</ele>
        <time>2014-05-18T11:15:42Z</time>
      </trkpt>
      <trkpt lat="43.5651" lon="3.40783">
        <ele>92.42</ele>
        <time>2014-05-18T11:15:50Z</time>
      </trkpt>
      <trkpt lat="43.56467" lon="3.40855">
        <ele>91.46</ele>
        <time>2014-05-18T11:15:55Z</time>
      </trkpt>
      <trkpt lat="43.5641" lon="3.40898">
        <ele>90.5</ele>
        <time>2014-05-18T11:16:02Z</time>
      </trkpt>
      <trkpt lat="43.56334" lon="3.40935">
        <ele>90.5</ele>
        <time>2014-05-18T11:16:12Z</time>
      </trkpt>
      <trkpt lat="43.563" lon="3.40947">
        <ele>90.5</ele>
        <time>2014-05-18T11:16:17Z</time>
      </trkpt>
      <trkpt lat="43.56292" lon="3.40952">
        <ele>90.98</ele>
        <time>2014-05-18T11:16:19Z</time>
      </trkpt>
      <trkpt lat="43.56285" lon="3.40948">
        <ele>90.98</ele>
        <time>2014-05-18T11:16:23Z</time>
      </trkpt>
      <trkpt lat="43.56279" lon="3.40922">
        <ele>90.02</ele>
        <time>2014-05-18T11:16:38Z</time>
      </trkpt>
      <trkpt lat="43.5628" lon="3.40923">
        <ele>88.58</ele>
        <time>2014-05-18T11:17:22Z</time>
      </trkpt>
      <trkpt lat="43.5628" lon="3.40924">
        <ele>88.58</ele>
        <time>2014-05-18T11:18:02Z</time>
      </trkpt>
      <trkpt lat="43.5628" lon="3.40924">
        <ele>88.58</ele>
        <time>2014-05-18T11:18:47Z</time>
      </trkpt>
      <trkpt lat="43.5628" lon="3.40924">
        <ele>88.1</ele>
        <time>2014-05-18T11:19:37Z</time>
      </trkpt>
      <trkpt lat="43.5628" lon="3.40924">
        <ele>88.58</ele>
        <time>2014-05-18T11:20:26Z</time>
      </trkpt>
      <trkpt lat="43.56281" lon="3.40926">
        <ele>88.58</ele>
        <time>2014-05-18T11:21:01Z</time>
      </trkpt>
      <trkpt lat="43.56274" lon="3.40905">
        <ele>88.1</ele>
        <time>2014-05-18T11:21:11Z</time>
      </trkpt>
      <trkpt lat="43.56274" lon="3.40904">
        <ele>88.1</ele>
        <time>2014-05-18T11:21:35Z</time>
      </trkpt>
      <trkpt lat="43.56274" lon="3.40906">
        <ele>88.1</ele>
        <time>2014-05-18T11:21:39Z</time>
      </trkpt>
      <trkpt lat="43.56283" lon="3.40937">
        <ele>89.54</ele>
        <time>2014-05-18T11:21:49Z</time>
      </trkpt>
      <trkpt lat="43.56288" lon="3.40953">
        <ele>89.54</ele>
        <time>2014-05-18T11:21:56Z</time>
      </trkpt>
      <trkpt lat="43.56289" lon="3.40954">
        <ele>89.54</ele>
        <time>2014-05-18T11:21:57Z</time>
      </trkpt>
      <trkpt lat="43.56247" lon="3.40967">
        <ele>89.06</ele>
        <time>2014-05-18T11:22:04Z</time>
      </trkpt>
      <trkpt lat="43.56142" lon="3.40999">
        <ele>88.58</ele>
        <time>2014-05-18T11:22:11Z</time>
      </trkpt>
      <trkpt lat="43.56115" lon="3.41009">
        <ele>88.58</ele>
        <time>2014-05-18T11:22:13Z</time>
      </trkpt>
      <trkpt lat="43.56086" lon="3.41035">
        <ele>87.62</ele>
        <time>2014-05-18T11:22:19Z</time>
      </trkpt>
      <trkpt lat="43.56073" lon="3.41036">
        <ele>87.14</ele>
        <time>2014-05-18T11:22:21Z</time>
      </trkpt>
      <trkpt lat="43.5595" lon="3.41001">
        <ele>86.66</ele>
        <time>2014-05-18T11:22:30Z</time>
      </trkpt>
      <trkpt lat="43.55935" lon="3.40998">
        <ele>86.18</ele>
        <time>2014-05-18T11:22:31Z</time>
      </trkpt>
      <trkpt lat="43.55824" lon="3.41035">
        <ele>85.21</ele>
        <time>2014-05-18T11:22:38Z</time>
      </trkpt>
      <trkpt lat="43.55642" lon="3.41108">
        <ele>82.81</ele>
        <time>2014-05-18T11:22:48Z</time>
      </trkpt>
      <trkpt lat="43.55491" lon="3.41147">
        <ele>80.41</ele>
        <time>2014-05-18T11:22:56Z</time>
      </trkpt>
      <trkpt lat="43.55401" lon="3.41216">
        <ele>80.89</ele>
        <time>2014-05-18T11:23:02Z</time>
      </trkpt>
      <trkpt lat="43.55326" lon="3.41235">
        <ele>79.93</ele>
        <time>2014-05-18T11:23:07Z</time>
      </trkpt>
      <trkpt lat="43.55119" lon="3.412">
        <ele>78.48</ele>
        <time>2014-05-18T11:23:17Z</time>
      </trkpt>
      <trkpt lat="43.55047" lon="3.4123">
        <ele>79.93</ele>
        <time>2014-05-18T11:23:21Z</time>
      </trkpt>
      <trkpt lat="43.54871" lon="3.41385">
        <ele>79.45</ele>
        <time>2014-05-18T11:23:31Z</time>
      </trkpt>
      <trkpt lat="43.54566" lon="3.41647">
        <ele>78.97</ele>
        <time>2014-05-18T11:23:47Z</time>
      </trkpt>
      <trkpt lat="43.54398" lon="3.41768">
        <ele>82.33</ele>
        <time>2014-05-18T11:23:56Z</time>
      </trkpt>
      <trkpt lat="43.54249" lon="3.41887">
        <ele>80.41</ele>
        <time>2014-05-18T11:24:04Z</time>
      </trkpt>
      <trkpt lat="43.54048" lon="3.42093">
        <ele>77.04</ele>
        <time>2014-05-18T11:24:16Z</time>
      </trkpt>
      <trkpt lat="43.53908" lon="3.4226">
        <ele>70.31</ele>
        <time>2014-05-18T11:24:25Z</time>
      </trkpt>
      <trkpt lat="43.53714" lon="3.42476">
        <ele>63.58</ele>
        <time>2014-05-18T11:24:37Z</time>
      </trkpt>
      <trkpt lat="43.53648" lon="3.42539">
        <ele>63.1</ele>
        <time>2014-05-18T11:24:42Z</time>
      </trkpt>
      <trkpt lat="43.53644" lon="3.42578">
        <ele>63.58</ele>
        <time>2014-05-18T11:24:44Z</time>
      </trkpt>
      <trkpt lat="43.53646" lon="3.42636">
        <ele>64.55</ele>
        <time>2014-05-18T11:24:47Z</time>
      </trkpt>
      <trkpt lat="43.53618" lon="3.42711">
        <ele>67.43</ele>
        <time>2014-05-18T11:24:53Z</time>
      </trkpt>
      <trkpt lat="43.53612" lon="3.42732">
        <ele>68.39</ele>
        <time>2014-05-18T11:24:56Z</time>
      </trkpt>
      <trkpt lat="43.53568" lon="3.42762">
        <ele>70.31</ele>
        <time>2014-05-18T11:25:03Z</time>
      </trkpt>
      <trkpt lat="43.53519" lon="3.42769">
        <ele>71.27</ele>
        <time>2014-05-18T11:25:10Z</time>
      </trkpt>
      <trkpt lat="43.53487" lon="3.42821">
        <ele>70.79</ele>
        <time>2014-05-18T11:25:17Z</time>
      </trkpt>
      <trkpt lat="43.53441" lon="3.42876">
        <ele>69.35</ele>
        <time>2014-05-18T11:25:24Z</time>
      </trkpt>
      <trkpt lat="43.5335" lon="3.42943">
        <ele>67.43</ele>
        <time>2014-05-18T11:25:35Z</time>
      </trkpt>
      <trkpt lat="43.53342" lon="3.42949">
        <ele>66.95</ele>
        <time>2014-05-18T11:25:36Z</time>
      </trkpt>
      <trkpt lat="43.53276" lon="3.43023">
        <ele>63.1</ele>
        <time>2014-05-18T11:25:43Z</time>
      </trkpt>
      <trkpt lat="43.5322" lon="3.43092">
        <ele>60.22</ele>
        <time>2014-05-18T11:25:51Z</time>
      </trkpt>
      <trkpt lat="43.53184" lon="3.43135">
        <ele>58.78</ele>
        <time>2014-05-18T11:25:57Z</time>
      </trkpt>
      <trkpt lat="43.53161" lon="3.4315">
        <ele>57.82</ele>
        <time>2014-05-18T11:26:01Z</time>
      </trkpt>
      <trkpt lat="43.53136" lon="3.43171">
        <ele>57.34</ele>
        <time>2014-05-18T11:26:05Z</time>
      </trkpt>
      <trkpt lat="43.53043" lon="3.4331">
        <ele>56.86</ele>
        <time>2014-05-18T11:26:15Z</time>
      </trkpt>
      <trkpt lat="43.52915" lon="3.435">
        <ele>53.97</ele>
        <time>2014-05-18T11:26:25Z</time>
      </trkpt>
      <trkpt lat="43.52758" lon="3.4373">
        <ele>49.16</ele>
        <time>2014-05-18T11:26:35Z</time>
      </trkpt>
      <trkpt lat="43.52539" lon="3.44054">
        <ele>43.4</ele>
        <time>2014-05-18T11:26:49Z</time>
      </trkpt>
      <trkpt lat="43.52453" lon="3.44179">
        <ele>41.47</ele>
        <time>2014-05-18T11:26:56Z</time>
      </trkpt>
      <trkpt lat="43.52398" lon="3.44227">
        <ele>41.47</ele>
        <time>2014-05-18T11:27:03Z</time>
      </trkpt>
      <trkpt lat="43.52395" lon="3.44239">
        <ele>41.47</ele>
        <time>2014-05-18T11:27:04Z</time>
      </trkpt>
      <trkpt lat="43.52337" lon="3.44352">
        <ele>40.51</ele>
        <time>2014-05-18T11:27:12Z</time>
      </trkpt>
      <trkpt lat="43.52293" lon="3.44417">
        <ele>39.55</ele>
        <time>2014-05-18T11:27:17Z</time>
      </trkpt>
      <trkpt lat="43.52244" lon="3.44455">
        <ele>38.59</ele>
        <time>2014-05-18T11:27:23Z</time>
      </trkpt>
      <trkpt lat="43.52241" lon="3.44466">
        <ele>38.59</ele>
        <time>2014-05-18T11:27:24Z</time>
      </trkpt>
      <trkpt lat="43.52192" lon="3.44569">
        <ele>37.15</ele>
        <time>2014-05-18T11:27:31Z</time>
      </trkpt>
      <trkpt lat="43.52063" lon="3.44759">
        <ele>32.82</ele>
        <time>2014-05-18T11:27:41Z</time>
      </trkpt>
      <trkpt lat="43.5198" lon="3.4488">
        <ele>30.42</ele>
        <time>2014-05-18T11:27:49Z</time>
      </trkpt>
      <trkpt lat="43.51961" lon="3.44905">
        <ele>29.46</ele>
        <time>2014-05-18T11:27:54Z</time>
      </trkpt>
      <trkpt lat="43.51916" lon="3.44896">
        <ele>29.94</ele>
        <time>2014-05-18T11:28:00Z</time>
      </trkpt>
      <trkpt lat="43.51815" lon="3.44892">
        <ele>30.9</ele>
        <time>2014-05-18T11:28:07Z</time>
      </trkpt>
      <trkpt lat="43.51776" lon="3.44898">
        <ele>30.9</ele>
        <time>2014-05-18T11:28:11Z</time>
      </trkpt>
      <trkpt lat="43.51775" lon="3.44926">
        <ele>30.42</ele>
        <time>2014-05-18T11:28:16Z</time>
      </trkpt>
      <trkpt lat="43.51782" lon="3.44932">
        <ele>30.42</ele>
        <time>2014-05-18T11:28:17Z</time>
      </trkpt>
      <trkpt lat="43.51874" lon="3.44996">
        <ele>30.42</ele>
        <time>2014-05-18T11:28:24Z</time>
      </trkpt>
      <trkpt lat="43.52038" lon="3.45103">
        <ele>30.9</ele>
        <time>2014-05-18T11:28:33Z</time>
      </trkpt>
      <trkpt lat="43.52214" lon="3.45201">
        <ele>30.42</ele>
        <time>2014-05-18T11:28:43Z</time>
      </trkpt>
      <trkpt lat="43.52226" lon="3.45208">
        <ele>29.94</ele>
        <time>2014-05-18T11:28:44Z</time>
      </trkpt>
      <trkpt lat="43.52239" lon="3.45261">
        <ele>30.42</ele>
        <time>2014-05-18T11:28:49Z</time>
      </trkpt>
      <trkpt lat="43.52179" lon="3.45402">
        <ele>30.9</ele>
        <time>2014-05-18T11:28:57Z</time>
      </trkpt>
      <trkpt lat="43.52086" lon="3.4563">
        <ele>29.94</ele>
        <time>2014-05-18T11:29:07Z</time>
      </trkpt>
      <trkpt lat="43.52045" lon="3.45734">
        <ele>29.46</ele>
        <time>2014-05-18T11:29:12Z</time>
      </trkpt>
      <trkpt lat="43.52009" lon="3.45935">
        <ele>29.94</ele>
        <time>2014-05-18T11:29:21Z</time>
      </trkpt>
      <trkpt lat="43.51979" lon="3.46031">
        <ele>30.9</ele>
        <time>2014-05-18T11:29:27Z</time>
      </trkpt>
      <trkpt lat="43.51964" lon="3.46081">
        <ele>31.86</ele>
        <time>2014-05-18T11:29:34Z</time>
      </trkpt>
      <trkpt lat="43.51929" lon="3.46194">
        <ele>32.82</ele>
        <time>2014-05-18T11:29:45Z</time>
      </trkpt>
      <trkpt lat="43.51904" lon="3.46281">
        <ele>32.34</ele>
        <time>2014-05-18T11:29:52Z</time>
      </trkpt>
      <trkpt lat="43.51921" lon="3.46326">
        <ele>31.86</ele>
        <time>2014-05-18T11:29:57Z</time>
      </trkpt>
      <trkpt lat="43.51958" lon="3.46337">
        <ele>31.38</ele>
        <time>2014-05-18T11:30:01Z</time>
      </trkpt>
      <trkpt lat="43.51984" lon="3.46353">
        <ele>30.9</ele>
        <time>2014-05-18T11:30:04Z</time>
      </trkpt>
      <trkpt lat="43.52032" lon="3.4641">
        <ele>28.5</ele>
        <time>2014-05-18T11:30:10Z</time>
      </trkpt>
      <trkpt lat="43.52093" lon="3.4646">
        <ele>28.02</ele>
        <time>2014-05-18T11:30:16Z</time>
      </trkpt>
      <trkpt lat="43.52223" lon="3.46487">
        <ele>31.38</ele>
        <time>2014-05-18T11:30:26Z</time>
      </trkpt>
      <trkpt lat="43.52271" lon="3.46508">
        <ele>31.86</ele>
        <time>2014-05-18T11:30:31Z</time>
      </trkpt>
      <trkpt lat="43.52291" lon="3.46499">
        <ele>32.82</ele>
        <time>2014-05-18T11:30:35Z</time>
      </trkpt>
      <trkpt lat="43.52342" lon="3.46398">
        <ele>32.34</ele>
        <time>2014-05-18T11:30:46Z</time>
      </trkpt>
      <trkpt lat="43.52364" lon="3.46396">
        <ele>32.34</ele>
        <time>2014-05-18T11:30:50Z</time>
      </trkpt>
      <trkpt lat="43.52381" lon="3.46411">
        <ele>32.34</ele>
        <time>2014-05-18T11:30:53Z</time>
      </trkpt>
      <trkpt lat="43.52406" lon="3.46406">
        <ele>32.82</ele>
        <time>2014-05-18T11:30:58Z</time>
      </trkpt>
      <trkpt lat="43.52428" lon="3.46379">
        <ele>33.3</ele>
        <time>2014-05-18T11:31:06Z</time>
      </trkpt>
      <trkpt lat="43.52433" lon="3.4638">
        <ele>32.82</ele>
        <time>2014-05-18T11:31:08Z</time>
      </trkpt>
      <trkpt lat="43.52436" lon="3.46379">
        <ele>33.3</ele>
        <time>2014-05-18T11:31:21Z</time>
      </trkpt>
      <trkpt lat="43.52437" lon="3.46377">
        <ele>34.26</ele>
        <time>2014-05-18T11:31:41Z</time>
      </trkpt>
      <trkpt lat="43.52442" lon="3.46361">
        <ele>34.26</ele>
        <time>2014-05-18T11:31:55Z</time>
      </trkpt>
      <trkpt lat="43.52441" lon="3.46358">
        <ele>32.82</ele>
        <time>2014-05-18T11:32:16Z</time>
      </trkpt>
      <trkpt lat="43.52441" lon="3.46356">
        <ele>31.38</ele>
        <time>2014-05-18T11:32:42Z</time>
      </trkpt>
      <trkpt lat="43.5244" lon="3.46356">
        <ele>29.94</ele>
        <time>2014-05-18T11:33:05Z</time>
      </trkpt>
      <trkpt lat="43.5244" lon="3.46355">
        <ele>29.46</ele>
        <time>2014-05-18T11:33:36Z</time>
      </trkpt>
      <trkpt lat="43.5244" lon="3.46355">
        <ele>28.98</ele>
        <time>2014-05-18T11:34:07Z</time>
      </trkpt>
      <trkpt lat="43.5244" lon="3.46355">
        <ele>28.98</ele>
        <time>2014-05-18T11:34:30Z</time>
      </trkpt>
      <trkpt lat="43.5244" lon="3.46355">
        <ele>28.98</ele>
        <time>2014-05-18T11:34:50Z</time>
      </trkpt>
      <trkpt lat="43.52441" lon="3.46355">
        <ele>28.5</ele>
        <time>2014-05-18T11:35:12Z</time>
      </trkpt>
      <trkpt lat="43.52441" lon="3.46355">
        <ele>28.02</ele>
        <time>2014-05-18T11:35:43Z</time>
      </trkpt>
      <trkpt lat="43.52442" lon="3.46355">
        <ele>27.53</ele>
        <time>2014-05-18T11:36:07Z</time>
      </trkpt>
      <trkpt lat="43.52442" lon="3.46355">
        <ele>27.05</ele>
        <time>2014-05-18T11:36:28Z</time>
      </trkpt>
      <trkpt lat="43.52442" lon="3.46355">
        <ele>27.53</ele>
        <time>2014-05-18T11:36:56Z</time>
      </trkpt>
      <trkpt lat="43.52442" lon="3.46355">
        <ele>28.02</ele>
        <time>2014-05-18T11:37:24Z</time>
      </trkpt>
      <trkpt lat="43.52442" lon="3.46355">
        <ele>28.02</ele>
        <time>2014-05-18T11:37:52Z</time>
      </trkpt>
      <trkpt lat="43.52442" lon="3.46355">
        <ele>28.02</ele>
        <time>2014-05-18T11:38:19Z</time>
      </trkpt>
      <trkpt lat="43.52443" lon="3.46356">
        <ele>28.02</ele>
        <time>2014-05-18T11:38:48Z</time>
      </trkpt>
      <trkpt lat="43.52443" lon="3.46357">
        <ele>27.53</ele>
        <time>2014-05-18T11:39:18Z</time>
      </trkpt>
      <trkpt lat="43.52443" lon="3.46357">
        <ele>28.02</ele>
        <time>2014-05-18T11:39:44Z</time>
      </trkpt>
      <trkpt lat="43.52444" lon="3.46356">
        <ele>28.98</ele>
        <time>2014-05-18T11:40:13Z</time>
      </trkpt>
      <trkpt lat="43.52444" lon="3.46356">
        <ele>29.46</ele>
        <time>2014-05-18T11:40:43Z</time>
      </trkpt>
      <trkpt lat="43.52444" lon="3.46356">
        <ele>29.94</ele>
        <time>2014-05-18T11:41:16Z</time>
      </trkpt>
      <trkpt lat="43.52443" lon="3.46357">
        <ele>29.94</ele>
        <time>2014-05-18T11:41:42Z</time>
      </trkpt>
      <trkpt lat="43.52443" lon="3.46356">
        <ele>30.42</ele>
        <time>2014-05-18T11:42:16Z</time>
      </trkpt>
      <trkpt lat="43.52443" lon="3.46355">
        <ele>30.42</ele>
        <time>2014-05-18T11:42:44Z</time>
      </trkpt>
      <trkpt lat="43.52443" lon="3.46355">
        <ele>30.9</ele>
        <time>2014-05-18T11:43:03Z</time>
      </trkpt>
      <trkpt lat="43.52442" lon="3.46354">
        <ele>30.42</ele>
        <time>2014-05-18T11:43:34Z</time>
      </trkpt>
      <trkpt lat="43.52441" lon="3.46355">
        <ele>30.9</ele>
        <time>2014-05-18T11:43:57Z</time>
      </trkpt>
      <trkpt lat="43.52439" lon="3.46355">
        <ele>32.34</ele>
        <time>2014-05-18T11:44:27Z</time>
      </trkpt>
      <trkpt lat="43.52439" lon="3.46355">
        <ele>33.3</ele>
        <time>2014-05-18T11:44:59Z</time>
      </trkpt>
      <trkpt lat="43.52439" lon="3.46355">
        <ele>33.78</ele>
        <time>2014-05-18T11:45:31Z</time>
      </trkpt>
      <trkpt lat="43.5244" lon="3.46355">
        <ele>34.26</ele>
        <time>2014-05-18T11:46:07Z</time>
      </trkpt>
      <trkpt lat="43.5244" lon="3.46355">
        <ele>35.23</ele>
        <time>2014-05-18T11:46:45Z</time>
      </trkpt>
      <trkpt lat="43.52441" lon="3.46355">
        <ele>35.71</ele>
        <time>2014-05-18T11:47:18Z</time>
      </trkpt>
      <trkpt lat="43.52441" lon="3.46356">
        <ele>36.19</ele>
        <time>2014-05-18T11:47:49Z</time>
      </trkpt>
      <trkpt lat="43.52442" lon="3.46356">
        <ele>36.19</ele>
        <time>2014-05-18T11:48:27Z</time>
      </trkpt>
      <trkpt lat="43.52441" lon="3.46356">
        <ele>36.67</ele>
        <time>2014-05-18T11:48:52Z</time>
      </trkpt>
      <trkpt lat="43.52441" lon="3.46356">
        <ele>37.63</ele>
        <time>2014-05-18T11:49:28Z</time>
      </trkpt>
      <trkpt lat="43.52441" lon="3.46356">
        <ele>36.67</ele>
        <time>2014-05-18T11:50:04Z</time>
      </trkpt>
      <trkpt lat="43.52441" lon="3.46356">
        <ele>36.19</ele>
        <time>2014-05-18T11:50:28Z</time>
      </trkpt>
      <trkpt lat="43.52441" lon="3.46355">
        <ele>34.26</ele>
        <time>2014-05-18T11:51:03Z</time>
      </trkpt>
      <trkpt lat="43.5244" lon="3.46356">
        <ele>32.34</ele>
        <time>2014-05-18T11:51:47Z</time>
      </trkpt>
      <trkpt lat="43.52439" lon="3.46357">
        <ele>31.38</ele>
        <time>2014-05-18T11:52:22Z</time>
      </trkpt>
      <trkpt lat="43.52439" lon="3.46358">
        <ele>29.46</ele>
        <time>2014-05-18T11:53:02Z</time>
      </trkpt>
      <trkpt lat="43.52439" lon="3.46358">
        <ele>29.46</ele>
        <time>2014-05-18T11:53:47Z</time>
      </trkpt>
      <trkpt lat="43.52439" lon="3.46358">
        <ele>29.46</ele>
        <time>2014-05-18T11:54:23Z</time>
      </trkpt>
      <trkpt lat="43.52438" lon="3.46358">
        <ele>28.98</ele>
        <time>2014-05-18T11:54:59Z</time>
      </trkpt>
      <trkpt lat="43.52438" lon="3.46358">
        <ele>28.02</ele>
        <time>2014-05-18T11:55:39Z</time>
      </trkpt>
      <trkpt lat="43.52436" lon="3.46357">
        <ele>27.05</ele>
        <time>2014-05-18T11:56:11Z</time>
      </trkpt>
      <trkpt lat="43.52434" lon="3.46355">
        <ele>27.05</ele>
        <time>2014-05-18T11:56:45Z</time>
      </trkpt>
      <trkpt lat="43.52434" lon="3.46355">
        <ele>27.53</ele>
        <time>2014-05-18T11:57:14Z</time>
      </trkpt>
      <trkpt lat="43.52434" lon="3.46356">
        <ele>28.02</ele>
        <time>2014-05-18T11:57:47Z</time>
      </trkpt>
      <trkpt lat="43.52435" lon="3.46356">
        <ele>28.5</ele>
        <time>2014-05-18T11:58:24Z</time>
      </trkpt>
      <trkpt lat="43.52436" lon="3.46356">
        <ele>29.46</ele>
        <time>2014-05-18T11:58:54Z</time>
      </trkpt>
      <trkpt lat="43.52436" lon="3.46356">
        <ele>29.46</ele>
        <time>2014-05-18T11:59:19Z</time>
      </trkpt>
      <trkpt lat="43.52437" lon="3.46356">
        <ele>28.5</ele>
        <time>2014-05-18T11:59:47Z</time>
      </trkpt>
      <trkpt lat="43.52437" lon="3.46356">
        <ele>28.5</ele>
        <time>2014-05-18T12:00:16Z</time>
      </trkpt>
      <trkpt lat="43.52436" lon="3.46357">
        <ele>29.46</ele>
        <time>2014-05-18T12:00:44Z</time>
      </trkpt>
      <trkpt lat="43.52436" lon="3.46356">
        <ele>28.98</ele>
        <time>2014-05-18T12:01:13Z</time>
      </trkpt>
      <trkpt lat="43.52436" lon="3.46355">
        <ele>28.5</ele>
        <time>2014-05-18T12:01:47Z</time>
      </trkpt>
      <trkpt lat="43.52435" lon="3.46354">
        <ele>28.02</ele>
        <time>2014-05-18T12:02:30Z</time>
      </trkpt>
      <trkpt lat="43.52435" lon="3.46354">
        <ele>27.05</ele>
        <time>2014-05-18T12:03:02Z</time>
      </trkpt>
      <trkpt lat="43.52436" lon="3.46355">
        <ele>26.57</ele>
        <time>2014-05-18T12:03:34Z</time>
      </trkpt>
      <trkpt lat="43.52436" lon="3.46355">
        <ele>26.57</ele>
        <time>2014-05-18T12:04:07Z</time>
      </trkpt>
      <trkpt lat="43.52435" lon="3.46354">
        <ele>25.61</ele>
        <time>2014-05-18T12:04:39Z</time>
      </trkpt>
      <trkpt lat="43.52435" lon="3.46355">
        <ele>26.09</ele>
        <time>2014-05-18T12:05:12Z</time>
      </trkpt>
      <trkpt lat="43.52435" lon="3.46355">
        <ele>26.57</ele>
        <time>2014-05-18T12:05:45Z</time>
      </trkpt>
      <trkpt lat="43.52435" lon="3.46355">
        <ele>26.57</ele>
        <time>2014-05-18T12:06:20Z</time>
      </trkpt>
      <trkpt lat="43.52434" lon="3.46356">
        <ele>26.57</ele>
        <time>2014-05-18T12:06:49Z</time>
      </trkpt>
      <trkpt lat="43.52434" lon="3.46356">
        <ele>26.09</ele>
        <time>2014-05-18T12:07:16Z</time>
      </trkpt>
      <trkpt lat="43.52434" lon="3.46355">
        <ele>25.61</ele>
        <time>2014-05-18T12:07:52Z</time>
      </trkpt>
      <trkpt lat="43.52435" lon="3.46356">
        <ele>26.57</ele>
        <time>2014-05-18T12:08:32Z</time>
      </trkpt>
      <trkpt lat="43.52436" lon="3.46357">
        <ele>26.57</ele>
        <time>2014-05-18T12:09:07Z</time>
      </trkpt>
      <trkpt lat="43.52437" lon="3.46359">
        <ele>27.05</ele>
        <time>2014-05-18T12:09:43Z</time>
      </trkpt>
      <trkpt lat="43.52437" lon="3.4636">
        <ele>27.53</ele>
        <time>2014-05-18T12:10:15Z</time>
      </trkpt>
      <trkpt lat="43.52437" lon="3.4636">
        <ele>28.02</ele>
        <time>2014-05-18T12:10:41Z</time>
      </trkpt>
      <trkpt lat="43.52437" lon="3.4636">
        <ele>28.5</ele>
        <time>2014-05-18T12:11:08Z</time>
      </trkpt>
      <trkpt lat="43.52437" lon="3.46359">
        <ele>28.5</ele>
        <time>2014-05-18T12:11:48Z</time>
      </trkpt>
      <trkpt lat="43.52438" lon="3.46359">
        <ele>28.5</ele>
        <time>2014-05-18T12:12:12Z</time>
      </trkpt>
      <trkpt lat="43.52437" lon="3.46359">
        <ele>28.98</ele>
        <time>2014-05-18T12:12:35Z</time>
      </trkpt>
      <trkpt lat="43.52437" lon="3.46358">
        <ele>28.5</ele>
        <time>2014-05-18T12:13:06Z</time>
      </trkpt>
      <trkpt lat="43.52437" lon="3.46358">
        <ele>27.05</ele>
        <time>2014-05-18T12:13:36Z</time>
      </trkpt>
      <trkpt lat="43.52437" lon="3.46358">
        <ele>26.57</ele>
        <time>2014-05-18T12:14:10Z</time>
      </trkpt>
      <trkpt lat="43.52437" lon="3.46358">
        <ele>25.61</ele>
        <time>2014-05-18T12:14:46Z</time>
      </trkpt>
      <trkpt lat="43.52438" lon="3.46358">
        <ele>26.57</ele>
        <time>2014-05-18T12:15:25Z</time>
      </trkpt>
      <trkpt lat="43.52438" lon="3.46358">
        <ele>27.53</ele>
        <time>2014-05-18T12:16:03Z</time>
      </trkpt>
      <trkpt lat="43.52438" lon="3.46358">
        <ele>27.05</ele>
        <time>2014-05-18T12:16:42Z</time>
      </trkpt>
      <trkpt lat="43.52438" lon="3.46358">
        <ele>27.05</ele>
        <time>2014-05-18T12:17:13Z</time>
      </trkpt>
      <trkpt lat="43.52439" lon="3.46358">
        <ele>27.05</ele>
        <time>2014-05-18T12:17:42Z</time>
      </trkpt>
      <trkpt lat="43.52439" lon="3.46359">
        <ele>27.53</ele>
        <time>2014-05-18T12:18:17Z</time>
      </trkpt>
      <trkpt lat="43.52439" lon="3.46359">
        <ele>27.53</ele>
        <time>2014-05-18T12:18:54Z</time>
      </trkpt>
      <trkpt lat="43.52439" lon="3.46359">
        <ele>27.53</ele>
        <time>2014-05-18T12:19:29Z</time>
      </trkpt>
      <trkpt lat="43.52439" lon="3.46359">
        <ele>28.5</ele>
        <time>2014-05-18T12:19:58Z</time>
      </trkpt>
      <trkpt lat="43.5244" lon="3.4636">
        <ele>29.94</ele>
        <time>2014-05-18T12:20:32Z</time>
      </trkpt>
      <trkpt lat="43.5244" lon="3.4636">
        <ele>31.38</ele>
        <time>2014-05-18T12:21:05Z</time>
      </trkpt>
      <trkpt lat="43.52439" lon="3.46361">
        <ele>31.38</ele>
        <time>2014-05-18T12:21:43Z</time>
      </trkpt>
      <trkpt lat="43.52439" lon="3.4636">
        <ele>31.86</ele>
        <time>2014-05-18T12:22:12Z</time>
      </trkpt>
      <trkpt lat="43.5244" lon="3.46359">
        <ele>32.34</ele>
        <time>2014-05-18T12:22:49Z</time>
      </trkpt>
      <trkpt lat="43.52439" lon="3.46359">
        <ele>32.34</ele>
        <time>2014-05-18T12:23:31Z</time>
      </trkpt>
      <trkpt lat="43.52438" lon="3.46357">
        <ele>32.34</ele>
        <time>2014-05-18T12:24:20Z</time>
      </trkpt>
      <trkpt lat="43.52437" lon="3.46355">
        <ele>31.86</ele>
        <time>2014-05-18T12:25:05Z</time>
      </trkpt>
      <trkpt lat="43.52437" lon="3.46354">
        <ele>30.42</ele>
        <time>2014-05-18T12:25:41Z</time>
      </trkpt>
      <trkpt lat="43.52438" lon="3.46355">
        <ele>29.46</ele>
        <time>2014-05-18T12:26:18Z</time>
      </trkpt>
      <trkpt lat="43.52438" lon="3.46356">
        <ele>28.98</ele>
        <time>2014-05-18T12:26:56Z</time>
      </trkpt>
      <trkpt lat="43.52439" lon="3.46357">
        <ele>28.98</ele>
        <time>2014-05-18T12:27:31Z</time>
      </trkpt>
      <trkpt lat="43.52439" lon="3.46359">
        <ele>28.98</ele>
        <time>2014-05-18T12:28:06Z</time>
      </trkpt>
      <trkpt lat="43.5244" lon="3.4636">
        <ele>28.5</ele>
        <time>2014-05-18T12:28:54Z</time>
      </trkpt>
      <trkpt lat="43.5244" lon="3.4636">
        <ele>28.02</ele>
        <time>2014-05-18T12:29:30Z</time>
      </trkpt>
      <trkpt lat="43.5244" lon="3.46358">
        <ele>29.46</ele>
        <time>2014-05-18T12:30:11Z</time>
      </trkpt>
      <trkpt lat="43.5244" lon="3.46359">
        <ele>28.98</ele>
        <time>2014-05-18T12:30:49Z</time>
      </trkpt>
      <trkpt lat="43.5244" lon="3.46361">
        <ele>26.57</ele>
        <time>2014-05-18T12:31:23Z</time>
      </trkpt>
      <trkpt lat="43.5244" lon="3.46361">
        <ele>25.61</ele>
        <time>2014-05-18T12:32:00Z</time>
      </trkpt>
      <trkpt lat="43.52441" lon="3.4636">
        <ele>25.13</ele>
        <time>2014-05-18T12:32:47Z</time>
      </trkpt>
      <trkpt lat="43.52441" lon="3.46361">
        <ele>25.61</ele>
        <time>2014-05-18T12:33:26Z</time>
      </trkpt>
      <trkpt lat="43.52441" lon="3.46361">
        <ele>26.57</ele>
        <time>2014-05-18T12:34:08Z</time>
      </trkpt>
      <trkpt lat="43.5244" lon="3.46361">
        <ele>26.09</ele>
        <time>2014-05-18T12:34:48Z</time>
      </trkpt>
      <trkpt lat="43.5244" lon="3.46363">
        <ele>25.61</ele>
        <time>2014-05-18T12:35:23Z</time>
      </trkpt>
      <trkpt lat="43.5244" lon="3.46365">
        <ele>24.65</ele>
        <time>2014-05-18T12:36:03Z</time>
      </trkpt>
      <trkpt lat="43.5244" lon="3.46365">
        <ele>24.65</ele>
        <time>2014-05-18T12:36:45Z</time>
      </trkpt>
      <trkpt lat="43.5244" lon="3.46366">
        <ele>24.65</ele>
        <time>2014-05-18T12:37:30Z</time>
      </trkpt>
      <trkpt lat="43.52442" lon="3.46367">
        <ele>24.65</ele>
        <time>2014-05-18T12:38:21Z</time>
      </trkpt>
      <trkpt lat="43.52442" lon="3.46367">
        <ele>23.69</ele>
        <time>2014-05-18T12:39:04Z</time>
      </trkpt>
      <trkpt lat="43.52442" lon="3.46368">
        <ele>23.21</ele>
        <time>2014-05-18T12:39:43Z</time>
      </trkpt>
      <trkpt lat="43.52442" lon="3.46368">
        <ele>22.25</ele>
        <time>2014-05-18T12:40:14Z</time>
      </trkpt>
      <trkpt lat="43.52443" lon="3.46367">
        <ele>21.77</ele>
        <time>2014-05-18T12:40:45Z</time>
      </trkpt>
      <trkpt lat="43.52442" lon="3.46364">
        <ele>22.25</ele>
        <time>2014-05-18T12:41:18Z</time>
      </trkpt>
      <trkpt lat="43.52441" lon="3.46361">
        <ele>22.73</ele>
        <time>2014-05-18T12:42:03Z</time>
      </trkpt>
      <trkpt lat="43.5244" lon="3.4636">
        <ele>21.77</ele>
        <time>2014-05-18T12:42:39Z</time>
      </trkpt>
      <trkpt lat="43.5244" lon="3.46359">
        <ele>22.25</ele>
        <time>2014-05-18T12:43:15Z</time>
      </trkpt>
      <trkpt lat="43.52439" lon="3.46359">
        <ele>22.73</ele>
        <time>2014-05-18T12:43:58Z</time>
      </trkpt>
      <trkpt lat="43.52439" lon="3.46361">
        <ele>23.21</ele>
        <time>2014-05-18T12:44:38Z</time>
      </trkpt>
      <trkpt lat="43.52439" lon="3.4636">
        <ele>23.21</ele>
        <time>2014-05-18T12:45:17Z</time>
      </trkpt>
      <trkpt lat="43.5244" lon="3.46361">
        <ele>22.25</ele>
        <time>2014-05-18T12:45:56Z</time>
      </trkpt>
      <trkpt lat="43.52441" lon="3.46362">
        <ele>21.29</ele>
        <time>2014-05-18T12:46:37Z</time>
      </trkpt>
      <trkpt lat="43.52442" lon="3.46362">
        <ele>21.29</ele>
        <time>2014-05-18T12:47:16Z</time>
      </trkpt>
      <trkpt lat="43.52442" lon="3.46362">
        <ele>23.21</ele>
        <time>2014-05-18T12:47:55Z</time>
      </trkpt>
      <trkpt lat="43.52442" lon="3.46362">
        <ele>23.21</ele>
        <time>2014-05-18T12:48:30Z</time>
      </trkpt>
      <trkpt lat="43.52441" lon="3.46363">
        <ele>23.21</ele>
        <time>2014-05-18T12:49:01Z</time>
      </trkpt>
      <trkpt lat="43.52441" lon="3.46363">
        <ele>21.77</ele>
        <time>2014-05-18T12:49:42Z</time>
      </trkpt>
      <trkpt lat="43.5244" lon="3.46362">
        <ele>21.29</ele>
        <time>2014-05-18T12:50:22Z</time>
      </trkpt>
      <trkpt lat="43.52439" lon="3.46362">
        <ele>20.81</ele>
        <time>2014-05-18T12:50:59Z</time>
      </trkpt>
      <trkpt lat="43.52438" lon="3.4636">
        <ele>20.32</ele>
        <time>2014-05-18T12:51:36Z</time>
      </trkpt>
      <trkpt lat="43.52438" lon="3.46359">
        <ele>19.36</ele>
        <time>2014-05-18T12:52:18Z</time>
      </trkpt>
      <trkpt lat="43.52437" lon="3.46361">
        <ele>18.4</ele>
        <time>2014-05-18T12:52:52Z</time>
      </trkpt>
      <trkpt lat="43.52437" lon="3.46361">
        <ele>17.92</ele>
        <time>2014-05-18T12:53:23Z</time>
      </trkpt>
      <trkpt lat="43.52437" lon="3.4636">
        <ele>18.88</ele>
        <time>2014-05-18T12:54:01Z</time>
      </trkpt>
      <trkpt lat="43.52438" lon="3.4636">
        <ele>18.88</ele>
        <time>2014-05-18T12:54:31Z</time>
      </trkpt>
      <trkpt lat="43.52439" lon="3.46361">
        <ele>19.36</ele>
        <time>2014-05-18T12:55:02Z</time>
      </trkpt>
      <trkpt lat="43.52439" lon="3.46361">
        <ele>19.36</ele>
        <time>2014-05-18T12:55:41Z</time>
      </trkpt>
      <trkpt lat="43.52438" lon="3.4636">
        <ele>19.84</ele>
        <time>2014-05-18T12:56:16Z</time>
      </trkpt>
      <trkpt lat="43.52438" lon="3.4636">
        <ele>20.81</ele>
        <time>2014-05-18T12:56:52Z</time>
      </trkpt>
      <trkpt lat="43.52437" lon="3.46362">
        <ele>21.77</ele>
        <time>2014-05-18T12:57:27Z</time>
      </trkpt>
      <trkpt lat="43.52437" lon="3.46363">
        <ele>23.21</ele>
        <time>2014-05-18T12:58:07Z</time>
      </trkpt>
      <trkpt lat="43.52438" lon="3.46364">
        <ele>23.21</ele>
        <time>2014-05-18T12:58:41Z</time>
      </trkpt>
      <trkpt lat="43.52438" lon="3.46365">
        <ele>24.17</ele>
        <time>2014-05-18T12:59:14Z</time>
      </trkpt>
      <trkpt lat="43.52438" lon="3.46364">
        <ele>24.65</ele>
        <time>2014-05-18T12:59:47Z</time>
      </trkpt>
      <trkpt lat="43.52439" lon="3.46364">
        <ele>24.17</ele>
        <time>2014-05-18T13:00:20Z</time>
      </trkpt>
      <trkpt lat="43.52438" lon="3.46363">
        <ele>24.17</ele>
        <time>2014-05-18T13:01:02Z</time>
      </trkpt>
      <trkpt lat="43.52437" lon="3.46363">
        <ele>25.13</ele>
        <time>2014-05-18T13:01:44Z</time>
      </trkpt>
      <trkpt lat="43.52438" lon="3.46364">
        <ele>26.57</ele>
        <time>2014-05-18T13:02:22Z</time>
      </trkpt>
      <trkpt lat="43.52438" lon="3.46364">
        <ele>28.02</ele>
        <time>2014-05-18T13:03:02Z</time>
      </trkpt>
      <trkpt lat="43.52437" lon="3.46365">
        <ele>28.98</ele>
        <time>2014-05-18T13:03:40Z</time>
      </trkpt>
      <trkpt lat="43.52437" lon="3.46365">
        <ele>28.98</ele>
        <time>2014-05-18T13:04:15Z</time>
      </trkpt>
      <trkpt lat="43.52437" lon="3.46365">
        <ele>28.98</ele>
        <time>2014-05-18T13:04:50Z</time>
      </trkpt>
      <trkpt lat="43.52436" lon="3.46366">
        <ele>28.5</ele>
        <time>2014-05-18T13:05:21Z</time>
      </trkpt>
      <trkpt lat="43.52434" lon="3.46366">
        <ele>28.02</ele>
        <time>2014-05-18T13:05:50Z</time>
      </trkpt>
      <trkpt lat="43.52434" lon="3.46366">
        <ele>27.05</ele>
        <time>2014-05-18T13:06:21Z</time>
      </trkpt>
      <trkpt lat="43.52434" lon="3.46365">
        <ele>25.61</ele>
        <time>2014-05-18T13:06:53Z</time>
      </trkpt>
      <trkpt lat="43.52435" lon="3.46365">
        <ele>25.13</ele>
        <time>2014-05-18T13:07:25Z</time>
      </trkpt>
      <trkpt lat="43.52437" lon="3.46364">
        <ele>24.65</ele>
        <time>2014-05-18T13:07:52Z</time>
      </trkpt>
      <trkpt lat="43.52437" lon="3.46364">
        <ele>24.65</ele>
        <time>2014-05-18T13:08:26Z</time>
      </trkpt>
      <trkpt lat="43.52438" lon="3.46365">
        <ele>24.17</ele>
        <time>2014-05-18T13:09:00Z</time>
      </trkpt>
      <trkpt lat="43.52439" lon="3.46364">
        <ele>23.21</ele>
        <time>2014-05-18T13:09:35Z</time>
      </trkpt>
      <trkpt lat="43.52439" lon="3.46364">
        <ele>22.25</ele>
        <time>2014-05-18T13:10:09Z</time>
      </trkpt>
      <trkpt lat="43.5244" lon="3.46364">
        <ele>22.73</ele>
        <time>2014-05-18T13:10:48Z</time>
      </trkpt>
      <trkpt lat="43.52442" lon="3.46364">
        <ele>22.73</ele>
        <time>2014-05-18T13:11:21Z</time>
      </trkpt>
      <trkpt lat="43.52442" lon="3.46363">
        <ele>22.25</ele>
        <time>2014-05-18T13:12:02Z</time>
      </trkpt>
      <trkpt lat="43.52442" lon="3.46362">
        <ele>22.73</ele>
        <time>2014-05-18T13:12:41Z</time>
      </trkpt>
      <trkpt lat="43.52443" lon="3.4636">
        <ele>22.73</ele>
        <time>2014-05-18T13:13:17Z</time>
      </trkpt>
      <trkpt lat="43.52443" lon="3.46361">
        <ele>24.17</ele>
        <time>2014-05-18T13:13:58Z</time>
      </trkpt>
      <trkpt lat="43.52443" lon="3.4636">
        <ele>25.13</ele>
        <time>2014-05-18T13:14:28Z</time>
      </trkpt>
      <trkpt lat="43.52443" lon="3.4636">
        <ele>25.13</ele>
        <time>2014-05-18T13:14:57Z</time>
      </trkpt>
      <trkpt lat="43.52444" lon="3.4636">
        <ele>25.13</ele>
        <time>2014-05-18T13:15:30Z</time>
      </trkpt>
      <trkpt lat="43.52444" lon="3.4636">
        <ele>24.65</ele>
        <time>2014-05-18T13:15:56Z</time>
      </trkpt>
      <trkpt lat="43.52443" lon="3.46361">
        <ele>24.65</ele>
        <time>2014-05-18T13:16:34Z</time>
      </trkpt>
      <trkpt lat="43.52442" lon="3.46361">
        <ele>24.65</ele>
        <time>2014-05-18T13:17:09Z</time>
      </trkpt>
      <trkpt lat="43.52441" lon="3.46362">
        <ele>26.09</ele>
        <time>2014-05-18T13:17:42Z</time>
      </trkpt>
      <trkpt lat="43.52441" lon="3.46362">
        <ele>26.57</ele>
        <time>2014-05-18T13:18:13Z</time>
      </trkpt>
      <trkpt lat="43.52441" lon="3.46362">
        <ele>26.09</ele>
        <time>2014-05-18T13:18:43Z</time>
      </trkpt>
      <trkpt lat="43.52442" lon="3.46362">
        <ele>25.61</ele>
        <time>2014-05-18T13:19:19Z</time>
      </trkpt>
      <trkpt lat="43.52442" lon="3.46362">
        <ele>24.17</ele>
        <time>2014-05-18T13:19:51Z</time>
      </trkpt>
      <trkpt lat="43.52442" lon="3.4636">
        <ele>24.65</ele>
        <time>2014-05-18T13:20:29Z</time>
      </trkpt>
      <trkpt lat="43.52442" lon="3.46361">
        <ele>24.17</ele>
        <time>2014-05-18T13:21:00Z</time>
      </trkpt>
      <trkpt lat="43.52442" lon="3.46359">
        <ele>23.69</ele>
        <time>2014-05-18T13:21:33Z</time>
      </trkpt>
      <trkpt lat="43.52441" lon="3.46357">
        <ele>23.69</ele>
        <time>2014-05-18T13:22:07Z</time>
      </trkpt>
      <trkpt lat="43.52441" lon="3.46357">
        <ele>22.73</ele>
        <time>2014-05-18T13:22:49Z</time>
      </trkpt>
      <trkpt lat="43.52439" lon="3.46356">
        <ele>22.73</ele>
        <time>2014-05-18T13:23:30Z</time>
      </trkpt>
      <trkpt lat="43.52438" lon="3.46355">
        <ele>22.73</ele>
        <time>2014-05-18T13:24:09Z</time>
      </trkpt>
      <trkpt lat="43.52437" lon="3.46354">
        <ele>21.77</ele>
        <time>2014-05-18T13:24:46Z</time>
      </trkpt>
      <trkpt lat="43.52436" lon="3.46353">
        <ele>21.29</ele>
        <time>2014-05-18T13:25:22Z</time>
      </trkpt>
      <trkpt lat="43.52435" lon="3.46354">
        <ele>21.77</ele>
        <time>2014-05-18T13:25:54Z</time>
      </trkpt>
      <trkpt lat="43.52435" lon="3.46353">
        <ele>22.73</ele>
        <time>2014-05-18T13:26:31Z</time>
      </trkpt>
      <trkpt lat="43.52436" lon="3.46353">
        <ele>23.69</ele>
        <time>2014-05-18T13:27:10Z</time>
      </trkpt>
      <trkpt lat="43.52436" lon="3.46354">
        <ele>24.65</ele>
        <time>2014-05-18T13:27:43Z</time>
      </trkpt>
      <trkpt lat="43.52435" lon="3.46355">
        <ele>24.65</ele>
        <time>2014-05-18T13:28:22Z</time>
      </trkpt>
      <trkpt lat="43.52435" lon="3.46355">
        <ele>24.65</ele>
        <time>2014-05-18T13:28:52Z</time>
      </trkpt>
      <trkpt lat="43.52435" lon="3.46354">
        <ele>25.13</ele>
        <time>2014-05-18T13:29:22Z</time>
      </trkpt>
      <trkpt lat="43.52435" lon="3.46354">
        <ele>26.57</ele>
        <time>2014-05-18T13:29:57Z</time>
      </trkpt>
      <trkpt lat="43.52436" lon="3.46355">
        <ele>28.5</ele>
        <time>2014-05-18T13:30:33Z</time>
      </trkpt>
      <trkpt lat="43.52439" lon="3.46357">
        <ele>30.9</ele>
        <time>2014-05-18T13:31:15Z</time>
      </trkpt>
      <trkpt lat="43.5244" lon="3.46358">
        <ele>32.34</ele>
        <time>2014-05-18T13:31:56Z</time>
      </trkpt>
      <trkpt lat="43.5244" lon="3.46359">
        <ele>33.3</ele>
        <time>2014-05-18T13:32:27Z</time>
      </trkpt>
      <trkpt lat="43.5244" lon="3.46359">
        <ele>32.82</ele>
        <time>2014-05-18T13:33:00Z</time>
      </trkpt>
      <trkpt lat="43.5244" lon="3.46358">
        <ele>31.86</ele>
        <time>2014-05-18T13:33:36Z</time>
      </trkpt>
      <trkpt lat="43.52439" lon="3.46358">
        <ele>31.86</ele>
        <time>2014-05-18T13:34:10Z</time>
      </trkpt>
      <trkpt lat="43.52439" lon="3.46357">
        <ele>30.42</ele>
        <time>2014-05-18T13:34:41Z</time>
      </trkpt>
      <trkpt lat="43.52438" lon="3.46356">
        <ele>28.5</ele>
        <time>2014-05-18T13:35:15Z</time>
      </trkpt>
      <trkpt lat="43.52436" lon="3.46354">
        <ele>26.57</ele>
        <time>2014-05-18T13:35:58Z</time>
      </trkpt>
      <trkpt lat="43.52435" lon="3.46352">
        <ele>23.21</ele>
        <time>2014-05-18T13:36:34Z</time>
      </trkpt>
      <trkpt lat="43.52435" lon="3.46351">
        <ele>20.81</ele>
        <time>2014-05-18T13:37:09Z</time>
      </trkpt>
      <trkpt lat="43.52435" lon="3.46351">
        <ele>19.36</ele>
        <time>2014-05-18T13:37:39Z</time>
      </trkpt>
      <trkpt lat="43.52436" lon="3.4635">
        <ele>17.92</ele>
        <time>2014-05-18T13:38:16Z</time>
      </trkpt>
      <trkpt lat="43.52438" lon="3.46349">
        <ele>17.92</ele>
        <time>2014-05-18T13:38:50Z</time>
      </trkpt>
      <trkpt lat="43.52438" lon="3.46348">
        <ele>16.96</ele>
        <time>2014-05-18T13:39:27Z</time>
      </trkpt>
      <trkpt lat="43.52438" lon="3.46347">
        <ele>18.4</ele>
        <time>2014-05-18T13:40:03Z</time>
      </trkpt>
      <trkpt lat="43.52438" lon="3.46344">
        <ele>20.32</ele>
        <time>2014-05-18T13:40:40Z</time>
      </trkpt>
      <trkpt lat="43.52437" lon="3.46344">
        <ele>20.81</ele>
        <time>2014-05-18T13:41:20Z</time>
      </trkpt>
      <trkpt lat="43.52438" lon="3.46344">
        <ele>21.29</ele>
        <time>2014-05-18T13:41:55Z</time>
      </trkpt>
      <trkpt lat="43.52438" lon="3.46343">
        <ele>21.29</ele>
        <time>2014-05-18T13:42:27Z</time>
      </trkpt>
      <trkpt lat="43.52438" lon="3.46344">
        <ele>21.29</ele>
        <time>2014-05-18T13:42:58Z</time>
      </trkpt>
      <trkpt lat="43.52439" lon="3.46344">
        <ele>21.77</ele>
        <time>2014-05-18T13:43:28Z</time>
      </trkpt>
      <trkpt lat="43.52439" lon="3.46348">
        <ele>25.13</ele>
        <time>2014-05-18T13:44:05Z</time>
      </trkpt>
      <trkpt lat="43.52439" lon="3.46351">
        <ele>27.53</ele>
        <time>2014-05-18T13:44:41Z</time>
      </trkpt>
      <trkpt lat="43.5244" lon="3.46352">
        <ele>31.38</ele>
        <time>2014-05-18T13:45:18Z</time>
      </trkpt>
      <trkpt lat="43.5244" lon="3.46355">
        <ele>33.78</ele>
        <time>2014-05-18T13:45:55Z</time>
      </trkpt>
      <trkpt lat="43.5244" lon="3.46357">
        <ele>34.26</ele>
        <time>2014-05-18T13:46:27Z</time>
      </trkpt>
      <trkpt lat="43.5244" lon="3.46357">
        <ele>33.78</ele>
        <time>2014-05-18T13:47:02Z</time>
      </trkpt>
      <trkpt lat="43.52441" lon="3.46358">
        <ele>31.86</ele>
        <time>2014-05-18T13:47:34Z</time>
      </trkpt>
      <trkpt lat="43.52442" lon="3.46359">
        <ele>29.46</ele>
        <time>2014-05-18T13:48:10Z</time>
      </trkpt>
      <trkpt lat="43.52442" lon="3.46359">
        <ele>28.5</ele>
        <time>2014-05-18T13:48:51Z</time>
      </trkpt>
      <trkpt lat="43.52442" lon="3.46359">
        <ele>27.05</ele>
        <time>2014-05-18T13:49:22Z</time>
      </trkpt>
      <trkpt lat="43.52441" lon="3.46358">
        <ele>26.09</ele>
        <time>2014-05-18T13:49:54Z</time>
      </trkpt>
      <trkpt lat="43.5244" lon="3.46357">
        <ele>26.09</ele>
        <time>2014-05-18T13:50:28Z</time>
      </trkpt>
      <trkpt lat="43.52439" lon="3.46357">
        <ele>27.05</ele>
        <time>2014-05-18T13:50:56Z</time>
      </trkpt>
      <trkpt lat="43.52438" lon="3.46357">
        <ele>28.5</ele>
        <time>2014-05-18T13:51:28Z</time>
      </trkpt>
      <trkpt lat="43.52439" lon="3.46357">
        <ele>29.94</ele>
        <time>2014-05-18T13:52:01Z</time>
      </trkpt>
      <trkpt lat="43.52439" lon="3.46357">
        <ele>30.42</ele>
        <time>2014-05-18T13:52:37Z</time>
      </trkpt>
      <trkpt lat="43.52441" lon="3.46356">
        <ele>30.9</ele>
        <time>2014-05-18T13:53:18Z</time>
      </trkpt>
      <trkpt lat="43.52442" lon="3.46356">
        <ele>30.42</ele>
        <time>2014-05-18T13:53:59Z</time>
      </trkpt>
      <trkpt lat="43.52443" lon="3.46356">
        <ele>30.9</ele>
        <time>2014-05-18T13:54:32Z</time>
      </trkpt>
      <trkpt lat="43.52444" lon="3.46356">
        <ele>30.42</ele>
        <time>2014-05-18T13:55:02Z</time>
      </trkpt>
      <trkpt lat="43.52445" lon="3.46357">
        <ele>29.46</ele>
        <time>2014-05-18T13:55:44Z</time>
      </trkpt>
      <trkpt lat="43.52447" lon="3.46358">
        <ele>28.98</ele>
        <time>2014-05-18T13:56:16Z</time>
      </trkpt>
      <trkpt lat="43.52448" lon="3.46358">
        <ele>28.02</ele>
        <time>2014-05-18T13:56:46Z</time>
      </trkpt>
      <trkpt lat="43.52448" lon="3.46359">
        <ele>26.57</ele>
        <time>2014-05-18T13:57:20Z</time>
      </trkpt>
      <trkpt lat="43.52449" lon="3.46358">
        <ele>24.65</ele>
        <time>2014-05-18T13:57:53Z</time>
      </trkpt>
      <trkpt lat="43.52449" lon="3.46358">
        <ele>21.29</ele>
        <time>2014-05-18T13:58:36Z</time>
      </trkpt>
      <trkpt lat="43.52448" lon="3.46358">
        <ele>21.77</ele>
        <time>2014-05-18T13:59:16Z</time>
      </trkpt>
      <trkpt lat="43.52446" lon="3.46358">
        <ele>22.25</ele>
        <time>2014-05-18T13:59:45Z</time>
      </trkpt>
      <trkpt lat="43.52444" lon="3.46359">
        <ele>25.13</ele>
        <time>2014-05-18T14:00:22Z</time>
      </trkpt>
      <trkpt lat="43.52442" lon="3.46359">
        <ele>28.02</ele>
        <time>2014-05-18T14:00:59Z</time>
      </trkpt>
      <trkpt lat="43.52442" lon="3.46358">
        <ele>30.9</ele>
        <time>2014-05-18T14:01:44Z</time>
      </trkpt>
      <trkpt lat="43.52442" lon="3.46358">
        <ele>31.38</ele>
        <time>2014-05-18T14:02:18Z</time>
      </trkpt>
      <trkpt lat="43.52442" lon="3.46358">
        <ele>30.42</ele>
        <time>2014-05-18T14:02:53Z</time>
      </trkpt>
      <trkpt lat="43.52443" lon="3.46358">
        <ele>28.98</ele>
        <time>2014-05-18T14:03:38Z</time>
      </trkpt>
      <trkpt lat="43.52443" lon="3.46358">
        <ele>28.5</ele>
        <time>2014-05-18T14:04:17Z</time>
      </trkpt>
      <trkpt lat="43.52442" lon="3.46358">
        <ele>27.53</ele>
        <time>2014-05-18T14:04:50Z</time>
      </trkpt>
      <trkpt lat="43.52442" lon="3.46358">
        <ele>27.53</ele>
        <time>2014-05-18T14:05:21Z</time>
      </trkpt>
      <trkpt lat="43.52442" lon="3.46358">
        <ele>28.02</ele>
        <time>2014-05-18T14:05:58Z</time>
      </trkpt>
      <trkpt lat="43.52441" lon="3.46358">
        <ele>28.98</ele>
        <time>2014-05-18T14:06:37Z</time>
      </trkpt>
      <trkpt lat="43.52441" lon="3.46358">
        <ele>29.46</ele>
        <time>2014-05-18T14:07:13Z</time>
      </trkpt>
      <trkpt lat="43.5244" lon="3.46357">
        <ele>29.94</ele>
        <time>2014-05-18T14:07:47Z</time>
      </trkpt>
      <trkpt lat="43.5244" lon="3.46356">
        <ele>29.46</ele>
        <time>2014-05-18T14:08:23Z</time>
      </trkpt>
      <trkpt lat="43.52439" lon="3.46356">
        <ele>28.98</ele>
        <time>2014-05-18T14:08:51Z</time>
      </trkpt>
      <trkpt lat="43.52439" lon="3.46355">
        <ele>27.53</ele>
        <time>2014-05-18T14:09:22Z</time>
      </trkpt>
      <trkpt lat="43.52438" lon="3.46353">
        <ele>25.61</ele>
        <time>2014-05-18T14:09:53Z</time>
      </trkpt>
      <trkpt lat="43.52437" lon="3.46353">
        <ele>24.65</ele>
        <time>2014-05-18T14:10:21Z</time>
      </trkpt>
      <trkpt lat="43.52436" lon="3.46353">
        <ele>24.17</ele>
        <time>2014-05-18T14:10:46Z</time>
      </trkpt>
      <trkpt lat="43.52436" lon="3.46352">
        <ele>23.69</ele>
        <time>2014-05-18T14:11:10Z</time>
      </trkpt>
      <trkpt lat="43.52436" lon="3.46352">
        <ele>23.69</ele>
        <time>2014-05-18T14:11:36Z</time>
      </trkpt>
      <trkpt lat="43.52437" lon="3.46352">
        <ele>23.69</ele>
        <time>2014-05-18T14:11:52Z</time>
      </trkpt>
      <trkpt lat="43.52437" lon="3.46352">
        <ele>24.17</ele>
        <time>2014-05-18T14:12:26Z</time>
      </trkpt>
      <trkpt lat="43.52437" lon="3.46352">
        <ele>24.17</ele>
        <time>2014-05-18T14:12:57Z</time>
      </trkpt>
      <trkpt lat="43.52437" lon="3.46352">
        <ele>24.65</ele>
        <time>2014-05-18T14:13:29Z</time>
      </trkpt>
      <trkpt lat="43.52436" lon="3.46353">
        <ele>26.57</ele>
        <time>2014-05-18T14:13:59Z</time>
      </trkpt>
      <trkpt lat="43.52437" lon="3.46353">
        <ele>27.53</ele>
        <time>2014-05-18T14:14:31Z</time>
      </trkpt>
      <trkpt lat="43.52437" lon="3.46354">
        <ele>28.02</ele>
        <time>2014-05-18T14:15:04Z</time>
      </trkpt>
      <trkpt lat="43.52438" lon="3.46356">
        <ele>29.94</ele>
        <time>2014-05-18T14:15:31Z</time>
      </trkpt>
      <trkpt lat="43.52438" lon="3.46357">
        <ele>31.38</ele>
        <time>2014-05-18T14:16:06Z</time>
      </trkpt>
      <trkpt lat="43.52438" lon="3.46357">
        <ele>33.3</ele>
        <time>2014-05-18T14:16:36Z</time>
      </trkpt>
      <trkpt lat="43.52439" lon="3.46358">
        <ele>34.26</ele>
        <time>2014-05-18T14:17:08Z</time>
      </trkpt>
      <trkpt lat="43.52439" lon="3.46358">
        <ele>35.23</ele>
        <time>2014-05-18T14:17:41Z</time>
      </trkpt>
      <trkpt lat="43.52439" lon="3.46359">
        <ele>36.19</ele>
        <time>2014-05-18T14:18:04Z</time>
      </trkpt>
      <trkpt lat="43.52439" lon="3.46358">
        <ele>35.71</ele>
        <time>2014-05-18T14:18:40Z</time>
      </trkpt>
      <trkpt lat="43.52439" lon="3.46358">
        <ele>35.23</ele>
        <time>2014-05-18T14:19:10Z</time>
      </trkpt>
      <trkpt lat="43.5244" lon="3.46357">
        <ele>34.74</ele>
        <time>2014-05-18T14:19:35Z</time>
      </trkpt>
      <trkpt lat="43.52441" lon="3.46357">
        <ele>32.34</ele>
        <time>2014-05-18T14:20:13Z</time>
      </trkpt>
      <trkpt lat="43.52442" lon="3.46357">
        <ele>30.42</ele>
        <time>2014-05-18T14:20:37Z</time>
      </trkpt>
      <trkpt lat="43.52442" lon="3.46357">
        <ele>29.94</ele>
        <time>2014-05-18T14:21:12Z</time>
      </trkpt>
      <trkpt lat="43.52441" lon="3.46358">
        <ele>30.42</ele>
        <time>2014-05-18T14:21:49Z</time>
      </trkpt>
      <trkpt lat="43.52441" lon="3.46358">
        <ele>30.9</ele>
        <time>2014-05-18T14:22:13Z</time>
      </trkpt>
      <trkpt lat="43.5244" lon="3.46359">
        <ele>31.38</ele>
        <time>2014-05-18T14:22:51Z</time>
      </trkpt>
      <trkpt lat="43.5244" lon="3.46358">
        <ele>30.9</ele>
        <time>2014-05-18T14:23:20Z</time>
      </trkpt>
      <trkpt lat="43.5244" lon="3.46358">
        <ele>31.38</ele>
        <time>2014-05-18T14:23:58Z</time>
      </trkpt>
      <trkpt lat="43.5244" lon="3.46358">
        <ele>31.86</ele>
        <time>2014-05-18T14:24:21Z</time>
      </trkpt>
      <trkpt lat="43.5244" lon="3.46357">
        <ele>31.38</ele>
        <time>2014-05-18T14:24:50Z</time>
      </trkpt>
      <trkpt lat="43.52441" lon="3.46356">
        <ele>31.86</ele>
        <time>2014-05-18T14:25:28Z</time>
      </trkpt>
      <trkpt lat="43.52441" lon="3.46355">
        <ele>31.38</ele>
        <time>2014-05-18T14:25:52Z</time>
      </trkpt>
      <trkpt lat="43.52443" lon="3.46354">
        <ele>30.42</ele>
        <time>2014-05-18T14:26:29Z</time>
      </trkpt>
      <trkpt lat="43.52443" lon="3.46354">
        <ele>29.94</ele>
        <time>2014-05-18T14:26:53Z</time>
      </trkpt>
      <trkpt lat="43.52444" lon="3.46355">
        <ele>29.46</ele>
        <time>2014-05-18T14:27:23Z</time>
      </trkpt>
      <trkpt lat="43.52444" lon="3.46356">
        <ele>28.98</ele>
        <time>2014-05-18T14:27:47Z</time>
      </trkpt>
      <trkpt lat="43.52444" lon="3.46356">
        <ele>28.98</ele>
        <time>2014-05-18T14:28:15Z</time>
      </trkpt>
      <trkpt lat="43.52443" lon="3.46357">
        <ele>29.94</ele>
        <time>2014-05-18T14:28:50Z</time>
      </trkpt>
      <trkpt lat="43.52442" lon="3.46358">
        <ele>31.86</ele>
        <time>2014-05-18T14:29:18Z</time>
      </trkpt>
      <trkpt lat="43.52441" lon="3.46359">
        <ele>33.78</ele>
        <time>2014-05-18T14:29:48Z</time>
      </trkpt>
      <trkpt lat="43.5244" lon="3.46359">
        <ele>35.71</ele>
        <time>2014-05-18T14:30:23Z</time>
      </trkpt>
      <trkpt lat="43.5244" lon="3.46359">
        <ele>37.15</ele>
        <time>2014-05-18T14:31:01Z</time>
      </trkpt>
      <trkpt lat="43.5244" lon="3.46359">
        <ele>38.11</ele>
        <time>2014-05-18T14:31:31Z</time>
      </trkpt>
      <trkpt lat="43.5244" lon="3.46358">
        <ele>37.63</ele>
        <time>2014-05-18T14:31:56Z</time>
      </trkpt>
      <trkpt lat="43.5244" lon="3.46359">
        <ele>37.63</ele>
        <time>2014-05-18T14:32:26Z</time>
      </trkpt>
      <trkpt lat="43.52441" lon="3.46359">
        <ele>36.67</ele>
        <time>2014-05-18T14:32:58Z</time>
      </trkpt>
      <trkpt lat="43.52441" lon="3.46358">
        <ele>35.23</ele>
        <time>2014-05-18T14:33:22Z</time>
      </trkpt>
      <trkpt lat="43.52442" lon="3.46358">
        <ele>33.3</ele>
        <time>2014-05-18T14:33:50Z</time>
      </trkpt>
      <trkpt lat="43.52443" lon="3.46358">
        <ele>31.86</ele>
        <time>2014-05-18T14:34:21Z</time>
      </trkpt>
      <trkpt lat="43.52443" lon="3.46357">
        <ele>30.9</ele>
        <time>2014-05-18T14:34:51Z</time>
      </trkpt>
      <trkpt lat="43.52443" lon="3.46357">
        <ele>30.42</ele>
        <time>2014-05-18T14:35:18Z</time>
      </trkpt>
      <trkpt lat="43.52442" lon="3.46357">
        <ele>30.42</ele>
        <time>2014-05-18T14:35:43Z</time>
      </trkpt>
      <trkpt lat="43.52442" lon="3.46358">
        <ele>29.46</ele>
        <time>2014-05-18T14:36:07Z</time>
      </trkpt>
      <trkpt lat="43.52441" lon="3.46359">
        <ele>30.42</ele>
        <time>2014-05-18T14:36:31Z</time>
      </trkpt>
      <trkpt lat="43.52441" lon="3.46359">
        <ele>30.42</ele>
        <time>2014-05-18T14:36:50Z</time>
      </trkpt>
      <trkpt lat="43.5244" lon="3.46359">
        <ele>32.34</ele>
        <time>2014-05-18T14:37:20Z</time>
      </trkpt>
      <trkpt lat="43.52439" lon="3.4636">
        <ele>32.82</ele>
        <time>2014-05-18T14:37:40Z</time>
      </trkpt>
      <trkpt lat="43.52439" lon="3.4636">
        <ele>33.3</ele>
        <time>2014-05-18T14:38:10Z</time>
      </trkpt>
      <trkpt lat="43.5244" lon="3.46359">
        <ele>33.78</ele>
        <time>2014-05-18T14:38:38Z</time>
      </trkpt>
      <trkpt lat="43.5244" lon="3.46359">
        <ele>34.26</ele>
        <time>2014-05-18T14:38:59Z</time>
      </trkpt>
      <trkpt lat="43.52441" lon="3.46361">
        <ele>35.71</ele>
        <time>2014-05-18T14:39:32Z</time>
      </trkpt>
      <trkpt lat="43.52441" lon="3.46361">
        <ele>35.71</ele>
        <time>2014-05-18T14:39:59Z</time>
      </trkpt>
      <trkpt lat="43.52441" lon="3.46361">
        <ele>35.23</ele>
        <time>2014-05-18T14:40:20Z</time>
      </trkpt>
      <trkpt lat="43.52441" lon="3.46361">
        <ele>34.26</ele>
        <time>2014-05-18T14:40:53Z</time>
      </trkpt>
      <trkpt lat="43.52442" lon="3.4636">
        <ele>32.82</ele>
        <time>2014-05-18T14:41:25Z</time>
      </trkpt>
      <trkpt lat="43.52441" lon="3.4636">
        <ele>32.34</ele>
        <time>2014-05-18T14:41:57Z</time>
      </trkpt>
      <trkpt lat="43.52441" lon="3.46361">
        <ele>31.38</ele>
        <time>2014-05-18T14:42:30Z</time>
      </trkpt>
      <trkpt lat="43.52441" lon="3.46361">
        <ele>30.42</ele>
        <time>2014-05-18T14:42:58Z</time>
      </trkpt>
      <trkpt lat="43.52442" lon="3.46361">
        <ele>30.42</ele>
        <time>2014-05-18T14:43:30Z</time>
      </trkpt>
      <trkpt lat="43.52443" lon="3.4636">
        <ele>30.9</ele>
        <time>2014-05-18T14:44:01Z</time>
      </trkpt>
      <trkpt lat="43.52444" lon="3.46359">
        <ele>30.9</ele>
        <time>2014-05-18T14:44:30Z</time>
      </trkpt>
      <trkpt lat="43.52445" lon="3.46359">
        <ele>29.94</ele>
        <time>2014-05-18T14:45:03Z</time>
      </trkpt>
      <trkpt lat="43.52446" lon="3.46358">
        <ele>28.5</ele>
        <time>2014-05-18T14:45:36Z</time>
      </trkpt>
      <trkpt lat="43.52447" lon="3.46357">
        <ele>27.53</ele>
        <time>2014-05-18T14:46:07Z</time>
      </trkpt>
      <trkpt lat="43.52447" lon="3.46357">
        <ele>26.09</ele>
        <time>2014-05-18T14:46:36Z</time>
      </trkpt>
      <trkpt lat="43.52447" lon="3.46357">
        <ele>24.65</ele>
        <time>2014-05-18T14:47:08Z</time>
      </trkpt>
      <trkpt lat="43.52448" lon="3.46357">
        <ele>24.17</ele>
        <time>2014-05-18T14:47:46Z</time>
      </trkpt>
      <trkpt lat="43.52447" lon="3.46358">
        <ele>25.61</ele>
        <time>2014-05-18T14:48:16Z</time>
      </trkpt>
      <trkpt lat="43.52447" lon="3.46359">
        <ele>26.09</ele>
        <time>2014-05-18T14:48:50Z</time>
      </trkpt>
      <trkpt lat="43.52448" lon="3.4636">
        <ele>27.05</ele>
        <time>2014-05-18T14:49:16Z</time>
      </trkpt>
      <trkpt lat="43.52447" lon="3.4636">
        <ele>28.5</ele>
        <time>2014-05-18T14:49:40Z</time>
      </trkpt>
      <trkpt lat="43.52447" lon="3.46361">
        <ele>30.42</ele>
        <time>2014-05-18T14:50:07Z</time>
      </trkpt>
      <trkpt lat="43.52445" lon="3.46362">
        <ele>34.26</ele>
        <time>2014-05-18T14:50:38Z</time>
      </trkpt>
      <trkpt lat="43.52443" lon="3.46364">
        <ele>38.11</ele>
        <time>2014-05-18T14:51:18Z</time>
      </trkpt>
      <trkpt lat="43.52443" lon="3.46364">
        <ele>41.47</ele>
        <time>2014-05-18T14:51:43Z</time>
      </trkpt>
      <trkpt lat="43.52444" lon="3.46364">
        <ele>42.44</ele>
        <time>2014-05-18T14:52:14Z</time>
      </trkpt>
      <trkpt lat="43.52444" lon="3.46364">
        <ele>43.4</ele>
        <time>2014-05-18T14:52:54Z</time>
      </trkpt>
      <trkpt lat="43.52445" lon="3.46364">
        <ele>43.4</ele>
        <time>2014-05-18T14:53:16Z</time>
      </trkpt>
      <trkpt lat="43.52445" lon="3.46364">
        <ele>43.88</ele>
        <time>2014-05-18T14:53:51Z</time>
      </trkpt>
      <trkpt lat="43.52444" lon="3.46363">
        <ele>42.92</ele>
        <time>2014-05-18T14:54:24Z</time>
      </trkpt>
      <trkpt lat="43.52445" lon="3.46361">
        <ele>40.99</ele>
        <time>2014-05-18T14:54:49Z</time>
      </trkpt>
      <trkpt lat="43.52445" lon="3.4636">
        <ele>39.55</ele>
        <time>2014-05-18T14:55:20Z</time>
      </trkpt>
      <trkpt lat="43.52445" lon="3.46359">
        <ele>39.07</ele>
        <time>2014-05-18T14:55:49Z</time>
      </trkpt>
      <trkpt lat="43.52446" lon="3.46359">
        <ele>37.15</ele>
        <time>2014-05-18T14:56:30Z</time>
      </trkpt>
      <trkpt lat="43.52446" lon="3.46358">
        <ele>36.19</ele>
        <time>2014-05-18T14:57:06Z</time>
      </trkpt>
      <trkpt lat="43.52446" lon="3.46358">
        <ele>35.23</ele>
        <time>2014-05-18T14:57:38Z</time>
      </trkpt>
      <trkpt lat="43.52446" lon="3.46358">
        <ele>33.78</ele>
        <time>2014-05-18T14:58:10Z</time>
      </trkpt>
      <trkpt lat="43.52445" lon="3.46358">
        <ele>33.78</ele>
        <time>2014-05-18T14:58:38Z</time>
      </trkpt>
      <trkpt lat="43.52445" lon="3.46359">
        <ele>34.26</ele>
        <time>2014-05-18T14:59:07Z</time>
      </trkpt>
      <trkpt lat="43.52444" lon="3.46358">
        <ele>34.74</ele>
        <time>2014-05-18T14:59:39Z</time>
      </trkpt>
      <trkpt lat="43.52443" lon="3.46357">
        <ele>34.74</ele>
        <time>2014-05-18T15:00:11Z</time>
      </trkpt>
      <trkpt lat="43.52442" lon="3.46356">
        <ele>33.3</ele>
        <time>2014-05-18T15:00:43Z</time>
      </trkpt>
      <trkpt lat="43.52441" lon="3.46356">
        <ele>31.86</ele>
        <time>2014-05-18T15:01:26Z</time>
      </trkpt>
      <trkpt lat="43.5244" lon="3.46355">
        <ele>30.9</ele>
        <time>2014-05-18T15:02:07Z</time>
      </trkpt>
      <trkpt lat="43.52443" lon="3.46355">
        <ele>31.38</ele>
        <time>2014-05-18T15:02:57Z</time>
      </trkpt>
      <trkpt lat="43.52444" lon="3.46358">
        <ele>32.34</ele>
        <time>2014-05-18T15:03:43Z</time>
      </trkpt>
      <trkpt lat="43.52444" lon="3.46359">
        <ele>32.82</ele>
        <time>2014-05-18T15:04:34Z</time>
      </trkpt>
      <trkpt lat="43.52445" lon="3.46359">
        <ele>33.3</ele>
        <time>2014-05-18T15:05:22Z</time>
      </trkpt>
      <trkpt lat="43.52445" lon="3.46358">
        <ele>32.82</ele>
        <time>2014-05-18T15:06:11Z</time>
      </trkpt>
      <trkpt lat="43.52445" lon="3.46358">
        <ele>32.34</ele>
        <time>2014-05-18T15:07:00Z</time>
      </trkpt>
      <trkpt lat="43.52445" lon="3.46358">
        <ele>33.3</ele>
        <time>2014-05-18T15:07:43Z</time>
      </trkpt>
      <trkpt lat="43.52443" lon="3.46359">
        <ele>33.3</ele>
        <time>2014-05-18T15:08:29Z</time>
      </trkpt>
      <trkpt lat="43.52443" lon="3.46359">
        <ele>32.82</ele>
        <time>2014-05-18T15:09:12Z</time>
      </trkpt>
      <trkpt lat="43.52443" lon="3.4636">
        <ele>32.34</ele>
        <time>2014-05-18T15:09:49Z</time>
      </trkpt>
      <trkpt lat="43.52443" lon="3.46362">
        <ele>33.3</ele>
        <time>2014-05-18T15:10:35Z</time>
      </trkpt>
      <trkpt lat="43.52443" lon="3.46361">
        <ele>33.3</ele>
        <time>2014-05-18T15:11:04Z</time>
      </trkpt>
      <trkpt lat="43.52443" lon="3.4636">
        <ele>33.3</ele>
        <time>2014-05-18T15:11:46Z</time>
      </trkpt>
      <trkpt lat="43.52442" lon="3.46359">
        <ele>33.3</ele>
        <time>2014-05-18T15:12:16Z</time>
      </trkpt>
      <trkpt lat="43.52442" lon="3.46358">
        <ele>32.82</ele>
        <time>2014-05-18T15:12:49Z</time>
      </trkpt>
      <trkpt lat="43.52442" lon="3.46358">
        <ele>32.82</ele>
        <time>2014-05-18T15:13:28Z</time>
      </trkpt>
      <trkpt lat="43.52442" lon="3.46358">
        <ele>32.34</ele>
        <time>2014-05-18T15:14:06Z</time>
      </trkpt>
      <trkpt lat="43.52441" lon="3.46358">
        <ele>31.86</ele>
        <time>2014-05-18T15:14:39Z</time>
      </trkpt>
      <trkpt lat="43.52441" lon="3.46357">
        <ele>31.38</ele>
        <time>2014-05-18T15:15:12Z</time>
      </trkpt>
      <trkpt lat="43.52441" lon="3.46357">
        <ele>32.34</ele>
        <time>2014-05-18T15:15:53Z</time>
      </trkpt>
      <trkpt lat="43.52442" lon="3.46356">
        <ele>33.78</ele>
        <time>2014-05-18T15:16:34Z</time>
      </trkpt>
      <trkpt lat="43.52444" lon="3.46355">
        <ele>35.23</ele>
        <time>2014-05-18T15:17:18Z</time>
      </trkpt>
      <trkpt lat="43.52444" lon="3.46355">
        <ele>36.67</ele>
        <time>2014-05-18T15:18:01Z</time>
      </trkpt>
      <trkpt lat="43.52445" lon="3.46355">
        <ele>37.15</ele>
        <time>2014-05-18T15:18:38Z</time>
      </trkpt>
      <trkpt lat="43.52446" lon="3.46355">
        <ele>36.19</ele>
        <time>2014-05-18T15:19:21Z</time>
      </trkpt>
      <trkpt lat="43.52446" lon="3.46355">
        <ele>35.23</ele>
        <time>2014-05-18T15:20:03Z</time>
      </trkpt>
      <trkpt lat="43.52446" lon="3.46356">
        <ele>35.23</ele>
        <time>2014-05-18T15:20:46Z</time>
      </trkpt>
      <trkpt lat="43.52445" lon="3.46356">
        <ele>35.23</ele>
        <time>2014-05-18T15:21:13Z</time>
      </trkpt>
      <trkpt lat="43.52444" lon="3.46356">
        <ele>35.23</ele>
        <time>2014-05-18T15:21:47Z</time>
      </trkpt>
      <trkpt lat="43.52444" lon="3.46356">
        <ele>35.23</ele>
        <time>2014-05-18T15:22:17Z</time>
      </trkpt>
      <trkpt lat="43.52444" lon="3.46355">
        <ele>35.23</ele>
        <time>2014-05-18T15:22:52Z</time>
      </trkpt>
      <trkpt lat="43.52444" lon="3.46354">
        <ele>35.71</ele>
        <time>2014-05-18T15:23:29Z</time>
      </trkpt>
      <trkpt lat="43.52444" lon="3.46354">
        <ele>35.71</ele>
        <time>2014-05-18T15:23:57Z</time>
      </trkpt>
      <trkpt lat="43.52443" lon="3.46355">
        <ele>35.23</ele>
        <time>2014-05-18T15:24:25Z</time>
      </trkpt>
      <trkpt lat="43.52442" lon="3.46355">
        <ele>35.23</ele>
        <time>2014-05-18T15:25:07Z</time>
      </trkpt>
      <trkpt lat="43.52442" lon="3.46354">
        <ele>34.74</ele>
        <time>2014-05-18T15:25:43Z</time>
      </trkpt>
      <trkpt lat="43.52441" lon="3.46354">
        <ele>34.74</ele>
        <time>2014-05-18T15:26:25Z</time>
      </trkpt>
      <trkpt lat="43.52441" lon="3.46354">
        <ele>35.23</ele>
        <time>2014-05-18T15:27:09Z</time>
      </trkpt>
      <trkpt lat="43.52441" lon="3.46355">
        <ele>34.74</ele>
        <time>2014-05-18T15:27:51Z</time>
      </trkpt>
      <trkpt lat="43.52441" lon="3.46354">
        <ele>34.26</ele>
        <time>2014-05-18T15:28:32Z</time>
      </trkpt>
      <trkpt lat="43.52442" lon="3.46354">
        <ele>33.78</ele>
        <time>2014-05-18T15:29:17Z</time>
      </trkpt>
      <trkpt lat="43.52442" lon="3.46355">
        <ele>33.78</ele>
        <time>2014-05-18T15:29:58Z</time>
      </trkpt>
      <trkpt lat="43.52442" lon="3.46355">
        <ele>32.82</ele>
        <time>2014-05-18T15:30:31Z</time>
      </trkpt>
      <trkpt lat="43.52442" lon="3.46355">
        <ele>32.82</ele>
        <time>2014-05-18T15:31:10Z</time>
      </trkpt>
      <trkpt lat="43.52441" lon="3.46356">
        <ele>33.78</ele>
        <time>2014-05-18T15:31:45Z</time>
      </trkpt>
      <trkpt lat="43.52441" lon="3.46356">
        <ele>33.78</ele>
        <time>2014-05-18T15:32:31Z</time>
      </trkpt>
      <trkpt lat="43.52442" lon="3.46356">
        <ele>34.26</ele>
        <time>2014-05-18T15:33:11Z</time>
      </trkpt>
      <trkpt lat="43.52442" lon="3.46357">
        <ele>34.74</ele>
        <time>2014-05-18T15:33:57Z</time>
      </trkpt>
      <trkpt lat="43.52442" lon="3.46357">
        <ele>33.78</ele>
        <time>2014-05-18T15:34:40Z</time>
      </trkpt>
      <trkpt lat="43.52442" lon="3.46356">
        <ele>33.78</ele>
        <time>2014-05-18T15:35:18Z</time>
      </trkpt>
      <trkpt lat="43.52441" lon="3.46356">
        <ele>32.82</ele>
        <time>2014-05-18T15:35:51Z</time>
      </trkpt>
      <trkpt lat="43.52441" lon="3.46356">
        <ele>31.86</ele>
        <time>2014-05-18T15:36:32Z</time>
      </trkpt>
      <trkpt lat="43.5244" lon="3.46356">
        <ele>30.9</ele>
        <time>2014-05-18T15:37:05Z</time>
      </trkpt>
      <trkpt lat="43.5244" lon="3.46355">
        <ele>30.42</ele>
        <time>2014-05-18T15:37:39Z</time>
      </trkpt>
      <trkpt lat="43.5244" lon="3.46354">
        <ele>29.94</ele>
        <time>2014-05-18T15:38:23Z</time>
      </trkpt>
      <trkpt lat="43.5244" lon="3.46355">
        <ele>29.94</ele>
        <time>2014-05-18T15:39:00Z</time>
      </trkpt>
      <trkpt lat="43.52441" lon="3.46354">
        <ele>28.98</ele>
        <time>2014-05-18T15:39:44Z</time>
      </trkpt>
      <trkpt lat="43.52441" lon="3.46355">
        <ele>28.98</ele>
        <time>2014-05-18T15:40:30Z</time>
      </trkpt>
      <trkpt lat="43.52442" lon="3.46356">
        <ele>29.46</ele>
        <time>2014-05-18T15:41:16Z</time>
      </trkpt>
      <trkpt lat="43.52443" lon="3.46356">
        <ele>29.46</ele>
        <time>2014-05-18T15:42:02Z</time>
      </trkpt>
      <trkpt lat="43.52444" lon="3.46355">
        <ele>29.46</ele>
        <time>2014-05-18T15:42:50Z</time>
      </trkpt>
      <trkpt lat="43.52443" lon="3.46356">
        <ele>30.42</ele>
        <time>2014-05-18T15:43:35Z</time>
      </trkpt>
      <trkpt lat="43.52444" lon="3.46356">
        <ele>31.86</ele>
        <time>2014-05-18T15:44:19Z</time>
      </trkpt>
      <trkpt lat="43.52444" lon="3.46355">
        <ele>33.78</ele>
        <time>2014-05-18T15:45:00Z</time>
      </trkpt>
      <trkpt lat="43.52445" lon="3.46355">
        <ele>35.23</ele>
        <time>2014-05-18T15:45:41Z</time>
      </trkpt>
      <trkpt lat="43.52445" lon="3.46354">
        <ele>35.71</ele>
        <time>2014-05-18T15:46:26Z</time>
      </trkpt>
      <trkpt lat="43.52445" lon="3.46353">
        <ele>35.23</ele>
        <time>2014-05-18T15:47:12Z</time>
      </trkpt>
      <trkpt lat="43.52446" lon="3.46353">
        <ele>33.78</ele>
        <time>2014-05-18T15:48:04Z</time>
      </trkpt>
      <trkpt lat="43.52447" lon="3.46354">
        <ele>33.78</ele>
        <time>2014-05-18T15:48:49Z</time>
      </trkpt>
      <trkpt lat="43.52447" lon="3.46354">
        <ele>32.82</ele>
        <time>2014-05-18T15:49:29Z</time>
      </trkpt>
      <trkpt lat="43.52446" lon="3.46354">
        <ele>33.78</ele>
        <time>2014-05-18T15:50:07Z</time>
      </trkpt>
      <trkpt lat="43.52446" lon="3.46353">
        <ele>34.74</ele>
        <time>2014-05-18T15:50:42Z</time>
      </trkpt>
      <trkpt lat="43.52445" lon="3.46353">
        <ele>37.15</ele>
        <time>2014-05-18T15:51:30Z</time>
      </trkpt>
      <trkpt lat="43.52445" lon="3.46353">
        <ele>38.59</ele>
        <time>2014-05-18T15:52:10Z</time>
      </trkpt>
      <trkpt lat="43.52445" lon="3.46354">
        <ele>39.55</ele>
        <time>2014-05-18T15:52:53Z</time>
      </trkpt>
      <trkpt lat="43.52445" lon="3.46353">
        <ele>38.59</ele>
        <time>2014-05-18T15:53:38Z</time>
      </trkpt>
      <trkpt lat="43.52445" lon="3.46353">
        <ele>39.07</ele>
        <time>2014-05-18T15:54:18Z</time>
      </trkpt>
      <trkpt lat="43.52446" lon="3.46353">
        <ele>38.11</ele>
        <time>2014-05-18T15:55:01Z</time>
      </trkpt>
      <trkpt lat="43.52445" lon="3.46354">
        <ele>37.63</ele>
        <time>2014-05-18T15:55:39Z</time>
      </trkpt>
      <trkpt lat="43.52445" lon="3.46355">
        <ele>36.19</ele>
        <time>2014-05-18T15:56:27Z</time>
      </trkpt>
      <trkpt lat="43.52445" lon="3.46355">
        <ele>36.19</ele>
        <time>2014-05-18T15:57:11Z</time>
      </trkpt>
      <trkpt lat="43.52444" lon="3.46356">
        <ele>36.67</ele>
        <time>2014-05-18T15:57:52Z</time>
      </trkpt>
      <trkpt lat="43.52444" lon="3.46356">
        <ele>38.11</ele>
        <time>2014-05-18T15:58:33Z</time>
      </trkpt>
      <trkpt lat="43.52444" lon="3.46356">
        <ele>37.63</ele>
        <time>2014-05-18T15:59:18Z</time>
      </trkpt>
      <trkpt lat="43.52444" lon="3.46356">
        <ele>35.71</ele>
        <time>2014-05-18T15:59:56Z</time>
      </trkpt>
      <trkpt lat="43.52444" lon="3.46356">
        <ele>33.78</ele>
        <time>2014-05-18T16:00:43Z</time>
      </trkpt>
      <trkpt lat="43.52443" lon="3.46357">
        <ele>32.34</ele>
        <time>2014-05-18T16:01:24Z</time>
      </trkpt>
      <trkpt lat="43.52441" lon="3.46357">
        <ele>31.38</ele>
        <time>2014-05-18T16:02:04Z</time>
      </trkpt>
      <trkpt lat="43.5244" lon="3.46357">
        <ele>30.42</ele>
        <time>2014-05-18T16:02:44Z</time>
      </trkpt>
      <trkpt lat="43.5244" lon="3.46357">
        <ele>28.98</ele>
        <time>2014-05-18T16:03:27Z</time>
      </trkpt>
      <trkpt lat="43.52438" lon="3.46357">
        <ele>28.5</ele>
        <time>2014-05-18T16:04:09Z</time>
      </trkpt>
      <trkpt lat="43.52438" lon="3.46356">
        <ele>28.98</ele>
        <time>2014-05-18T16:04:48Z</time>
      </trkpt>
      <trkpt lat="43.52437" lon="3.46356">
        <ele>28.98</ele>
        <time>2014-05-18T16:05:28Z</time>
      </trkpt>
      <trkpt lat="43.52437" lon="3.46355">
        <ele>29.46</ele>
        <time>2014-05-18T16:06:08Z</time>
      </trkpt>
      <trkpt lat="43.52437" lon="3.46356">
        <ele>29.46</ele>
        <time>2014-05-18T16:06:43Z</time>
      </trkpt>
      <trkpt lat="43.52437" lon="3.46356">
        <ele>29.46</ele>
        <time>2014-05-18T16:07:15Z</time>
      </trkpt>
      <trkpt lat="43.52437" lon="3.46355">
        <ele>29.46</ele>
        <time>2014-05-18T16:07:51Z</time>
      </trkpt>
      <trkpt lat="43.52437" lon="3.46355">
        <ele>29.94</ele>
        <time>2014-05-18T16:08:26Z</time>
      </trkpt>
      <trkpt lat="43.52438" lon="3.46354">
        <ele>31.38</ele>
        <time>2014-05-18T16:09:08Z</time>
      </trkpt>
      <trkpt lat="43.52438" lon="3.46354">
        <ele>31.38</ele>
        <time>2014-05-18T16:09:47Z</time>
      </trkpt>
      <trkpt lat="43.52439" lon="3.46355">
        <ele>31.86</ele>
        <time>2014-05-18T16:10:22Z</time>
      </trkpt>
      <trkpt lat="43.52439" lon="3.46356">
        <ele>32.82</ele>
        <time>2014-05-18T16:11:02Z</time>
      </trkpt>
      <trkpt lat="43.5244" lon="3.46355">
        <ele>34.74</ele>
        <time>2014-05-18T16:11:41Z</time>
      </trkpt>
      <trkpt lat="43.52442" lon="3.46355">
        <ele>36.67</ele>
        <time>2014-05-18T16:12:25Z</time>
      </trkpt>
      <trkpt lat="43.52443" lon="3.46354">
        <ele>39.07</ele>
        <time>2014-05-18T16:13:10Z</time>
      </trkpt>
      <trkpt lat="43.52444" lon="3.46355">
        <ele>40.51</ele>
        <time>2014-05-18T16:13:53Z</time>
      </trkpt>
      <trkpt lat="43.52445" lon="3.46357">
        <ele>41.47</ele>
        <time>2014-05-18T16:14:27Z</time>
      </trkpt>
      <trkpt lat="43.52446" lon="3.46358">
        <ele>42.44</ele>
        <time>2014-05-18T16:15:01Z</time>
      </trkpt>
      <trkpt lat="43.52446" lon="3.46358">
        <ele>42.92</ele>
        <time>2014-05-18T16:15:36Z</time>
      </trkpt>
      <trkpt lat="43.52445" lon="3.46358">
        <ele>43.4</ele>
        <time>2014-05-18T16:16:10Z</time>
      </trkpt>
      <trkpt lat="43.52444" lon="3.46359">
        <ele>43.88</ele>
        <time>2014-05-18T16:16:47Z</time>
      </trkpt>
      <trkpt lat="43.52444" lon="3.46361">
        <ele>43.88</ele>
        <time>2014-05-18T16:17:19Z</time>
      </trkpt>
      <trkpt lat="43.52445" lon="3.46361">
        <ele>44.84</ele>
        <time>2014-05-18T16:17:57Z</time>
      </trkpt>
      <trkpt lat="43.52445" lon="3.46361">
        <ele>44.84</ele>
        <time>2014-05-18T16:18:26Z</time>
      </trkpt>
      <trkpt lat="43.52446" lon="3.46361">
        <ele>44.84</ele>
        <time>2014-05-18T16:18:56Z</time>
      </trkpt>
      <trkpt lat="43.52446" lon="3.46362">
        <ele>44.36</ele>
        <time>2014-05-18T16:19:23Z</time>
      </trkpt>
      <trkpt lat="43.52445" lon="3.46362">
        <ele>43.88</ele>
        <time>2014-05-18T16:19:51Z</time>
      </trkpt>
      <trkpt lat="43.52443" lon="3.46362">
        <ele>42.92</ele>
        <time>2014-05-18T16:20:24Z</time>
      </trkpt>
      <trkpt lat="43.52442" lon="3.46362">
        <ele>41.95</ele>
        <time>2014-05-18T16:20:59Z</time>
      </trkpt>
      <trkpt lat="43.52441" lon="3.46363">
        <ele>41.47</ele>
        <time>2014-05-18T16:21:25Z</time>
      </trkpt>
      <trkpt lat="43.5244" lon="3.46363">
        <ele>41.47</ele>
        <time>2014-05-18T16:21:59Z</time>
      </trkpt>
      <trkpt lat="43.5244" lon="3.46364">
        <ele>41.95</ele>
        <time>2014-05-18T16:22:25Z</time>
      </trkpt>
      <trkpt lat="43.52441" lon="3.46365">
        <ele>42.92</ele>
        <time>2014-05-18T16:22:53Z</time>
      </trkpt>
      <trkpt lat="43.52442" lon="3.46365">
        <ele>43.4</ele>
        <time>2014-05-18T16:23:28Z</time>
      </trkpt>
      <trkpt lat="43.52441" lon="3.46366">
        <ele>42.92</ele>
        <time>2014-05-18T16:24:04Z</time>
      </trkpt>
      <trkpt lat="43.52441" lon="3.46366">
        <ele>42.44</ele>
        <time>2014-05-18T16:24:27Z</time>
      </trkpt>
      <trkpt lat="43.52441" lon="3.46366">
        <ele>42.44</ele>
        <time>2014-05-18T16:24:48Z</time>
      </trkpt>
      <trkpt lat="43.52442" lon="3.46366">
        <ele>42.92</ele>
        <time>2014-05-18T16:25:32Z</time>
      </trkpt>
      <trkpt lat="43.52442" lon="3.46367">
        <ele>43.4</ele>
        <time>2014-05-18T16:26:06Z</time>
      </trkpt>
      <trkpt lat="43.52442" lon="3.46369">
        <ele>43.88</ele>
        <time>2014-05-18T16:26:40Z</time>
      </trkpt>
      <trkpt lat="43.52442" lon="3.4637">
        <ele>44.36</ele>
        <time>2014-05-18T16:27:06Z</time>
      </trkpt>
      <trkpt lat="43.52442" lon="3.46371">
        <ele>44.84</ele>
        <time>2014-05-18T16:27:47Z</time>
      </trkpt>
      <trkpt lat="43.52442" lon="3.46371">
        <ele>44.84</ele>
        <time>2014-05-18T16:28:35Z</time>
      </trkpt>
      <trkpt lat="43.52442" lon="3.46372">
        <ele>43.88</ele>
        <time>2014-05-18T16:29:07Z</time>
      </trkpt>
      <trkpt lat="43.52442" lon="3.46373">
        <ele>43.4</ele>
        <time>2014-05-18T16:29:44Z</time>
      </trkpt>
      <trkpt lat="43.52443" lon="3.46372">
        <ele>43.88</ele>
        <time>2014-05-18T16:30:20Z</time>
      </trkpt>
      <trkpt lat="43.52445" lon="3.46372">
        <ele>45.8</ele>
        <time>2014-05-18T16:31:01Z</time>
      </trkpt>
      <trkpt lat="43.52446" lon="3.46373">
        <ele>47.24</ele>
        <time>2014-05-18T16:31:37Z</time>
      </trkpt>
      <trkpt lat="43.52446" lon="3.46373">
        <ele>47.72</ele>
        <time>2014-05-18T16:32:14Z</time>
      </trkpt>
      <trkpt lat="43.52445" lon="3.46375">
        <ele>48.2</ele>
        <time>2014-05-18T16:32:58Z</time>
      </trkpt>
      <trkpt lat="43.52444" lon="3.46375">
        <ele>49.65</ele>
        <time>2014-05-18T16:33:42Z</time>
      </trkpt>
      <trkpt lat="43.52443" lon="3.46376">
        <ele>49.65</ele>
        <time>2014-05-18T16:34:24Z</time>
      </trkpt>
      <trkpt lat="43.52442" lon="3.46375">
        <ele>48.68</ele>
        <time>2014-05-18T16:35:01Z</time>
      </trkpt>
      <trkpt lat="43.52442" lon="3.46374">
        <ele>47.24</ele>
        <time>2014-05-18T16:35:45Z</time>
      </trkpt>
      <trkpt lat="43.52443" lon="3.46371">
        <ele>46.76</ele>
        <time>2014-05-18T16:36:20Z</time>
      </trkpt>
      <trkpt lat="43.52444" lon="3.46369">
        <ele>47.24</ele>
        <time>2014-05-18T16:37:05Z</time>
      </trkpt>
      <trkpt lat="43.52445" lon="3.46368">
        <ele>48.68</ele>
        <time>2014-05-18T16:37:49Z</time>
      </trkpt>
      <trkpt lat="43.52447" lon="3.46367">
        <ele>48.68</ele>
        <time>2014-05-18T16:38:29Z</time>
      </trkpt>
      <trkpt lat="43.52448" lon="3.46365">
        <ele>48.2</ele>
        <time>2014-05-18T16:39:06Z</time>
      </trkpt>
      <trkpt lat="43.52449" lon="3.46365">
        <ele>48.68</ele>
        <time>2014-05-18T16:39:40Z</time>
      </trkpt>
      <trkpt lat="43.52449" lon="3.46365">
        <ele>49.65</ele>
        <time>2014-05-18T16:40:23Z</time>
      </trkpt>
      <trkpt lat="43.5245" lon="3.46364">
        <ele>48.2</ele>
        <time>2014-05-18T16:41:02Z</time>
      </trkpt>
      <trkpt lat="43.5245" lon="3.46365">
        <ele>46.76</ele>
        <time>2014-05-18T16:41:40Z</time>
      </trkpt>
      <trkpt lat="43.5245" lon="3.46365">
        <ele>45.8</ele>
        <time>2014-05-18T16:42:14Z</time>
      </trkpt>
      <trkpt lat="43.5245" lon="3.46365">
        <ele>44.84</ele>
        <time>2014-05-18T16:42:59Z</time>
      </trkpt>
      <trkpt lat="43.5245" lon="3.46364">
        <ele>44.84</ele>
        <time>2014-05-18T16:43:28Z</time>
      </trkpt>
      <trkpt lat="43.52449" lon="3.46364">
        <ele>45.32</ele>
        <time>2014-05-18T16:44:04Z</time>
      </trkpt>
      <trkpt lat="43.52449" lon="3.46363">
        <ele>44.84</ele>
        <time>2014-05-18T16:44:43Z</time>
      </trkpt>
      <trkpt lat="43.52449" lon="3.46363">
        <ele>44.36</ele>
        <time>2014-05-18T16:45:17Z</time>
      </trkpt>
      <trkpt lat="43.52449" lon="3.46362">
        <ele>44.36</ele>
        <time>2014-05-18T16:45:55Z</time>
      </trkpt>
      <trkpt lat="43.52449" lon="3.46362">
        <ele>43.4</ele>
        <time>2014-05-18T16:46:27Z</time>
      </trkpt>
      <trkpt lat="43.52448" lon="3.46364">
        <ele>43.88</ele>
        <time>2014-05-18T16:47:14Z</time>
      </trkpt>
      <trkpt lat="43.52447" lon="3.46364">
        <ele>42.92</ele>
        <time>2014-05-18T16:47:57Z</time>
      </trkpt>
      <trkpt lat="43.52446" lon="3.46365">
        <ele>44.36</ele>
        <time>2014-05-18T16:48:37Z</time>
      </trkpt>
      <trkpt lat="43.52446" lon="3.46364">
        <ele>42.92</ele>
        <time>2014-05-18T16:49:11Z</time>
      </trkpt>
      <trkpt lat="43.52444" lon="3.46365">
        <ele>43.4</ele>
        <time>2014-05-18T16:49:59Z</time>
      </trkpt>
      <trkpt lat="43.52445" lon="3.46364">
        <ele>42.44</ele>
        <time>2014-05-18T16:50:40Z</time>
      </trkpt>
      <trkpt lat="43.52445" lon="3.46364">
        <ele>41.95</ele>
        <time>2014-05-18T16:51:20Z</time>
      </trkpt>
      <trkpt lat="43.52445" lon="3.46362">
        <ele>40.99</ele>
        <time>2014-05-18T16:52:04Z</time>
      </trkpt>
      <trkpt lat="43.52444" lon="3.46363">
        <ele>40.99</ele>
        <time>2014-05-18T16:52:49Z</time>
      </trkpt>
      <trkpt lat="43.52442" lon="3.46363">
        <ele>40.99</ele>
        <time>2014-05-18T16:53:24Z</time>
      </trkpt>
      <trkpt lat="43.52443" lon="3.46363">
        <ele>40.03</ele>
        <time>2014-05-18T16:54:02Z</time>
      </trkpt>
      <trkpt lat="43.52443" lon="3.46363">
        <ele>40.03</ele>
        <time>2014-05-18T16:54:41Z</time>
      </trkpt>
      <trkpt lat="43.52443" lon="3.46363">
        <ele>40.03</ele>
        <time>2014-05-18T16:55:16Z</time>
      </trkpt>
      <trkpt lat="43.52442" lon="3.46363">
        <ele>40.03</ele>
        <time>2014-05-18T16:55:55Z</time>
      </trkpt>
      <trkpt lat="43.52442" lon="3.46363">
        <ele>38.59</ele>
        <time>2014-05-18T16:56:32Z</time>
      </trkpt>
      <trkpt lat="43.52442" lon="3.46363">
        <ele>37.63</ele>
        <time>2014-05-18T16:57:14Z</time>
      </trkpt>
      <trkpt lat="43.52442" lon="3.4636">
        <ele>37.15</ele>
        <time>2014-05-18T16:57:57Z</time>
      </trkpt>
      <trkpt lat="43.52442" lon="3.4636">
        <ele>36.67</ele>
        <time>2014-05-18T16:58:31Z</time>
      </trkpt>
      <trkpt lat="43.52443" lon="3.4636">
        <ele>35.71</ele>
        <time>2014-05-18T16:59:11Z</time>
      </trkpt>
      <trkpt lat="43.52444" lon="3.46361">
        <ele>35.23</ele>
        <time>2014-05-18T16:59:47Z</time>
      </trkpt>
      <trkpt lat="43.52445" lon="3.46361">
        <ele>34.26</ele>
        <time>2014-05-18T17:00:13Z</time>
      </trkpt>
      <trkpt lat="43.52445" lon="3.46363">
        <ele>34.26</ele>
        <time>2014-05-18T17:00:45Z</time>
      </trkpt>
      <trkpt lat="43.52446" lon="3.46363">
        <ele>33.78</ele>
        <time>2014-05-18T17:01:15Z</time>
      </trkpt>
      <trkpt lat="43.52447" lon="3.46363">
        <ele>32.82</ele>
        <time>2014-05-18T17:01:45Z</time>
      </trkpt>
      <trkpt lat="43.52447" lon="3.46362">
        <ele>32.82</ele>
        <time>2014-05-18T17:02:25Z</time>
      </trkpt>
      <trkpt lat="43.52447" lon="3.46361">
        <ele>32.82</ele>
        <time>2014-05-18T17:02:46Z</time>
      </trkpt>
      <trkpt lat="43.52447" lon="3.4636">
        <ele>32.82</ele>
        <time>2014-05-18T17:03:14Z</time>
      </trkpt>
      <trkpt lat="43.52447" lon="3.4636">
        <ele>32.82</ele>
        <time>2014-05-18T17:03:42Z</time>
      </trkpt>
      <trkpt lat="43.52447" lon="3.46359">
        <ele>32.82</ele>
        <time>2014-05-18T17:04:13Z</time>
      </trkpt>
      <trkpt lat="43.52445" lon="3.46356">
        <ele>33.78</ele>
        <time>2014-05-18T17:04:49Z</time>
      </trkpt>
      <trkpt lat="43.52445" lon="3.46355">
        <ele>33.78</ele>
        <time>2014-05-18T17:05:16Z</time>
      </trkpt>
      <trkpt lat="43.52446" lon="3.46357">
        <ele>34.26</ele>
        <time>2014-05-18T17:05:54Z</time>
      </trkpt>
      <trkpt lat="43.52448" lon="3.46358">
        <ele>34.74</ele>
        <time>2014-05-18T17:06:19Z</time>
      </trkpt>
      <trkpt lat="43.52448" lon="3.46358">
        <ele>36.19</ele>
        <time>2014-05-18T17:06:52Z</time>
      </trkpt>
      <trkpt lat="43.52448" lon="3.46359">
        <ele>37.63</ele>
        <time>2014-05-18T17:07:26Z</time>
      </trkpt>
      <trkpt lat="43.52448" lon="3.4636">
        <ele>38.59</ele>
        <time>2014-05-18T17:08:04Z</time>
      </trkpt>
      <trkpt lat="43.52448" lon="3.46361">
        <ele>39.07</ele>
        <time>2014-05-18T17:08:35Z</time>
      </trkpt>
      <trkpt lat="43.52448" lon="3.46362">
        <ele>39.55</ele>
        <time>2014-05-18T17:09:08Z</time>
      </trkpt>
      <trkpt lat="43.52447" lon="3.46363">
        <ele>40.51</ele>
        <time>2014-05-18T17:09:45Z</time>
      </trkpt>
      <trkpt lat="43.52447" lon="3.46363">
        <ele>40.51</ele>
        <time>2014-05-18T17:10:25Z</time>
      </trkpt>
      <trkpt lat="43.52446" lon="3.46363">
        <ele>40.03</ele>
        <time>2014-05-18T17:10:55Z</time>
      </trkpt>
      <trkpt lat="43.52445" lon="3.46362">
        <ele>39.07</ele>
        <time>2014-05-18T17:11:24Z</time>
      </trkpt>
      <trkpt lat="43.52443" lon="3.46361">
        <ele>37.63</ele>
        <time>2014-05-18T17:11:54Z</time>
      </trkpt>
      <trkpt lat="43.52442" lon="3.46359">
        <ele>36.67</ele>
        <time>2014-05-18T17:12:29Z</time>
      </trkpt>
      <trkpt lat="43.5244" lon="3.46358">
        <ele>35.71</ele>
        <time>2014-05-18T17:13:04Z</time>
      </trkpt>
      <trkpt lat="43.5244" lon="3.46358">
        <ele>34.26</ele>
        <time>2014-05-18T17:13:47Z</time>
      </trkpt>
      <trkpt lat="43.5244" lon="3.46359">
        <ele>33.3</ele>
        <time>2014-05-18T17:14:22Z</time>
      </trkpt>
      <trkpt lat="43.5244" lon="3.46359">
        <ele>32.82</ele>
        <time>2014-05-18T17:15:03Z</time>
      </trkpt>
      <trkpt lat="43.5244" lon="3.4636">
        <ele>32.82</ele>
        <time>2014-05-18T17:15:38Z</time>
      </trkpt>
      <trkpt lat="43.5244" lon="3.4636">
        <ele>31.38</ele>
        <time>2014-05-18T17:16:20Z</time>
      </trkpt>
      <trkpt lat="43.5244" lon="3.46359">
        <ele>31.38</ele>
        <time>2014-05-18T17:16:53Z</time>
      </trkpt>
      <trkpt lat="43.52439" lon="3.46359">
        <ele>31.86</ele>
        <time>2014-05-18T17:17:27Z</time>
      </trkpt>
      <trkpt lat="43.52439" lon="3.4636">
        <ele>30.9</ele>
        <time>2014-05-18T17:18:01Z</time>
      </trkpt>
      <trkpt lat="43.52438" lon="3.4636">
        <ele>30.9</ele>
        <time>2014-05-18T17:18:30Z</time>
      </trkpt>
      <trkpt lat="43.52436" lon="3.46361">
        <ele>31.38</ele>
        <time>2014-05-18T17:19:03Z</time>
      </trkpt>
      <trkpt lat="43.52436" lon="3.4636">
        <ele>31.86</ele>
        <time>2014-05-18T17:19:32Z</time>
      </trkpt>
      <trkpt lat="43.52436" lon="3.4636">
        <ele>30.9</ele>
        <time>2014-05-18T17:20:07Z</time>
      </trkpt>
      <trkpt lat="43.52437" lon="3.46359">
        <ele>30.42</ele>
        <time>2014-05-18T17:20:43Z</time>
      </trkpt>
      <trkpt lat="43.52437" lon="3.46358">
        <ele>30.42</ele>
        <time>2014-05-18T17:21:16Z</time>
      </trkpt>
      <trkpt lat="43.52437" lon="3.46358">
        <ele>29.94</ele>
        <time>2014-05-18T17:21:59Z</time>
      </trkpt>
      <trkpt lat="43.52438" lon="3.46359">
        <ele>29.46</ele>
        <time>2014-05-18T17:22:36Z</time>
      </trkpt>
      <trkpt lat="43.52439" lon="3.4636">
        <ele>29.46</ele>
        <time>2014-05-18T17:23:06Z</time>
      </trkpt>
      <trkpt lat="43.5244" lon="3.46359">
        <ele>29.46</ele>
        <time>2014-05-18T17:23:24Z</time>
      </trkpt>
      <trkpt lat="43.52441" lon="3.46359">
        <ele>28.98</ele>
        <time>2014-05-18T17:24:02Z</time>
      </trkpt>
      <trkpt lat="43.52442" lon="3.46359">
        <ele>29.46</ele>
        <time>2014-05-18T17:24:32Z</time>
      </trkpt>
      <trkpt lat="43.52442" lon="3.4636">
        <ele>30.9</ele>
        <time>2014-05-18T17:25:07Z</time>
      </trkpt>
      <trkpt lat="43.52443" lon="3.46359">
        <ele>30.9</ele>
        <time>2014-05-18T17:25:34Z</time>
      </trkpt>
      <trkpt lat="43.52442" lon="3.46359">
        <ele>31.38</ele>
        <time>2014-05-18T17:26:06Z</time>
      </trkpt>
      <trkpt lat="43.52442" lon="3.46359">
        <ele>31.38</ele>
        <time>2014-05-18T17:26:37Z</time>
      </trkpt>
      <trkpt lat="43.52442" lon="3.46359">
        <ele>31.86</ele>
        <time>2014-05-18T17:27:11Z</time>
      </trkpt>
      <trkpt lat="43.52442" lon="3.46359">
        <ele>31.86</ele>
        <time>2014-05-18T17:27:39Z</time>
      </trkpt>
      <trkpt lat="43.52442" lon="3.46359">
        <ele>30.9</ele>
        <time>2014-05-18T17:28:18Z</time>
      </trkpt>
      <trkpt lat="43.52441" lon="3.46361">
        <ele>28.5</ele>
        <time>2014-05-18T17:28:58Z</time>
      </trkpt>
      <trkpt lat="43.52439" lon="3.46361">
        <ele>27.53</ele>
        <time>2014-05-18T17:29:25Z</time>
      </trkpt>
      <trkpt lat="43.52439" lon="3.46361">
        <ele>27.53</ele>
        <time>2014-05-18T17:29:56Z</time>
      </trkpt>
      <trkpt lat="43.5244" lon="3.4636">
        <ele>27.53</ele>
        <time>2014-05-18T17:30:34Z</time>
      </trkpt>
      <trkpt lat="43.5244" lon="3.46361">
        <ele>26.57</ele>
        <time>2014-05-18T17:31:07Z</time>
      </trkpt>
      <trkpt lat="43.5244" lon="3.46362">
        <ele>26.09</ele>
        <time>2014-05-18T17:31:42Z</time>
      </trkpt>
      <trkpt lat="43.52441" lon="3.46364">
        <ele>27.53</ele>
        <time>2014-05-18T17:32:16Z</time>
      </trkpt>
      <trkpt lat="43.52442" lon="3.46364">
        <ele>28.98</ele>
        <time>2014-05-18T17:32:58Z</time>
      </trkpt>
      <trkpt lat="43.52442" lon="3.46364">
        <ele>29.46</ele>
        <time>2014-05-18T17:33:38Z</time>
      </trkpt>
      <trkpt lat="43.52441" lon="3.46366">
        <ele>30.42</ele>
        <time>2014-05-18T17:34:22Z</time>
      </trkpt>
      <trkpt lat="43.5244" lon="3.46365">
        <ele>30.9</ele>
        <time>2014-05-18T17:35:05Z</time>
      </trkpt>
      <trkpt lat="43.52439" lon="3.46364">
        <ele>31.86</ele>
        <time>2014-05-18T17:35:46Z</time>
      </trkpt>
      <trkpt lat="43.52438" lon="3.46363">
        <ele>31.38</ele>
        <time>2014-05-18T17:36:28Z</time>
      </trkpt>
      <trkpt lat="43.52438" lon="3.46363">
        <ele>30.9</ele>
        <time>2014-05-18T17:36:54Z</time>
      </trkpt>
      <trkpt lat="43.52438" lon="3.46363">
        <ele>30.42</ele>
        <time>2014-05-18T17:37:37Z</time>
      </trkpt>
      <trkpt lat="43.52438" lon="3.46362">
        <ele>29.94</ele>
        <time>2014-05-18T17:38:18Z</time>
      </trkpt>
      <trkpt lat="43.52439" lon="3.46361">
        <ele>29.94</ele>
        <time>2014-05-18T17:39:01Z</time>
      </trkpt>
      <trkpt lat="43.52439" lon="3.46361">
        <ele>29.94</ele>
        <time>2014-05-18T17:39:31Z</time>
      </trkpt>
      <trkpt lat="43.5244" lon="3.4636">
        <ele>30.42</ele>
        <time>2014-05-18T17:40:05Z</time>
      </trkpt>
      <trkpt lat="43.5244" lon="3.46359">
        <ele>29.94</ele>
        <time>2014-05-18T17:40:49Z</time>
      </trkpt>
      <trkpt lat="43.52441" lon="3.46358">
        <ele>29.94</ele>
        <time>2014-05-18T17:41:32Z</time>
      </trkpt>
      <trkpt lat="43.52442" lon="3.46359">
        <ele>29.94</ele>
        <time>2014-05-18T17:42:16Z</time>
      </trkpt>
      <trkpt lat="43.52441" lon="3.46359">
        <ele>29.46</ele>
        <time>2014-05-18T17:42:53Z</time>
      </trkpt>
      <trkpt lat="43.5244" lon="3.46359">
        <ele>29.46</ele>
        <time>2014-05-18T17:43:29Z</time>
      </trkpt>
      <trkpt lat="43.52441" lon="3.46359">
        <ele>30.42</ele>
        <time>2014-05-18T17:44:04Z</time>
      </trkpt>
      <trkpt lat="43.52441" lon="3.4636">
        <ele>30.9</ele>
        <time>2014-05-18T17:44:42Z</time>
      </trkpt>
      <trkpt lat="43.52442" lon="3.46361">
        <ele>31.86</ele>
        <time>2014-05-18T17:45:28Z</time>
      </trkpt>
      <trkpt lat="43.52443" lon="3.4636">
        <ele>32.34</ele>
        <time>2014-05-18T17:46:03Z</time>
      </trkpt>
      <trkpt lat="43.52443" lon="3.46361">
        <ele>30.9</ele>
        <time>2014-05-18T17:46:49Z</time>
      </trkpt>
      <trkpt lat="43.52443" lon="3.46361">
        <ele>29.94</ele>
        <time>2014-05-18T17:47:27Z</time>
      </trkpt>
      <trkpt lat="43.52442" lon="3.46363">
        <ele>27.53</ele>
        <time>2014-05-18T17:48:08Z</time>
      </trkpt>
      <trkpt lat="43.52443" lon="3.46364">
        <ele>25.61</ele>
        <time>2014-05-18T17:48:49Z</time>
      </trkpt>
      <trkpt lat="43.52443" lon="3.46364">
        <ele>25.61</ele>
        <time>2014-05-18T17:49:28Z</time>
      </trkpt>
      <trkpt lat="43.52443" lon="3.46364">
        <ele>25.61</ele>
        <time>2014-05-18T17:50:07Z</time>
      </trkpt>
      <trkpt lat="43.52443" lon="3.46363">
        <ele>26.09</ele>
        <time>2014-05-18T17:50:39Z</time>
      </trkpt>
      <trkpt lat="43.52443" lon="3.46362">
        <ele>25.61</ele>
        <time>2014-05-18T17:51:16Z</time>
      </trkpt>
      <trkpt lat="43.52443" lon="3.46361">
        <ele>25.13</ele>
        <time>2014-05-18T17:51:53Z</time>
      </trkpt>
      <trkpt lat="43.52443" lon="3.46361">
        <ele>25.13</ele>
        <time>2014-05-18T17:52:31Z</time>
      </trkpt>
      <trkpt lat="43.52444" lon="3.46359">
        <ele>25.61</ele>
        <time>2014-05-18T17:53:10Z</time>
      </trkpt>
      <trkpt lat="43.52444" lon="3.46358">
        <ele>27.05</ele>
        <time>2014-05-18T17:53:49Z</time>
      </trkpt>
      <trkpt lat="43.52443" lon="3.46359">
        <ele>27.05</ele>
        <time>2014-05-18T17:54:21Z</time>
      </trkpt>
      <trkpt lat="43.52443" lon="3.46361">
        <ele>27.53</ele>
        <time>2014-05-18T17:54:58Z</time>
      </trkpt>
      <trkpt lat="43.52441" lon="3.46362">
        <ele>27.05</ele>
        <time>2014-05-18T17:55:43Z</time>
      </trkpt>
      <trkpt lat="43.52441" lon="3.46361">
        <ele>27.53</ele>
        <time>2014-05-18T17:56:23Z</time>
      </trkpt>
      <trkpt lat="43.5244" lon="3.46361">
        <ele>27.53</ele>
        <time>2014-05-18T17:57:02Z</time>
      </trkpt>
      <trkpt lat="43.52441" lon="3.46361">
        <ele>27.05</ele>
        <time>2014-05-18T17:57:44Z</time>
      </trkpt>
      <trkpt lat="43.52442" lon="3.46361">
        <ele>27.05</ele>
        <time>2014-05-18T17:58:13Z</time>
      </trkpt>
      <trkpt lat="43.52443" lon="3.4636">
        <ele>26.57</ele>
        <time>2014-05-18T17:58:53Z</time>
      </trkpt>
      <trkpt lat="43.52443" lon="3.46359">
        <ele>26.09</ele>
        <time>2014-05-18T17:59:30Z</time>
      </trkpt>
      <trkpt lat="43.52443" lon="3.46359">
        <ele>26.09</ele>
        <time>2014-05-18T18:00:10Z</time>
      </trkpt>
      <trkpt lat="43.52443" lon="3.46359">
        <ele>27.53</ele>
        <time>2014-05-18T18:00:44Z</time>
      </trkpt>
      <trkpt lat="43.52443" lon="3.46358">
        <ele>28.98</ele>
        <time>2014-05-18T18:01:20Z</time>
      </trkpt>
      <trkpt lat="43.52443" lon="3.46357">
        <ele>28.98</ele>
        <time>2014-05-18T18:02:01Z</time>
      </trkpt>
      <trkpt lat="43.52442" lon="3.46357">
        <ele>28.98</ele>
        <time>2014-05-18T18:02:42Z</time>
      </trkpt>
      <trkpt lat="43.52442" lon="3.46356">
        <ele>29.46</ele>
        <time>2014-05-18T18:03:18Z</time>
      </trkpt>
      <trkpt lat="43.52442" lon="3.46356">
        <ele>28.02</ele>
        <time>2014-05-18T18:03:59Z</time>
      </trkpt>
      <trkpt lat="43.52442" lon="3.46355">
        <ele>26.57</ele>
        <time>2014-05-18T18:04:45Z</time>
      </trkpt>
      <trkpt lat="43.52442" lon="3.46355">
        <ele>26.09</ele>
        <time>2014-05-18T18:05:17Z</time>
      </trkpt>
      <trkpt lat="43.52441" lon="3.46355">
        <ele>25.13</ele>
        <time>2014-05-18T18:05:56Z</time>
      </trkpt>
      <trkpt lat="43.52441" lon="3.46355">
        <ele>25.61</ele>
        <time>2014-05-18T18:06:25Z</time>
      </trkpt>
      <trkpt lat="43.52441" lon="3.46354">
        <ele>26.57</ele>
        <time>2014-05-18T18:06:58Z</time>
      </trkpt>
      <trkpt lat="43.52441" lon="3.46353">
        <ele>26.57</ele>
        <time>2014-05-18T18:07:36Z</time>
      </trkpt>
      <trkpt lat="43.5244" lon="3.46353">
        <ele>27.05</ele>
        <time>2014-05-18T18:08:20Z</time>
      </trkpt>
      <trkpt lat="43.52441" lon="3.46354">
        <ele>27.05</ele>
        <time>2014-05-18T18:08:51Z</time>
      </trkpt>
      <trkpt lat="43.5244" lon="3.46355">
        <ele>27.53</ele>
        <time>2014-05-18T18:09:28Z</time>
      </trkpt>
      <trkpt lat="43.52439" lon="3.46356">
        <ele>28.5</ele>
        <time>2014-05-18T18:10:07Z</time>
      </trkpt>
      <trkpt lat="43.52439" lon="3.46355">
        <ele>30.9</ele>
        <time>2014-05-18T18:10:50Z</time>
      </trkpt>
      <trkpt lat="43.52441" lon="3.46355">
        <ele>31.86</ele>
        <time>2014-05-18T18:11:29Z</time>
      </trkpt>
      <trkpt lat="43.52442" lon="3.46355">
        <ele>32.34</ele>
        <time>2014-05-18T18:12:07Z</time>
      </trkpt>
      <trkpt lat="43.52443" lon="3.46356">
        <ele>33.3</ele>
        <time>2014-05-18T18:12:52Z</time>
      </trkpt>
      <trkpt lat="43.52444" lon="3.46355">
        <ele>34.74</ele>
        <time>2014-05-18T18:13:28Z</time>
      </trkpt>
      <trkpt lat="43.52444" lon="3.46356">
        <ele>35.23</ele>
        <time>2014-05-18T18:14:04Z</time>
      </trkpt>
      <trkpt lat="43.52444" lon="3.46355">
        <ele>36.19</ele>
        <time>2014-05-18T18:14:49Z</time>
      </trkpt>
      <trkpt lat="43.52445" lon="3.46355">
        <ele>36.19</ele>
        <time>2014-05-18T18:15:28Z</time>
      </trkpt>
      <trkpt lat="43.52446" lon="3.46356">
        <ele>35.23</ele>
        <time>2014-05-18T18:16:03Z</time>
      </trkpt>
      <trkpt lat="43.52447" lon="3.46356">
        <ele>35.23</ele>
        <time>2014-05-18T18:16:41Z</time>
      </trkpt>
      <trkpt lat="43.52448" lon="3.46357">
        <ele>34.74</ele>
        <time>2014-05-18T18:17:13Z</time>
      </trkpt>
      <trkpt lat="43.52447" lon="3.46357">
        <ele>34.74</ele>
        <time>2014-05-18T18:17:55Z</time>
      </trkpt>
      <trkpt lat="43.52446" lon="3.46356">
        <ele>33.78</ele>
        <time>2014-05-18T18:18:32Z</time>
      </trkpt>
      <trkpt lat="43.52445" lon="3.46355">
        <ele>32.82</ele>
        <time>2014-05-18T18:19:18Z</time>
      </trkpt>
      <trkpt lat="43.52443" lon="3.46356">
        <ele>32.34</ele>
        <time>2014-05-18T18:20:00Z</time>
      </trkpt>
      <trkpt lat="43.52442" lon="3.46356">
        <ele>32.34</ele>
        <time>2014-05-18T18:20:36Z</time>
      </trkpt>
      <trkpt lat="43.52441" lon="3.46356">
        <ele>33.3</ele>
        <time>2014-05-18T18:21:20Z</time>
      </trkpt>
      <trkpt lat="43.52439" lon="3.46356">
        <ele>33.78</ele>
        <time>2014-05-18T18:21:55Z</time>
      </trkpt>
      <trkpt lat="43.52439" lon="3.46357">
        <ele>33.78</ele>
        <time>2014-05-18T18:22:25Z</time>
      </trkpt>
      <trkpt lat="43.52439" lon="3.46357">
        <ele>33.78</ele>
        <time>2014-05-18T18:22:59Z</time>
      </trkpt>
      <trkpt lat="43.52437" lon="3.46358">
        <ele>33.3</ele>
        <time>2014-05-18T18:23:38Z</time>
      </trkpt>
      <trkpt lat="43.52437" lon="3.46359">
        <ele>33.3</ele>
        <time>2014-05-18T18:24:15Z</time>
      </trkpt>
      <trkpt lat="43.52437" lon="3.46359">
        <ele>33.3</ele>
        <time>2014-05-18T18:24:46Z</time>
      </trkpt>
      <trkpt lat="43.52437" lon="3.46361">
        <ele>33.78</ele>
        <time>2014-05-18T18:25:25Z</time>
      </trkpt>
      <trkpt lat="43.52437" lon="3.4636">
        <ele>34.26</ele>
        <time>2014-05-18T18:26:12Z</time>
      </trkpt>
      <trkpt lat="43.52436" lon="3.4636">
        <ele>34.74</ele>
        <time>2014-05-18T18:26:45Z</time>
      </trkpt>
      <trkpt lat="43.52435" lon="3.46359">
        <ele>35.71</ele>
        <time>2014-05-18T18:27:28Z</time>
      </trkpt>
      <trkpt lat="43.52434" lon="3.4636">
        <ele>35.71</ele>
        <time>2014-05-18T18:28:00Z</time>
      </trkpt>
      <trkpt lat="43.52435" lon="3.46361">
        <ele>35.71</ele>
        <time>2014-05-18T18:28:32Z</time>
      </trkpt>
      <trkpt lat="43.52435" lon="3.46361">
        <ele>34.26</ele>
        <time>2014-05-18T18:29:11Z</time>
      </trkpt>
      <trkpt lat="43.52435" lon="3.4636">
        <ele>33.78</ele>
        <time>2014-05-18T18:29:55Z</time>
      </trkpt>
      <trkpt lat="43.52436" lon="3.46359">
        <ele>34.26</ele>
        <time>2014-05-18T18:30:32Z</time>
      </trkpt>
      <trkpt lat="43.52438" lon="3.4636">
        <ele>34.26</ele>
        <time>2014-05-18T18:31:14Z</time>
      </trkpt>
      <trkpt lat="43.52438" lon="3.4636">
        <ele>34.26</ele>
        <time>2014-05-18T18:31:46Z</time>
      </trkpt>
      <trkpt lat="43.52439" lon="3.4636">
        <ele>33.78</ele>
        <time>2014-05-18T18:32:31Z</time>
      </trkpt>
      <trkpt lat="43.52439" lon="3.46359">
        <ele>34.74</ele>
        <time>2014-05-18T18:33:08Z</time>
      </trkpt>
      <trkpt lat="43.52439" lon="3.46357">
        <ele>34.74</ele>
        <time>2014-05-18T18:33:42Z</time>
      </trkpt>
      <trkpt lat="43.5244" lon="3.46355">
        <ele>34.74</ele>
        <time>2014-05-18T18:34:27Z</time>
      </trkpt>
      <trkpt lat="43.5244" lon="3.46354">
        <ele>33.78</ele>
        <time>2014-05-18T18:35:08Z</time>
      </trkpt>
      <trkpt lat="43.5244" lon="3.46354">
        <ele>33.3</ele>
        <time>2014-05-18T18:35:54Z</time>
      </trkpt>
      <trkpt lat="43.52439" lon="3.46354">
        <ele>32.34</ele>
        <time>2014-05-18T18:36:42Z</time>
      </trkpt>
      <trkpt lat="43.52439" lon="3.46354">
        <ele>31.38</ele>
        <time>2014-05-18T18:37:30Z</time>
      </trkpt>
      <trkpt lat="43.52438" lon="3.46353">
        <ele>31.38</ele>
        <time>2014-05-18T18:38:19Z</time>
      </trkpt>
      <trkpt lat="43.52437" lon="3.46353">
        <ele>30.42</ele>
        <time>2014-05-18T18:39:01Z</time>
      </trkpt>
      <trkpt lat="43.52437" lon="3.46353">
        <ele>28.98</ele>
        <time>2014-05-18T18:39:49Z</time>
      </trkpt>
      <trkpt lat="43.52436" lon="3.46353">
        <ele>28.98</ele>
        <time>2014-05-18T18:40:27Z</time>
      </trkpt>
      <trkpt lat="43.52436" lon="3.46353">
        <ele>28.98</ele>
        <time>2014-05-18T18:41:05Z</time>
      </trkpt>
      <trkpt lat="43.52438" lon="3.46353">
        <ele>30.9</ele>
        <time>2014-05-18T18:41:50Z</time>
      </trkpt>
      <trkpt lat="43.52438" lon="3.46353">
        <ele>32.34</ele>
        <time>2014-05-18T18:42:26Z</time>
      </trkpt>
      <trkpt lat="43.52439" lon="3.46353">
        <ele>33.3</ele>
        <time>2014-05-18T18:43:06Z</time>
      </trkpt>
      <trkpt lat="43.52438" lon="3.46354">
        <ele>32.82</ele>
        <time>2014-05-18T18:43:50Z</time>
      </trkpt>
      <trkpt lat="43.52438" lon="3.46354">
        <ele>32.82</ele>
        <time>2014-05-18T18:44:27Z</time>
      </trkpt>
      <trkpt lat="43.52438" lon="3.46353">
        <ele>33.78</ele>
        <time>2014-05-18T18:45:19Z</time>
      </trkpt>
      <trkpt lat="43.52438" lon="3.46353">
        <ele>35.71</ele>
        <time>2014-05-18T18:45:59Z</time>
      </trkpt>
      <trkpt lat="43.52438" lon="3.46353">
        <ele>36.67</ele>
        <time>2014-05-18T18:46:45Z</time>
      </trkpt>
      <trkpt lat="43.52439" lon="3.46355">
        <ele>36.67</ele>
        <time>2014-05-18T18:47:26Z</time>
      </trkpt>
      <trkpt lat="43.52438" lon="3.46354">
        <ele>36.67</ele>
        <time>2014-05-18T18:48:11Z</time>
      </trkpt>
      <trkpt lat="43.52438" lon="3.46354">
        <ele>36.19</ele>
        <time>2014-05-18T18:48:59Z</time>
      </trkpt>
      <trkpt lat="43.52438" lon="3.46353">
        <ele>34.74</ele>
        <time>2014-05-18T18:49:39Z</time>
      </trkpt>
      <trkpt lat="43.52438" lon="3.46354">
        <ele>33.3</ele>
        <time>2014-05-18T18:50:21Z</time>
      </trkpt>
      <trkpt lat="43.52438" lon="3.46353">
        <ele>32.34</ele>
        <time>2014-05-18T18:50:55Z</time>
      </trkpt>
      <trkpt lat="43.52437" lon="3.46353">
        <ele>32.34</ele>
        <time>2014-05-18T18:51:28Z</time>
      </trkpt>
      <trkpt lat="43.52437" lon="3.46355">
        <ele>32.34</ele>
        <time>2014-05-18T18:52:10Z</time>
      </trkpt>
      <trkpt lat="43.52437" lon="3.46353">
        <ele>32.82</ele>
        <time>2014-05-18T18:52:55Z</time>
      </trkpt>
      <trkpt lat="43.52437" lon="3.46353">
        <ele>32.34</ele>
        <time>2014-05-18T18:53:37Z</time>
      </trkpt>
      <trkpt lat="43.52437" lon="3.46353">
        <ele>33.3</ele>
        <time>2014-05-18T18:54:23Z</time>
      </trkpt>
      <trkpt lat="43.52436" lon="3.46353">
        <ele>33.3</ele>
        <time>2014-05-18T18:55:05Z</time>
      </trkpt>
      <trkpt lat="43.52435" lon="3.46353">
        <ele>32.34</ele>
        <time>2014-05-18T18:55:46Z</time>
      </trkpt>
      <trkpt lat="43.52435" lon="3.46352">
        <ele>30.9</ele>
        <time>2014-05-18T18:56:27Z</time>
      </trkpt>
      <trkpt lat="43.52436" lon="3.46352">
        <ele>30.9</ele>
        <time>2014-05-18T18:57:05Z</time>
      </trkpt>
      <trkpt lat="43.52436" lon="3.46352">
        <ele>31.38</ele>
        <time>2014-05-18T18:57:47Z</time>
      </trkpt>
      <trkpt lat="43.52437" lon="3.46351">
        <ele>32.34</ele>
        <time>2014-05-18T18:58:26Z</time>
      </trkpt>
      <trkpt lat="43.52438" lon="3.46351">
        <ele>33.78</ele>
        <time>2014-05-18T18:59:08Z</time>
      </trkpt>
      <trkpt lat="43.52437" lon="3.46353">
        <ele>35.71</ele>
        <time>2014-05-18T18:59:51Z</time>
      </trkpt>
      <trkpt lat="43.52438" lon="3.46355">
        <ele>36.67</ele>
        <time>2014-05-18T19:00:38Z</time>
      </trkpt>
      <trkpt lat="43.52437" lon="3.46356">
        <ele>37.15</ele>
        <time>2014-05-18T19:01:19Z</time>
      </trkpt>
      <trkpt lat="43.52437" lon="3.46357">
        <ele>38.11</ele>
        <time>2014-05-18T19:02:03Z</time>
      </trkpt>
      <trkpt lat="43.52436" lon="3.46357">
        <ele>39.07</ele>
        <time>2014-05-18T19:02:41Z</time>
      </trkpt>
      <trkpt lat="43.52436" lon="3.46357">
        <ele>40.03</ele>
        <time>2014-05-18T19:03:32Z</time>
      </trkpt>
      <trkpt lat="43.52436" lon="3.46358">
        <ele>40.03</ele>
        <time>2014-05-18T19:04:17Z</time>
      </trkpt>
      <trkpt lat="43.52437" lon="3.4636">
        <ele>40.51</ele>
        <time>2014-05-18T19:04:49Z</time>
      </trkpt>
      <trkpt lat="43.52436" lon="3.46361">
        <ele>40.51</ele>
        <time>2014-05-18T19:05:31Z</time>
      </trkpt>
      <trkpt lat="43.52436" lon="3.46362">
        <ele>39.55</ele>
        <time>2014-05-18T19:06:21Z</time>
      </trkpt>
      <trkpt lat="43.52436" lon="3.46361">
        <ele>40.03</ele>
        <time>2014-05-18T19:07:09Z</time>
      </trkpt>
      <trkpt lat="43.52436" lon="3.4636">
        <ele>40.03</ele>
        <time>2014-05-18T19:08:02Z</time>
      </trkpt>
      <trkpt lat="43.52437" lon="3.4636">
        <ele>40.03</ele>
        <time>2014-05-18T19:08:51Z</time>
      </trkpt>
      <trkpt lat="43.52437" lon="3.4636">
        <ele>39.55</ele>
        <time>2014-05-18T19:09:49Z</time>
      </trkpt>
      <trkpt lat="43.52437" lon="3.4636">
        <ele>39.55</ele>
        <time>2014-05-18T19:10:42Z</time>
      </trkpt>
      <trkpt lat="43.52437" lon="3.4636">
        <ele>39.55</ele>
        <time>2014-05-18T19:11:27Z</time>
      </trkpt>
      <trkpt lat="43.52438" lon="3.4636">
        <ele>38.59</ele>
        <time>2014-05-18T19:12:17Z</time>
      </trkpt>
      <trkpt lat="43.52438" lon="3.46359">
        <ele>37.15</ele>
        <time>2014-05-18T19:13:08Z</time>
      </trkpt>
      <trkpt lat="43.52437" lon="3.46358">
        <ele>35.23</ele>
        <time>2014-05-18T19:13:51Z</time>
      </trkpt>
      <trkpt lat="43.52437" lon="3.46358">
        <ele>33.78</ele>
        <time>2014-05-18T19:14:36Z</time>
      </trkpt>
      <trkpt lat="43.52437" lon="3.46357">
        <ele>34.26</ele>
        <time>2014-05-18T19:15:20Z</time>
      </trkpt>
      <trkpt lat="43.52437" lon="3.46358">
        <ele>33.78</ele>
        <time>2014-05-18T19:16:08Z</time>
      </trkpt>
      <trkpt lat="43.52437" lon="3.46358">
        <ele>34.74</ele>
        <time>2014-05-18T19:17:01Z</time>
      </trkpt>
      <trkpt lat="43.52438" lon="3.46358">
        <ele>35.23</ele>
        <time>2014-05-18T19:17:47Z</time>
      </trkpt>
      <trkpt lat="43.52439" lon="3.46358">
        <ele>34.26</ele>
        <time>2014-05-18T19:18:40Z</time>
      </trkpt>
      <trkpt lat="43.52439" lon="3.46357">
        <ele>34.26</ele>
        <time>2014-05-18T19:19:35Z</time>
      </trkpt>
      <trkpt lat="43.5244" lon="3.46359">
        <ele>34.74</ele>
        <time>2014-05-18T19:20:23Z</time>
      </trkpt>
      <trkpt lat="43.52439" lon="3.4636">
        <ele>35.23</ele>
        <time>2014-05-18T19:21:02Z</time>
      </trkpt>
      <trkpt lat="43.52439" lon="3.4636">
        <ele>35.23</ele>
        <time>2014-05-18T19:21:41Z</time>
      </trkpt>
      <trkpt lat="43.52439" lon="3.4636">
        <ele>34.74</ele>
        <time>2014-05-18T19:22:16Z</time>
      </trkpt>
      <trkpt lat="43.52441" lon="3.46361">
        <ele>34.26</ele>
        <time>2014-05-18T19:22:57Z</time>
      </trkpt>
      <trkpt lat="43.5244" lon="3.46361">
        <ele>32.82</ele>
        <time>2014-05-18T19:23:36Z</time>
      </trkpt>
      <trkpt lat="43.5244" lon="3.46361">
        <ele>32.34</ele>
        <time>2014-05-18T19:24:15Z</time>
      </trkpt>
      <trkpt lat="43.52439" lon="3.4636">
        <ele>31.86</ele>
        <time>2014-05-18T19:24:58Z</time>
      </trkpt>
      <trkpt lat="43.5244" lon="3.46359">
        <ele>31.38</ele>
        <time>2014-05-18T19:25:40Z</time>
      </trkpt>
      <trkpt lat="43.52441" lon="3.46359">
        <ele>31.38</ele>
        <time>2014-05-18T19:26:21Z</time>
      </trkpt>
      <trkpt lat="43.52441" lon="3.46359">
        <ele>30.9</ele>
        <time>2014-05-18T19:27:03Z</time>
      </trkpt>
      <trkpt lat="43.52441" lon="3.46359">
        <ele>29.94</ele>
        <time>2014-05-18T19:27:41Z</time>
      </trkpt>
      <trkpt lat="43.52441" lon="3.46359">
        <ele>28.5</ele>
        <time>2014-05-18T19:28:26Z</time>
      </trkpt>
      <trkpt lat="43.52442" lon="3.4636">
        <ele>28.5</ele>
        <time>2014-05-18T19:29:13Z</time>
      </trkpt>
      <trkpt lat="43.52442" lon="3.46361">
        <ele>28.98</ele>
        <time>2014-05-18T19:29:53Z</time>
      </trkpt>
      <trkpt lat="43.52443" lon="3.46361">
        <ele>29.94</ele>
        <time>2014-05-18T19:30:37Z</time>
      </trkpt>
      <trkpt lat="43.52443" lon="3.4636">
        <ele>31.86</ele>
        <time>2014-05-18T19:31:26Z</time>
      </trkpt>
      <trkpt lat="43.52443" lon="3.4636">
        <ele>33.3</ele>
        <time>2014-05-18T19:32:12Z</time>
      </trkpt>
      <trkpt lat="43.52443" lon="3.4636">
        <ele>35.23</ele>
        <time>2014-05-18T19:32:54Z</time>
      </trkpt>
      <trkpt lat="43.52441" lon="3.46359">
        <ele>36.19</ele>
        <time>2014-05-18T19:33:35Z</time>
      </trkpt>
      <trkpt lat="43.52441" lon="3.4636">
        <ele>36.67</ele>
        <time>2014-05-18T19:34:08Z</time>
      </trkpt>
      <trkpt lat="43.52441" lon="3.4636">
        <ele>36.19</ele>
        <time>2014-05-18T19:34:49Z</time>
      </trkpt>
      <trkpt lat="43.52442" lon="3.46361">
        <ele>36.19</ele>
        <time>2014-05-18T19:35:33Z</time>
      </trkpt>
      <trkpt lat="43.52443" lon="3.46362">
        <ele>35.23</ele>
        <time>2014-05-18T19:36:17Z</time>
      </trkpt>
      <trkpt lat="43.52444" lon="3.46363">
        <ele>34.74</ele>
        <time>2014-05-18T19:37:00Z</time>
      </trkpt>
      <trkpt lat="43.52444" lon="3.46363">
        <ele>33.3</ele>
        <time>2014-05-18T19:37:46Z</time>
      </trkpt>
      <trkpt lat="43.52444" lon="3.46363">
        <ele>32.82</ele>
        <time>2014-05-18T19:38:26Z</time>
      </trkpt>
      <trkpt lat="43.52443" lon="3.46363">
        <ele>32.82</ele>
        <time>2014-05-18T19:39:05Z</time>
      </trkpt>
      <trkpt lat="43.52443" lon="3.46363">
        <ele>33.3</ele>
        <time>2014-05-18T19:39:51Z</time>
      </trkpt>
      <trkpt lat="43.52442" lon="3.46362">
        <ele>33.78</ele>
        <time>2014-05-18T19:40:23Z</time>
      </trkpt>
      <trkpt lat="43.52442" lon="3.46361">
        <ele>35.71</ele>
        <time>2014-05-18T19:41:01Z</time>
      </trkpt>
      <trkpt lat="43.52441" lon="3.46361">
        <ele>37.15</ele>
        <time>2014-05-18T19:41:50Z</time>
      </trkpt>
      <trkpt lat="43.52441" lon="3.46362">
        <ele>37.15</ele>
        <time>2014-05-18T19:42:23Z</time>
      </trkpt>
      <trkpt lat="43.5244" lon="3.46362">
        <ele>37.63</ele>
        <time>2014-05-18T19:42:58Z</time>
      </trkpt>
      <trkpt lat="43.52441" lon="3.46361">
        <ele>37.15</ele>
        <time>2014-05-18T19:43:45Z</time>
      </trkpt>
      <trkpt lat="43.52441" lon="3.4636">
        <ele>36.19</ele>
        <time>2014-05-18T19:44:37Z</time>
      </trkpt>
      <trkpt lat="43.52442" lon="3.46361">
        <ele>35.71</ele>
        <time>2014-05-18T19:45:24Z</time>
      </trkpt>
      <trkpt lat="43.52442" lon="3.4636">
        <ele>36.67</ele>
        <time>2014-05-18T19:46:03Z</time>
      </trkpt>
      <trkpt lat="43.52441" lon="3.46361">
        <ele>37.15</ele>
        <time>2014-05-18T19:46:44Z</time>
      </trkpt>
      <trkpt lat="43.52442" lon="3.46361">
        <ele>36.67</ele>
        <time>2014-05-18T19:47:22Z</time>
      </trkpt>
      <trkpt lat="43.52443" lon="3.46361">
        <ele>36.19</ele>
        <time>2014-05-18T19:48:01Z</time>
      </trkpt>
      <trkpt lat="43.52443" lon="3.46361">
        <ele>37.15</ele>
        <time>2014-05-18T19:48:38Z</time>
      </trkpt>
      <trkpt lat="43.52443" lon="3.46361">
        <ele>38.11</ele>
        <time>2014-05-18T19:49:09Z</time>
      </trkpt>
      <trkpt lat="43.52443" lon="3.46361">
        <ele>38.11</ele>
        <time>2014-05-18T19:49:39Z</time>
      </trkpt>
      <trkpt lat="43.52441" lon="3.46361">
        <ele>38.59</ele>
        <time>2014-05-18T19:50:18Z</time>
      </trkpt>
      <trkpt lat="43.5244" lon="3.46361">
        <ele>40.03</ele>
        <time>2014-05-18T19:50:55Z</time>
      </trkpt>
      <trkpt lat="43.52439" lon="3.46361">
        <ele>40.99</ele>
        <time>2014-05-18T19:51:28Z</time>
      </trkpt>
      <trkpt lat="43.52439" lon="3.46361">
        <ele>40.99</ele>
        <time>2014-05-18T19:52:01Z</time>
      </trkpt>
      <trkpt lat="43.52439" lon="3.46361">
        <ele>40.03</ele>
        <time>2014-05-18T19:52:36Z</time>
      </trkpt>
      <trkpt lat="43.52439" lon="3.46362">
        <ele>39.07</ele>
        <time>2014-05-18T19:53:21Z</time>
      </trkpt>
      <trkpt lat="43.52437" lon="3.46361">
        <ele>39.55</ele>
        <time>2014-05-18T19:54:11Z</time>
      </trkpt>
      <trkpt lat="43.52437" lon="3.4636">
        <ele>40.51</ele>
        <time>2014-05-18T19:54:53Z</time>
      </trkpt>
      <trkpt lat="43.52436" lon="3.4636">
        <ele>40.51</ele>
        <time>2014-05-18T19:55:38Z</time>
      </trkpt>
      <trkpt lat="43.52436" lon="3.46359">
        <ele>40.03</ele>
        <time>2014-05-18T19:56:31Z</time>
      </trkpt>
      <trkpt lat="43.52436" lon="3.46359">
        <ele>39.55</ele>
        <time>2014-05-18T19:57:14Z</time>
      </trkpt>
      <trkpt lat="43.52438" lon="3.4636">
        <ele>39.07</ele>
        <time>2014-05-18T19:57:57Z</time>
      </trkpt>
      <trkpt lat="43.52441" lon="3.4636">
        <ele>39.07</ele>
        <time>2014-05-18T19:58:44Z</time>
      </trkpt>
      <trkpt lat="43.52441" lon="3.4636">
        <ele>39.55</ele>
        <time>2014-05-18T19:59:20Z</time>
      </trkpt>
      <trkpt lat="43.52441" lon="3.4636">
        <ele>39.07</ele>
        <time>2014-05-18T19:59:54Z</time>
      </trkpt>
      <trkpt lat="43.52441" lon="3.4636">
        <ele>37.15</ele>
        <time>2014-05-18T20:00:29Z</time>
      </trkpt>
      <trkpt lat="43.52442" lon="3.46361">
        <ele>35.23</ele>
        <time>2014-05-18T20:01:02Z</time>
      </trkpt>
      <trkpt lat="43.52442" lon="3.46361">
        <ele>33.78</ele>
        <time>2014-05-18T20:01:40Z</time>
      </trkpt>
      <trkpt lat="43.52442" lon="3.46361">
        <ele>32.34</ele>
        <time>2014-05-18T20:02:16Z</time>
      </trkpt>
      <trkpt lat="43.52443" lon="3.46361">
        <ele>31.38</ele>
        <time>2014-05-18T20:02:50Z</time>
      </trkpt>
      <trkpt lat="43.52444" lon="3.4636">
        <ele>30.9</ele>
        <time>2014-05-18T20:03:24Z</time>
      </trkpt>
      <trkpt lat="43.52445" lon="3.4636">
        <ele>30.9</ele>
        <time>2014-05-18T20:04:04Z</time>
      </trkpt>
      <trkpt lat="43.52445" lon="3.46359">
        <ele>31.38</ele>
        <time>2014-05-18T20:04:46Z</time>
      </trkpt>
      <trkpt lat="43.52444" lon="3.4636">
        <ele>31.86</ele>
        <time>2014-05-18T20:05:27Z</time>
      </trkpt>
      <trkpt lat="43.52443" lon="3.46359">
        <ele>31.38</ele>
        <time>2014-05-18T20:06:07Z</time>
      </trkpt>
      <trkpt lat="43.52441" lon="3.46358">
        <ele>32.34</ele>
        <time>2014-05-18T20:06:50Z</time>
      </trkpt>
      <trkpt lat="43.5244" lon="3.46358">
        <ele>32.34</ele>
        <time>2014-05-18T20:07:41Z</time>
      </trkpt>
      <trkpt lat="43.52439" lon="3.46357">
        <ele>32.34</ele>
        <time>2014-05-18T20:08:27Z</time>
      </trkpt>
      <trkpt lat="43.52438" lon="3.46356">
        <ele>32.34</ele>
        <time>2014-05-18T20:09:07Z</time>
      </trkpt>
      <trkpt lat="43.52438" lon="3.46355">
        <ele>31.86</ele>
        <time>2014-05-18T20:09:53Z</time>
      </trkpt>
      <trkpt lat="43.52437" lon="3.46355">
        <ele>31.38</ele>
        <time>2014-05-18T20:10:31Z</time>
      </trkpt>
      <trkpt lat="43.52437" lon="3.46355">
        <ele>31.38</ele>
        <time>2014-05-18T20:11:16Z</time>
      </trkpt>
      <trkpt lat="43.52437" lon="3.46356">
        <ele>31.86</ele>
        <time>2014-05-18T20:12:05Z</time>
      </trkpt>
      <trkpt lat="43.52436" lon="3.46355">
        <ele>32.34</ele>
        <time>2014-05-18T20:12:54Z</time>
      </trkpt>
      <trkpt lat="43.52435" lon="3.46356">
        <ele>32.34</ele>
        <time>2014-05-18T20:13:32Z</time>
      </trkpt>
      <trkpt lat="43.52436" lon="3.46356">
        <ele>30.9</ele>
        <time>2014-05-18T20:14:15Z</time>
      </trkpt>
      <trkpt lat="43.52437" lon="3.46357">
        <ele>30.42</ele>
        <time>2014-05-18T20:14:50Z</time>
      </trkpt>
      <trkpt lat="43.52439" lon="3.46357">
        <ele>31.86</ele>
        <time>2014-05-18T20:15:43Z</time>
      </trkpt>
      <trkpt lat="43.52439" lon="3.46356">
        <ele>31.86</ele>
        <time>2014-05-18T20:16:16Z</time>
      </trkpt>
      <trkpt lat="43.5244" lon="3.46356">
        <ele>32.34</ele>
        <time>2014-05-18T20:17:02Z</time>
      </trkpt>
      <trkpt lat="43.52443" lon="3.46355">
        <ele>31.86</ele>
        <time>2014-05-18T20:17:51Z</time>
      </trkpt>
      <trkpt lat="43.52442" lon="3.46355">
        <ele>31.86</ele>
        <time>2014-05-18T20:18:34Z</time>
      </trkpt>
      <trkpt lat="43.52443" lon="3.46355">
        <ele>32.34</ele>
        <time>2014-05-18T20:19:29Z</time>
      </trkpt>
      <trkpt lat="43.52441" lon="3.46356">
        <ele>32.82</ele>
        <time>2014-05-18T20:20:17Z</time>
      </trkpt>
      <trkpt lat="43.5244" lon="3.46357">
        <ele>33.3</ele>
        <time>2014-05-18T20:21:00Z</time>
      </trkpt>
      <trkpt lat="43.52439" lon="3.46356">
        <ele>33.3</ele>
        <time>2014-05-18T20:21:39Z</time>
      </trkpt>
      <trkpt lat="43.52438" lon="3.46356">
        <ele>33.78</ele>
        <time>2014-05-18T20:22:25Z</time>
      </trkpt>
      <trkpt lat="43.52438" lon="3.46355">
        <ele>33.78</ele>
        <time>2014-05-18T20:23:03Z</time>
      </trkpt>
      <trkpt lat="43.52438" lon="3.46356">
        <ele>34.26</ele>
        <time>2014-05-18T20:23:37Z</time>
      </trkpt>
      <trkpt lat="43.52438" lon="3.46357">
        <ele>36.19</ele>
        <time>2014-05-18T20:24:18Z</time>
      </trkpt>
      <trkpt lat="43.52438" lon="3.46356">
        <ele>37.63</ele>
        <time>2014-05-18T20:24:54Z</time>
      </trkpt>
      <trkpt lat="43.52438" lon="3.46356">
        <ele>39.55</ele>
        <time>2014-05-18T20:25:35Z</time>
      </trkpt>
      <trkpt lat="43.52437" lon="3.46356">
        <ele>39.07</ele>
        <time>2014-05-18T20:26:16Z</time>
      </trkpt>
      <trkpt lat="43.52437" lon="3.46357">
        <ele>38.59</ele>
        <time>2014-05-18T20:26:53Z</time>
      </trkpt>
      <trkpt lat="43.52437" lon="3.46357">
        <ele>37.63</ele>
        <time>2014-05-18T20:27:29Z</time>
      </trkpt>
      <trkpt lat="43.52437" lon="3.46357">
        <ele>36.19</ele>
        <time>2014-05-18T20:28:10Z</time>
      </trkpt>
      <trkpt lat="43.52437" lon="3.46358">
        <ele>36.67</ele>
        <time>2014-05-18T20:28:48Z</time>
      </trkpt>
      <trkpt lat="43.52436" lon="3.46358">
        <ele>37.15</ele>
        <time>2014-05-18T20:29:32Z</time>
      </trkpt>
      <trkpt lat="43.52437" lon="3.46358">
        <ele>36.19</ele>
        <time>2014-05-18T20:30:01Z</time>
      </trkpt>
      <trkpt lat="43.52436" lon="3.46358">
        <ele>37.15</ele>
        <time>2014-05-18T20:30:34Z</time>
      </trkpt>
      <trkpt lat="43.52435" lon="3.46358">
        <ele>39.07</ele>
        <time>2014-05-18T20:31:15Z</time>
      </trkpt>
      <trkpt lat="43.52435" lon="3.4636">
        <ele>40.03</ele>
        <time>2014-05-18T20:31:52Z</time>
      </trkpt>
      <trkpt lat="43.52435" lon="3.4636">
        <ele>40.51</ele>
        <time>2014-05-18T20:32:30Z</time>
      </trkpt>
      <trkpt lat="43.52436" lon="3.4636">
        <ele>40.51</ele>
        <time>2014-05-18T20:32:54Z</time>
      </trkpt>
      <trkpt lat="43.52436" lon="3.46359">
        <ele>40.03</ele>
        <time>2014-05-18T20:33:27Z</time>
      </trkpt>
      <trkpt lat="43.52438" lon="3.46359">
        <ele>40.03</ele>
        <time>2014-05-18T20:34:07Z</time>
      </trkpt>
      <trkpt lat="43.52439" lon="3.46358">
        <ele>39.07</ele>
        <time>2014-05-18T20:34:41Z</time>
      </trkpt>
      <trkpt lat="43.52439" lon="3.46358">
        <ele>39.55</ele>
        <time>2014-05-18T20:35:11Z</time>
      </trkpt>
      <trkpt lat="43.52439" lon="3.46358">
        <ele>39.07</ele>
        <time>2014-05-18T20:35:53Z</time>
      </trkpt>
      <trkpt lat="43.52441" lon="3.46358">
        <ele>38.59</ele>
        <time>2014-05-18T20:36:36Z</time>
      </trkpt>
      <trkpt lat="43.52441" lon="3.46358">
        <ele>37.63</ele>
        <time>2014-05-18T20:37:09Z</time>
      </trkpt>
      <trkpt lat="43.52441" lon="3.46358">
        <ele>36.67</ele>
        <time>2014-05-18T20:37:47Z</time>
      </trkpt>
      <trkpt lat="43.52439" lon="3.46358">
        <ele>37.15</ele>
        <time>2014-05-18T20:38:22Z</time>
      </trkpt>
      <trkpt lat="43.52439" lon="3.46358">
        <ele>36.67</ele>
        <time>2014-05-18T20:38:46Z</time>
      </trkpt>
      <trkpt lat="43.52438" lon="3.46358">
        <ele>36.67</ele>
        <time>2014-05-18T20:39:22Z</time>
      </trkpt>
      <trkpt lat="43.52438" lon="3.46358">
        <ele>35.71</ele>
        <time>2014-05-18T20:39:51Z</time>
      </trkpt>
      <trkpt lat="43.52438" lon="3.46358">
        <ele>35.23</ele>
        <time>2014-05-18T20:40:25Z</time>
      </trkpt>
      <trkpt lat="43.52438" lon="3.46358">
        <ele>35.23</ele>
        <time>2014-05-18T20:41:03Z</time>
      </trkpt>
      <trkpt lat="43.52438" lon="3.46359">
        <ele>36.67</ele>
        <time>2014-05-18T20:41:40Z</time>
      </trkpt>
      <trkpt lat="43.52438" lon="3.46359">
        <ele>37.15</ele>
        <time>2014-05-18T20:42:10Z</time>
      </trkpt>
      <trkpt lat="43.52438" lon="3.46359">
        <ele>36.19</ele>
        <time>2014-05-18T20:42:51Z</time>
      </trkpt>
      <trkpt lat="43.5244" lon="3.46359">
        <ele>35.23</ele>
        <time>2014-05-18T20:43:32Z</time>
      </trkpt>
      <trkpt lat="43.5244" lon="3.46359">
        <ele>33.78</ele>
        <time>2014-05-18T20:44:08Z</time>
      </trkpt>
      <trkpt lat="43.52441" lon="3.46359">
        <ele>32.82</ele>
        <time>2014-05-18T20:44:36Z</time>
      </trkpt>
      <trkpt lat="43.5244" lon="3.46359">
        <ele>32.82</ele>
        <time>2014-05-18T20:45:10Z</time>
      </trkpt>
      <trkpt lat="43.52439" lon="3.46359">
        <ele>34.26</ele>
        <time>2014-05-18T20:45:51Z</time>
      </trkpt>
      <trkpt lat="43.52439" lon="3.46359">
        <ele>35.23</ele>
        <time>2014-05-18T20:46:23Z</time>
      </trkpt>
      <trkpt lat="43.52438" lon="3.46358">
        <ele>34.74</ele>
        <time>2014-05-18T20:47:11Z</time>
      </trkpt>
      <trkpt lat="43.52439" lon="3.46358">
        <ele>35.23</ele>
        <time>2014-05-18T20:47:47Z</time>
      </trkpt>
      <trkpt lat="43.52439" lon="3.46357">
        <ele>34.74</ele>
        <time>2014-05-18T20:48:26Z</time>
      </trkpt>
      <trkpt lat="43.52439" lon="3.46357">
        <ele>33.78</ele>
        <time>2014-05-18T20:49:12Z</time>
      </trkpt>
      <trkpt lat="43.52439" lon="3.46357">
        <ele>33.78</ele>
        <time>2014-05-18T20:49:55Z</time>
      </trkpt>
      <trkpt lat="43.5244" lon="3.46356">
        <ele>33.3</ele>
        <time>2014-05-18T20:50:36Z</time>
      </trkpt>
      <trkpt lat="43.52441" lon="3.46356">
        <ele>32.82</ele>
        <time>2014-05-18T20:51:12Z</time>
      </trkpt>
      <trkpt lat="43.52441" lon="3.46357">
        <ele>32.82</ele>
        <time>2014-05-18T20:51:47Z</time>
      </trkpt>
      <trkpt lat="43.5244" lon="3.46357">
        <ele>30.9</ele>
        <time>2014-05-18T20:52:24Z</time>
      </trkpt>
      <trkpt lat="43.5244" lon="3.46357">
        <ele>30.9</ele>
        <time>2014-05-18T20:53:02Z</time>
      </trkpt>
      <trkpt lat="43.5244" lon="3.46358">
        <ele>31.86</ele>
        <time>2014-05-18T20:53:38Z</time>
      </trkpt>
      <trkpt lat="43.52441" lon="3.46358">
        <ele>31.38</ele>
        <time>2014-05-18T20:54:12Z</time>
      </trkpt>
      <trkpt lat="43.52441" lon="3.46358">
        <ele>32.34</ele>
        <time>2014-05-18T20:54:48Z</time>
      </trkpt>
      <trkpt lat="43.52442" lon="3.46359">
        <ele>33.3</ele>
        <time>2014-05-18T20:55:21Z</time>
      </trkpt>
      <trkpt lat="43.52444" lon="3.46357">
        <ele>34.74</ele>
        <time>2014-05-18T20:56:06Z</time>
      </trkpt>
      <trkpt lat="43.52445" lon="3.46356">
        <ele>36.19</ele>
        <time>2014-05-18T20:56:48Z</time>
      </trkpt>
      <trkpt lat="43.52446" lon="3.46357">
        <ele>39.55</ele>
        <time>2014-05-18T20:57:31Z</time>
      </trkpt>
      <trkpt lat="43.52447" lon="3.46356">
        <ele>41.47</ele>
        <time>2014-05-18T20:58:22Z</time>
      </trkpt>
      <trkpt lat="43.52446" lon="3.46357">
        <ele>42.92</ele>
        <time>2014-05-18T20:59:06Z</time>
      </trkpt>
      <trkpt lat="43.52446" lon="3.46356">
        <ele>42.44</ele>
        <time>2014-05-18T20:59:45Z</time>
      </trkpt>
      <trkpt lat="43.52447" lon="3.46356">
        <ele>41.95</ele>
        <time>2014-05-18T21:00:30Z</time>
      </trkpt>
      <trkpt lat="43.52447" lon="3.46355">
        <ele>40.51</ele>
        <time>2014-05-18T21:01:08Z</time>
      </trkpt>
      <trkpt lat="43.52448" lon="3.46355">
        <ele>40.03</ele>
        <time>2014-05-18T21:01:44Z</time>
      </trkpt>
      <trkpt lat="43.52448" lon="3.46355">
        <ele>40.99</ele>
        <time>2014-05-18T21:02:23Z</time>
      </trkpt>
      <trkpt lat="43.52449" lon="3.46355">
        <ele>41.95</ele>
        <time>2014-05-18T21:02:58Z</time>
      </trkpt>
      <trkpt lat="43.52449" lon="3.46356">
        <ele>42.92</ele>
        <time>2014-05-18T21:03:36Z</time>
      </trkpt>
      <trkpt lat="43.52449" lon="3.46357">
        <ele>45.32</ele>
        <time>2014-05-18T21:04:14Z</time>
      </trkpt>
      <trkpt lat="43.5245" lon="3.46358">
        <ele>45.32</ele>
        <time>2014-05-18T21:05:00Z</time>
      </trkpt>
      <trkpt lat="43.5245" lon="3.4636">
        <ele>45.32</ele>
        <time>2014-05-18T21:05:42Z</time>
      </trkpt>
      <trkpt lat="43.5245" lon="3.46363">
        <ele>43.4</ele>
        <time>2014-05-18T21:06:30Z</time>
      </trkpt>
      <trkpt lat="43.5245" lon="3.46364">
        <ele>42.92</ele>
        <time>2014-05-18T21:07:07Z</time>
      </trkpt>
      <trkpt lat="43.52449" lon="3.46365">
        <ele>40.99</ele>
        <time>2014-05-18T21:07:41Z</time>
      </trkpt>
      <trkpt lat="43.52447" lon="3.46364">
        <ele>40.03</ele>
        <time>2014-05-18T21:08:14Z</time>
      </trkpt>
      <trkpt lat="43.52446" lon="3.46364">
        <ele>39.07</ele>
        <time>2014-05-18T21:08:43Z</time>
      </trkpt>
      <trkpt lat="43.52446" lon="3.46363">
        <ele>38.11</ele>
        <time>2014-05-18T21:09:11Z</time>
      </trkpt>
      <trkpt lat="43.52446" lon="3.46362">
        <ele>37.63</ele>
        <time>2014-05-18T21:10:00Z</time>
      </trkpt>
      <trkpt lat="43.52445" lon="3.46361">
        <ele>37.63</ele>
        <time>2014-05-18T21:10:37Z</time>
      </trkpt>
      <trkpt lat="43.52445" lon="3.46361">
        <ele>36.67</ele>
        <time>2014-05-18T21:11:10Z</time>
      </trkpt>
      <trkpt lat="43.52446" lon="3.46362">
        <ele>36.19</ele>
        <time>2014-05-18T21:11:50Z</time>
      </trkpt>
      <trkpt lat="43.52446" lon="3.46361">
        <ele>36.67</ele>
        <time>2014-05-18T21:12:35Z</time>
      </trkpt>
      <trkpt lat="43.52446" lon="3.46361">
        <ele>37.15</ele>
        <time>2014-05-18T21:13:09Z</time>
      </trkpt>
      <trkpt lat="43.52446" lon="3.46362">
        <ele>36.67</ele>
        <time>2014-05-18T21:13:35Z</time>
      </trkpt>
      <trkpt lat="43.52446" lon="3.46362">
        <ele>37.15</ele>
        <time>2014-05-18T21:14:01Z</time>
      </trkpt>
      <trkpt lat="43.52445" lon="3.46361">
        <ele>36.67</ele>
        <time>2014-05-18T21:14:28Z</time>
      </trkpt>
      <trkpt lat="43.52445" lon="3.46361">
        <ele>37.15</ele>
        <time>2014-05-18T21:14:56Z</time>
      </trkpt>
      <trkpt lat="43.52445" lon="3.46361">
        <ele>36.67</ele>
        <time>2014-05-18T21:15:23Z</time>
      </trkpt>
      <trkpt lat="43.52445" lon="3.46362">
        <ele>36.67</ele>
        <time>2014-05-18T21:15:51Z</time>
      </trkpt>
      <trkpt lat="43.52444" lon="3.46362">
        <ele>36.67</ele>
        <time>2014-05-18T21:16:15Z</time>
      </trkpt>
      <trkpt lat="43.52445" lon="3.46363">
        <ele>36.19</ele>
        <time>2014-05-18T21:16:41Z</time>
      </trkpt>
      <trkpt lat="43.52445" lon="3.46363">
        <ele>36.67</ele>
        <time>2014-05-18T21:17:07Z</time>
      </trkpt>
      <trkpt lat="43.52444" lon="3.46364">
        <ele>36.67</ele>
        <time>2014-05-18T21:17:29Z</time>
      </trkpt>
      <trkpt lat="43.52444" lon="3.46364">
        <ele>37.15</ele>
        <time>2014-05-18T21:17:49Z</time>
      </trkpt>
      <trkpt lat="43.52444" lon="3.46363">
        <ele>37.15</ele>
        <time>2014-05-18T21:18:13Z</time>
      </trkpt>
      <trkpt lat="43.52444" lon="3.46363">
        <ele>36.67</ele>
        <time>2014-05-18T21:18:44Z</time>
      </trkpt>
      <trkpt lat="43.52444" lon="3.46362">
        <ele>37.15</ele>
        <time>2014-05-18T21:19:12Z</time>
      </trkpt>
      <trkpt lat="43.52444" lon="3.46362">
        <ele>36.67</ele>
        <time>2014-05-18T21:19:39Z</time>
      </trkpt>
      <trkpt lat="43.52444" lon="3.46362">
        <ele>35.71</ele>
        <time>2014-05-18T21:20:13Z</time>
      </trkpt>
      <trkpt lat="43.52444" lon="3.46362">
        <ele>35.23</ele>
        <time>2014-05-18T21:20:50Z</time>
      </trkpt>
      <trkpt lat="43.52445" lon="3.46362">
        <ele>35.23</ele>
        <time>2014-05-18T21:21:17Z</time>
      </trkpt>
      <trkpt lat="43.52444" lon="3.46362">
        <ele>35.71</ele>
        <time>2014-05-18T21:21:57Z</time>
      </trkpt>
      <trkpt lat="43.52444" lon="3.46361">
        <ele>35.23</ele>
        <time>2014-05-18T21:22:31Z</time>
      </trkpt>
      <trkpt lat="43.52443" lon="3.4636">
        <ele>35.23</ele>
        <time>2014-05-18T21:23:19Z</time>
      </trkpt>
      <trkpt lat="43.52443" lon="3.4636">
        <ele>36.19</ele>
        <time>2014-05-18T21:23:58Z</time>
      </trkpt>
      <trkpt lat="43.52443" lon="3.46361">
        <ele>37.15</ele>
        <time>2014-05-18T21:24:33Z</time>
      </trkpt>
      <trkpt lat="43.52443" lon="3.46361">
        <ele>36.67</ele>
        <time>2014-05-18T21:24:58Z</time>
      </trkpt>
      <trkpt lat="43.52443" lon="3.46361">
        <ele>36.67</ele>
        <time>2014-05-18T21:25:26Z</time>
      </trkpt>
      <trkpt lat="43.52443" lon="3.4636">
        <ele>37.15</ele>
        <time>2014-05-18T21:25:54Z</time>
      </trkpt>
      <trkpt lat="43.52442" lon="3.4636">
        <ele>37.15</ele>
        <time>2014-05-18T21:26:20Z</time>
      </trkpt>
      <trkpt lat="43.52442" lon="3.46359">
        <ele>37.63</ele>
        <time>2014-05-18T21:26:52Z</time>
      </trkpt>
      <trkpt lat="43.52442" lon="3.46359">
        <ele>36.67</ele>
        <time>2014-05-18T21:27:12Z</time>
      </trkpt>
      <trkpt lat="43.52442" lon="3.4636">
        <ele>36.67</ele>
        <time>2014-05-18T21:27:36Z</time>
      </trkpt>
      <trkpt lat="43.52441" lon="3.46359">
        <ele>36.19</ele>
        <time>2014-05-18T21:28:01Z</time>
      </trkpt>
      <trkpt lat="43.52441" lon="3.46359">
        <ele>36.19</ele>
        <time>2014-05-18T21:28:27Z</time>
      </trkpt>
      <trkpt lat="43.5244" lon="3.46358">
        <ele>36.19</ele>
        <time>2014-05-18T21:29:03Z</time>
      </trkpt>
      <trkpt lat="43.5244" lon="3.46358">
        <ele>35.23</ele>
        <time>2014-05-18T21:29:35Z</time>
      </trkpt>
      <trkpt lat="43.5244" lon="3.46358">
        <ele>34.74</ele>
        <time>2014-05-18T21:30:04Z</time>
      </trkpt>
      <trkpt lat="43.5244" lon="3.46357">
        <ele>33.3</ele>
        <time>2014-05-18T21:30:33Z</time>
      </trkpt>
      <trkpt lat="43.5244" lon="3.46357">
        <ele>32.82</ele>
        <time>2014-05-18T21:31:05Z</time>
      </trkpt>
      <trkpt lat="43.52439" lon="3.46357">
        <ele>32.82</ele>
        <time>2014-05-18T21:31:31Z</time>
      </trkpt>
      <trkpt lat="43.52439" lon="3.46356">
        <ele>33.78</ele>
        <time>2014-05-18T21:32:05Z</time>
      </trkpt>
      <trkpt lat="43.52438" lon="3.46356">
        <ele>31.86</ele>
        <time>2014-05-18T21:32:40Z</time>
      </trkpt>
      <trkpt lat="43.52438" lon="3.46357">
        <ele>30.9</ele>
        <time>2014-05-18T21:33:08Z</time>
      </trkpt>
      <trkpt lat="43.52437" lon="3.46357">
        <ele>29.94</ele>
        <time>2014-05-18T21:33:45Z</time>
      </trkpt>
      <trkpt lat="43.52436" lon="3.46355">
        <ele>30.9</ele>
        <time>2014-05-18T21:34:20Z</time>
      </trkpt>
      <trkpt lat="43.52435" lon="3.46354">
        <ele>31.38</ele>
        <time>2014-05-18T21:34:55Z</time>
      </trkpt>
      <trkpt lat="43.52435" lon="3.46353">
        <ele>31.86</ele>
        <time>2014-05-18T21:35:28Z</time>
      </trkpt>
      <trkpt lat="43.52435" lon="3.46353">
        <ele>32.34</ele>
        <time>2014-05-18T21:36:05Z</time>
      </trkpt>
      <trkpt lat="43.52437" lon="3.46353">
        <ele>31.38</ele>
        <time>2014-05-18T21:36:42Z</time>
      </trkpt>
      <trkpt lat="43.52438" lon="3.46353">
        <ele>30.9</ele>
        <time>2014-05-18T21:37:21Z</time>
      </trkpt>
      <trkpt lat="43.52438" lon="3.46355">
        <ele>30.9</ele>
        <time>2014-05-18T21:37:58Z</time>
      </trkpt>
      <trkpt lat="43.52439" lon="3.46355">
        <ele>31.38</ele>
        <time>2014-05-18T21:38:32Z</time>
      </trkpt>
      <trkpt lat="43.52439" lon="3.46355">
        <ele>30.9</ele>
        <time>2014-05-18T21:39:06Z</time>
      </trkpt>
      <trkpt lat="43.52439" lon="3.46356">
        <ele>29.94</ele>
        <time>2014-05-18T21:39:47Z</time>
      </trkpt>
      <trkpt lat="43.52437" lon="3.46356">
        <ele>28.98</ele>
        <time>2014-05-18T21:40:26Z</time>
      </trkpt>
      <trkpt lat="43.52438" lon="3.46356">
        <ele>28.5</ele>
        <time>2014-05-18T21:41:04Z</time>
      </trkpt>
      <trkpt lat="43.52439" lon="3.46356">
        <ele>28.5</ele>
        <time>2014-05-18T21:41:40Z</time>
      </trkpt>
      <trkpt lat="43.52439" lon="3.46356">
        <ele>28.98</ele>
        <time>2014-05-18T21:42:17Z</time>
      </trkpt>
      <trkpt lat="43.52441" lon="3.46357">
        <ele>29.94</ele>
        <time>2014-05-18T21:42:53Z</time>
      </trkpt>
      <trkpt lat="43.52441" lon="3.46357">
        <ele>30.42</ele>
        <time>2014-05-18T21:43:22Z</time>
      </trkpt>
      <trkpt lat="43.5244" lon="3.46358">
        <ele>30.9</ele>
        <time>2014-05-18T21:43:54Z</time>
      </trkpt>
      <trkpt lat="43.52441" lon="3.46359">
        <ele>30.9</ele>
        <time>2014-05-18T21:44:26Z</time>
      </trkpt>
      <trkpt lat="43.52441" lon="3.46359">
        <ele>30.9</ele>
        <time>2014-05-18T21:44:56Z</time>
      </trkpt>
      <trkpt lat="43.52441" lon="3.46359">
        <ele>30.42</ele>
        <time>2014-05-18T21:45:31Z</time>
      </trkpt>
      <trkpt lat="43.52441" lon="3.46359">
        <ele>29.94</ele>
        <time>2014-05-18T21:45:58Z</time>
      </trkpt>
      <trkpt lat="43.52441" lon="3.46359">
        <ele>29.46</ele>
        <time>2014-05-18T21:46:37Z</time>
      </trkpt>
      <trkpt lat="43.5244" lon="3.4636">
        <ele>30.9</ele>
        <time>2014-05-18T21:47:12Z</time>
      </trkpt>
      <trkpt lat="43.5244" lon="3.46359">
        <ele>31.86</ele>
        <time>2014-05-18T21:47:51Z</time>
      </trkpt>
      <trkpt lat="43.5244" lon="3.4636">
        <ele>31.38</ele>
        <time>2014-05-18T21:48:18Z</time>
      </trkpt>
      <trkpt lat="43.5244" lon="3.4636">
        <ele>32.34</ele>
        <time>2014-05-18T21:48:53Z</time>
      </trkpt>
      <trkpt lat="43.52441" lon="3.4636">
        <ele>31.86</ele>
        <time>2014-05-18T21:49:35Z</time>
      </trkpt>
      <trkpt lat="43.52441" lon="3.46358">
        <ele>30.9</ele>
        <time>2014-05-18T21:50:11Z</time>
      </trkpt>
      <trkpt lat="43.52441" lon="3.46357">
        <ele>30.42</ele>
        <time>2014-05-18T21:50:35Z</time>
      </trkpt>
      <trkpt lat="43.52442" lon="3.46356">
        <ele>28.98</ele>
        <time>2014-05-18T21:51:14Z</time>
      </trkpt>
      <trkpt lat="43.52442" lon="3.46357">
        <ele>28.5</ele>
        <time>2014-05-18T21:51:41Z</time>
      </trkpt>
      <trkpt lat="43.52442" lon="3.46357">
        <ele>29.46</ele>
        <time>2014-05-18T21:52:16Z</time>
      </trkpt>
      <trkpt lat="43.52443" lon="3.46357">
        <ele>30.42</ele>
        <time>2014-05-18T21:52:46Z</time>
      </trkpt>
      <trkpt lat="43.52443" lon="3.46357">
        <ele>32.82</ele>
        <time>2014-05-18T21:53:20Z</time>
      </trkpt>
      <trkpt lat="43.52442" lon="3.46356">
        <ele>34.26</ele>
        <time>2014-05-18T21:54:02Z</time>
      </trkpt>
      <trkpt lat="43.52442" lon="3.46355">
        <ele>34.26</ele>
        <time>2014-05-18T21:54:35Z</time>
      </trkpt>
      <trkpt lat="43.52441" lon="3.46355">
        <ele>35.71</ele>
        <time>2014-05-18T21:55:08Z</time>
      </trkpt>
      <trkpt lat="43.52442" lon="3.46355">
        <ele>36.19</ele>
        <time>2014-05-18T21:55:40Z</time>
      </trkpt>
      <trkpt lat="43.52443" lon="3.46355">
        <ele>37.15</ele>
        <time>2014-05-18T21:56:11Z</time>
      </trkpt>
      <trkpt lat="43.52443" lon="3.46355">
        <ele>36.67</ele>
        <time>2014-05-18T21:56:41Z</time>
      </trkpt>
      <trkpt lat="43.52443" lon="3.46356">
        <ele>37.63</ele>
        <time>2014-05-18T21:57:23Z</time>
      </trkpt>
      <trkpt lat="43.52444" lon="3.46357">
        <ele>39.07</ele>
        <time>2014-05-18T21:58:02Z</time>
      </trkpt>
      <trkpt lat="43.52444" lon="3.46357">
        <ele>39.07</ele>
        <time>2014-05-18T21:58:42Z</time>
      </trkpt>
      <trkpt lat="43.52444" lon="3.46358">
        <ele>38.59</ele>
        <time>2014-05-18T21:59:09Z</time>
      </trkpt>
      <trkpt lat="43.52444" lon="3.46358">
        <ele>39.55</ele>
        <time>2014-05-18T21:59:44Z</time>
      </trkpt>
      <trkpt lat="43.52444" lon="3.46358">
        <ele>39.55</ele>
        <time>2014-05-18T22:00:14Z</time>
      </trkpt>
      <trkpt lat="43.52443" lon="3.46359">
        <ele>39.55</ele>
        <time>2014-05-18T22:00:47Z</time>
      </trkpt>
      <trkpt lat="43.52443" lon="3.46359">
        <ele>40.03</ele>
        <time>2014-05-18T22:01:34Z</time>
      </trkpt>
      <trkpt lat="43.52443" lon="3.46358">
        <ele>40.03</ele>
        <time>2014-05-18T22:01:54Z</time>
      </trkpt>
      <trkpt lat="43.52444" lon="3.46358">
        <ele>40.51</ele>
        <time>2014-05-18T22:02:18Z</time>
      </trkpt>
      <trkpt lat="43.52444" lon="3.46358">
        <ele>40.51</ele>
        <time>2014-05-18T22:02:55Z</time>
      </trkpt>
      <trkpt lat="43.52444" lon="3.46357">
        <ele>40.51</ele>
        <time>2014-05-18T22:03:34Z</time>
      </trkpt>
      <trkpt lat="43.52444" lon="3.46357">
        <ele>40.03</ele>
        <time>2014-05-18T22:04:16Z</time>
      </trkpt>
      <trkpt lat="43.52444" lon="3.46358">
        <ele>38.59</ele>
        <time>2014-05-18T22:04:52Z</time>
      </trkpt>
      <trkpt lat="43.52444" lon="3.46358">
        <ele>38.11</ele>
        <time>2014-05-18T22:05:36Z</time>
      </trkpt>
      <trkpt lat="43.52444" lon="3.46358">
        <ele>36.67</ele>
        <time>2014-05-18T22:06:13Z</time>
      </trkpt>
      <trkpt lat="43.52444" lon="3.46358">
        <ele>37.15</ele>
        <time>2014-05-18T22:06:48Z</time>
      </trkpt>
      <trkpt lat="43.52443" lon="3.46358">
        <ele>37.15</ele>
        <time>2014-05-18T22:07:18Z</time>
      </trkpt>
      <trkpt lat="43.52444" lon="3.46358">
        <ele>36.67</ele>
        <time>2014-05-18T22:07:57Z</time>
      </trkpt>
      <trkpt lat="43.52443" lon="3.46359">
        <ele>39.55</ele>
        <time>2014-05-18T22:08:35Z</time>
      </trkpt>
      <trkpt lat="43.52443" lon="3.46358">
        <ele>40.03</ele>
        <time>2014-05-18T22:09:14Z</time>
      </trkpt>
      <trkpt lat="43.52443" lon="3.46358">
        <ele>41.47</ele>
        <time>2014-05-18T22:09:58Z</time>
      </trkpt>
      <trkpt lat="43.52443" lon="3.46357">
        <ele>41.95</ele>
        <time>2014-05-18T22:10:31Z</time>
      </trkpt>
      <trkpt lat="43.52444" lon="3.46357">
        <ele>41.95</ele>
        <time>2014-05-18T22:11:11Z</time>
      </trkpt>
      <trkpt lat="43.52445" lon="3.46357">
        <ele>41.95</ele>
        <time>2014-05-18T22:11:41Z</time>
      </trkpt>
      <trkpt lat="43.52446" lon="3.46356">
        <ele>40.99</ele>
        <time>2014-05-18T22:12:08Z</time>
      </trkpt>
      <trkpt lat="43.52446" lon="3.46356">
        <ele>40.51</ele>
        <time>2014-05-18T22:12:43Z</time>
      </trkpt>
      <trkpt lat="43.52446" lon="3.46356">
        <ele>40.03</ele>
        <time>2014-05-18T22:13:08Z</time>
      </trkpt>
      <trkpt lat="43.52446" lon="3.46356">
        <ele>40.51</ele>
        <time>2014-05-18T22:13:35Z</time>
      </trkpt>
      <trkpt lat="43.52445" lon="3.46356">
        <ele>39.07</ele>
        <time>2014-05-18T22:14:11Z</time>
      </trkpt>
      <trkpt lat="43.52444" lon="3.46357">
        <ele>39.07</ele>
        <time>2014-05-18T22:14:40Z</time>
      </trkpt>
      <trkpt lat="43.52444" lon="3.46357">
        <ele>38.59</ele>
        <time>2014-05-18T22:15:03Z</time>
      </trkpt>
      <trkpt lat="43.52443" lon="3.46357">
        <ele>38.11</ele>
        <time>2014-05-18T22:15:30Z</time>
      </trkpt>
      <trkpt lat="43.52443" lon="3.46358">
        <ele>38.11</ele>
        <time>2014-05-18T22:15:58Z</time>
      </trkpt>
      <trkpt lat="43.52443" lon="3.46358">
        <ele>37.63</ele>
        <time>2014-05-18T22:16:29Z</time>
      </trkpt>
      <trkpt lat="43.52444" lon="3.46358">
        <ele>38.11</ele>
        <time>2014-05-18T22:16:57Z</time>
      </trkpt>
      <trkpt lat="43.52444" lon="3.46358">
        <ele>38.11</ele>
        <time>2014-05-18T22:17:22Z</time>
      </trkpt>
      <trkpt lat="43.52445" lon="3.46359">
        <ele>39.07</ele>
        <time>2014-05-18T22:17:54Z</time>
      </trkpt>
      <trkpt lat="43.52445" lon="3.46359">
        <ele>39.07</ele>
        <time>2014-05-18T22:18:23Z</time>
      </trkpt>
      <trkpt lat="43.52446" lon="3.46359">
        <ele>39.07</ele>
        <time>2014-05-18T22:18:39Z</time>
      </trkpt>
      <trkpt lat="43.52446" lon="3.46359">
        <ele>39.55</ele>
        <time>2014-05-18T22:19:10Z</time>
      </trkpt>
      <trkpt lat="43.52445" lon="3.46359">
        <ele>39.55</ele>
        <time>2014-05-18T22:19:37Z</time>
      </trkpt>
      <trkpt lat="43.52444" lon="3.46359">
        <ele>38.59</ele>
        <time>2014-05-18T22:20:03Z</time>
      </trkpt>
      <trkpt lat="43.52443" lon="3.46358">
        <ele>39.07</ele>
        <time>2014-05-18T22:20:43Z</time>
      </trkpt>
      <trkpt lat="43.52444" lon="3.46358">
        <ele>38.11</ele>
        <time>2014-05-18T22:21:28Z</time>
      </trkpt>
      <trkpt lat="43.52445" lon="3.46357">
        <ele>37.63</ele>
        <time>2014-05-18T22:22:07Z</time>
      </trkpt>
      <trkpt lat="43.52445" lon="3.46356">
        <ele>36.19</ele>
        <time>2014-05-18T22:22:48Z</time>
      </trkpt>
      <trkpt lat="43.52446" lon="3.46356">
        <ele>34.74</ele>
        <time>2014-05-18T22:23:31Z</time>
      </trkpt>
      <trkpt lat="43.52445" lon="3.46355">
        <ele>33.78</ele>
        <time>2014-05-18T22:24:13Z</time>
      </trkpt>
      <trkpt lat="43.52444" lon="3.46354">
        <ele>33.3</ele>
        <time>2014-05-18T22:24:54Z</time>
      </trkpt>
      <trkpt lat="43.52444" lon="3.46356">
        <ele>33.78</ele>
        <time>2014-05-18T22:25:38Z</time>
      </trkpt>
      <trkpt lat="43.52444" lon="3.46357">
        <ele>34.74</ele>
        <time>2014-05-18T22:26:14Z</time>
      </trkpt>
      <trkpt lat="43.52444" lon="3.46358">
        <ele>35.71</ele>
        <time>2014-05-18T22:26:59Z</time>
      </trkpt>
      <trkpt lat="43.52444" lon="3.46359">
        <ele>36.19</ele>
        <time>2014-05-18T22:27:39Z</time>
      </trkpt>
      <trkpt lat="43.52443" lon="3.46359">
        <ele>36.67</ele>
        <time>2014-05-18T22:28:17Z</time>
      </trkpt>
      <trkpt lat="43.52443" lon="3.46359">
        <ele>37.15</ele>
        <time>2014-05-18T22:29:07Z</time>
      </trkpt>
      <trkpt lat="43.52444" lon="3.46358">
        <ele>38.11</ele>
        <time>2014-05-18T22:29:57Z</time>
      </trkpt>
      <trkpt lat="43.52445" lon="3.46358">
        <ele>38.59</ele>
        <time>2014-05-18T22:30:46Z</time>
      </trkpt>
      <trkpt lat="43.52446" lon="3.46357">
        <ele>38.59</ele>
        <time>2014-05-18T22:31:32Z</time>
      </trkpt>
      <trkpt lat="43.52446" lon="3.46356">
        <ele>38.59</ele>
        <time>2014-05-18T22:32:12Z</time>
      </trkpt>
      <trkpt lat="43.52446" lon="3.46356">
        <ele>40.03</ele>
        <time>2014-05-18T22:32:47Z</time>
      </trkpt>
      <trkpt lat="43.52446" lon="3.46356">
        <ele>40.51</ele>
        <time>2014-05-18T22:33:23Z</time>
      </trkpt>
      <trkpt lat="43.52446" lon="3.46356">
        <ele>40.51</ele>
        <time>2014-05-18T22:34:12Z</time>
      </trkpt>
      <trkpt lat="43.52446" lon="3.46356">
        <ele>40.03</ele>
        <time>2014-05-18T22:34:43Z</time>
      </trkpt>
      <trkpt lat="43.52446" lon="3.46356">
        <ele>39.07</ele>
        <time>2014-05-18T22:35:25Z</time>
      </trkpt>
      <trkpt lat="43.52445" lon="3.46356">
        <ele>38.11</ele>
        <time>2014-05-18T22:36:05Z</time>
      </trkpt>
      <trkpt lat="43.52444" lon="3.46356">
        <ele>36.19</ele>
        <time>2014-05-18T22:36:56Z</time>
      </trkpt>
      <trkpt lat="43.52443" lon="3.46356">
        <ele>34.74</ele>
        <time>2014-05-18T22:37:32Z</time>
      </trkpt>
      <trkpt lat="43.52442" lon="3.46357">
        <ele>35.23</ele>
        <time>2014-05-18T22:38:16Z</time>
      </trkpt>
      <trkpt lat="43.52442" lon="3.46357">
        <ele>33.78</ele>
        <time>2014-05-18T22:38:57Z</time>
      </trkpt>
      <trkpt lat="43.52441" lon="3.46359">
        <ele>33.78</ele>
        <time>2014-05-18T22:39:46Z</time>
      </trkpt>
      <trkpt lat="43.52441" lon="3.4636">
        <ele>32.82</ele>
        <time>2014-05-18T22:40:35Z</time>
      </trkpt>
      <trkpt lat="43.52441" lon="3.4636">
        <ele>34.26</ele>
        <time>2014-05-18T22:41:14Z</time>
      </trkpt>
      <trkpt lat="43.52441" lon="3.46359">
        <ele>34.26</ele>
        <time>2014-05-18T22:41:56Z</time>
      </trkpt>
      <trkpt lat="43.52442" lon="3.46359">
        <ele>35.23</ele>
        <time>2014-05-18T22:42:39Z</time>
      </trkpt>
      <trkpt lat="43.52442" lon="3.46359">
        <ele>35.71</ele>
        <time>2014-05-18T22:43:11Z</time>
      </trkpt>
      <trkpt lat="43.52443" lon="3.46359">
        <ele>35.71</ele>
        <time>2014-05-18T22:43:51Z</time>
      </trkpt>
      <trkpt lat="43.52444" lon="3.4636">
        <ele>34.74</ele>
        <time>2014-05-18T22:44:18Z</time>
      </trkpt>
      <trkpt lat="43.52444" lon="3.46361">
        <ele>34.26</ele>
        <time>2014-05-18T22:44:58Z</time>
      </trkpt>
      <trkpt lat="43.52445" lon="3.46361">
        <ele>33.78</ele>
        <time>2014-05-18T22:45:26Z</time>
      </trkpt>
      <trkpt lat="43.52445" lon="3.4636">
        <ele>33.78</ele>
        <time>2014-05-18T22:45:58Z</time>
      </trkpt>
      <trkpt lat="43.52445" lon="3.4636">
        <ele>34.74</ele>
        <time>2014-05-18T22:46:36Z</time>
      </trkpt>
      <trkpt lat="43.52444" lon="3.4636">
        <ele>35.71</ele>
        <time>2014-05-18T22:47:08Z</time>
      </trkpt>
      <trkpt lat="43.52444" lon="3.46359">
        <ele>37.15</ele>
        <time>2014-05-18T22:47:42Z</time>
      </trkpt>
      <trkpt lat="43.52443" lon="3.46358">
        <ele>38.59</ele>
        <time>2014-05-18T22:48:12Z</time>
      </trkpt>
      <trkpt lat="43.52444" lon="3.46357">
        <ele>39.07</ele>
        <time>2014-05-18T22:48:52Z</time>
      </trkpt>
      <trkpt lat="43.52444" lon="3.46357">
        <ele>38.59</ele>
        <time>2014-05-18T22:49:27Z</time>
      </trkpt>
      <trkpt lat="43.52444" lon="3.46358">
        <ele>39.07</ele>
        <time>2014-05-18T22:50:01Z</time>
      </trkpt>
      <trkpt lat="43.52444" lon="3.46358">
        <ele>40.51</ele>
        <time>2014-05-18T22:50:37Z</time>
      </trkpt>
      <trkpt lat="43.52443" lon="3.46357">
        <ele>41.47</ele>
        <time>2014-05-18T22:51:16Z</time>
      </trkpt>
      <trkpt lat="43.52443" lon="3.46355">
        <ele>40.03</ele>
        <time>2014-05-18T22:51:56Z</time>
      </trkpt>
      <trkpt lat="43.52444" lon="3.46356">
        <ele>38.59</ele>
        <time>2014-05-18T22:52:32Z</time>
      </trkpt>
      <trkpt lat="43.52445" lon="3.46356">
        <ele>40.03</ele>
        <time>2014-05-18T22:53:21Z</time>
      </trkpt>
      <trkpt lat="43.52446" lon="3.46357">
        <ele>40.03</ele>
        <time>2014-05-18T22:54:07Z</time>
      </trkpt>
      <trkpt lat="43.52445" lon="3.46358">
        <ele>38.59</ele>
        <time>2014-05-18T22:54:56Z</time>
      </trkpt>
      <trkpt lat="43.52445" lon="3.46359">
        <ele>37.15</ele>
        <time>2014-05-18T22:55:39Z</time>
      </trkpt>
      <trkpt lat="43.52444" lon="3.46358">
        <ele>36.67</ele>
        <time>2014-05-18T22:56:23Z</time>
      </trkpt>
      <trkpt lat="43.52444" lon="3.46358">
        <ele>36.67</ele>
        <time>2014-05-18T22:57:01Z</time>
      </trkpt>
      <trkpt lat="43.52445" lon="3.46359">
        <ele>36.19</ele>
        <time>2014-05-18T22:57:42Z</time>
      </trkpt>
      <trkpt lat="43.52445" lon="3.46359">
        <ele>35.71</ele>
        <time>2014-05-18T22:58:07Z</time>
      </trkpt>
      <trkpt lat="43.52445" lon="3.46359">
        <ele>36.19</ele>
        <time>2014-05-18T22:58:42Z</time>
      </trkpt>
      <trkpt lat="43.52444" lon="3.46359">
        <ele>36.19</ele>
        <time>2014-05-18T22:59:08Z</time>
      </trkpt>
      <trkpt lat="43.52443" lon="3.46359">
        <ele>36.67</ele>
        <time>2014-05-18T22:59:42Z</time>
      </trkpt>
      <trkpt lat="43.52443" lon="3.46359">
        <ele>37.15</ele>
        <time>2014-05-18T23:00:22Z</time>
      </trkpt>
      <trkpt lat="43.52444" lon="3.4636">
        <ele>37.15</ele>
        <time>2014-05-18T23:01:16Z</time>
      </trkpt>
      <trkpt lat="43.52443" lon="3.46359">
        <ele>37.63</ele>
        <time>2014-05-18T23:01:57Z</time>
      </trkpt>
      <trkpt lat="43.52443" lon="3.4636">
        <ele>38.11</ele>
        <time>2014-05-18T23:02:43Z</time>
      </trkpt>
      <trkpt lat="43.52443" lon="3.46361">
        <ele>38.59</ele>
        <time>2014-05-18T23:03:27Z</time>
      </trkpt>
      <trkpt lat="43.52444" lon="3.46361">
        <ele>38.11</ele>
        <time>2014-05-18T23:04:04Z</time>
      </trkpt>
      <trkpt lat="43.52445" lon="3.46362">
        <ele>36.19</ele>
        <time>2014-05-18T23:04:40Z</time>
      </trkpt>
      <trkpt lat="43.52446" lon="3.46363">
        <ele>34.26</ele>
        <time>2014-05-18T23:05:23Z</time>
      </trkpt>
      <trkpt lat="43.52447" lon="3.46363">
        <ele>32.34</ele>
        <time>2014-05-18T23:06:06Z</time>
      </trkpt>
      <trkpt lat="43.52447" lon="3.46363">
        <ele>31.38</ele>
        <time>2014-05-18T23:06:41Z</time>
      </trkpt>
      <trkpt lat="43.52446" lon="3.46363">
        <ele>32.82</ele>
        <time>2014-05-18T23:07:26Z</time>
      </trkpt>
      <trkpt lat="43.52444" lon="3.46361">
        <ele>34.26</ele>
        <time>2014-05-18T23:08:05Z</time>
      </trkpt>
      <trkpt lat="43.52443" lon="3.46359">
        <ele>34.74</ele>
        <time>2014-05-18T23:08:38Z</time>
      </trkpt>
      <trkpt lat="43.52443" lon="3.46357">
        <ele>35.71</ele>
        <time>2014-05-18T23:09:21Z</time>
      </trkpt>
      <trkpt lat="43.52443" lon="3.46357">
        <ele>35.71</ele>
        <time>2014-05-18T23:10:01Z</time>
      </trkpt>
      <trkpt lat="43.52444" lon="3.46358">
        <ele>35.23</ele>
        <time>2014-05-18T23:10:35Z</time>
      </trkpt>
      <trkpt lat="43.52443" lon="3.46359">
        <ele>36.19</ele>
        <time>2014-05-18T23:11:09Z</time>
      </trkpt>
      <trkpt lat="43.52444" lon="3.46358">
        <ele>36.67</ele>
        <time>2014-05-18T23:11:48Z</time>
      </trkpt>
      <trkpt lat="43.52443" lon="3.46358">
        <ele>37.15</ele>
        <time>2014-05-18T23:12:22Z</time>
      </trkpt>
      <trkpt lat="43.52443" lon="3.46359">
        <ele>38.11</ele>
        <time>2014-05-18T23:13:05Z</time>
      </trkpt>
      <trkpt lat="43.52443" lon="3.46359">
        <ele>38.11</ele>
        <time>2014-05-18T23:13:39Z</time>
      </trkpt>
      <trkpt lat="43.52442" lon="3.46359">
        <ele>38.11</ele>
        <time>2014-05-18T23:14:10Z</time>
      </trkpt>
      <trkpt lat="43.52442" lon="3.46359">
        <ele>38.11</ele>
        <time>2014-05-18T23:14:31Z</time>
      </trkpt>
      <trkpt lat="43.52441" lon="3.46359">
        <ele>38.11</ele>
        <time>2014-05-18T23:15:03Z</time>
      </trkpt>
      <trkpt lat="43.52441" lon="3.46358">
        <ele>38.11</ele>
        <time>2014-05-18T23:15:37Z</time>
      </trkpt>
      <trkpt lat="43.52442" lon="3.46358">
        <ele>38.59</ele>
        <time>2014-05-18T23:16:11Z</time>
      </trkpt>
      <trkpt lat="43.52442" lon="3.46358">
        <ele>38.59</ele>
        <time>2014-05-18T23:16:34Z</time>
      </trkpt>
      <trkpt lat="43.52443" lon="3.46357">
        <ele>39.07</ele>
        <time>2014-05-18T23:17:12Z</time>
      </trkpt>
      <trkpt lat="43.52444" lon="3.46357">
        <ele>39.07</ele>
        <time>2014-05-18T23:17:47Z</time>
      </trkpt>
      <trkpt lat="43.52444" lon="3.46358">
        <ele>39.07</ele>
        <time>2014-05-18T23:18:30Z</time>
      </trkpt>
      <trkpt lat="43.52445" lon="3.46358">
        <ele>39.07</ele>
        <time>2014-05-18T23:19:11Z</time>
      </trkpt>
      <trkpt lat="43.52445" lon="3.46359">
        <ele>40.03</ele>
        <time>2014-05-18T23:19:48Z</time>
      </trkpt>
      <trkpt lat="43.52445" lon="3.4636">
        <ele>39.55</ele>
        <time>2014-05-18T23:20:21Z</time>
      </trkpt>
      <trkpt lat="43.52445" lon="3.4636">
        <ele>39.55</ele>
        <time>2014-05-18T23:20:57Z</time>
      </trkpt>
      <trkpt lat="43.52445" lon="3.4636">
        <ele>38.59</ele>
        <time>2014-05-18T23:21:25Z</time>
      </trkpt>
      <trkpt lat="43.52446" lon="3.46361">
        <ele>37.15</ele>
        <time>2014-05-18T23:22:03Z</time>
      </trkpt>
      <trkpt lat="43.52446" lon="3.46362">
        <ele>37.63</ele>
        <time>2014-05-18T23:22:44Z</time>
      </trkpt>
      <trkpt lat="43.52445" lon="3.46362">
        <ele>38.11</ele>
        <time>2014-05-18T23:23:25Z</time>
      </trkpt>
      <trkpt lat="43.52444" lon="3.4636">
        <ele>37.15</ele>
        <time>2014-05-18T23:23:58Z</time>
      </trkpt>
      <trkpt lat="43.52442" lon="3.46358">
        <ele>36.19</ele>
        <time>2014-05-18T23:24:32Z</time>
      </trkpt>
      <trkpt lat="43.52442" lon="3.46358">
        <ele>35.71</ele>
        <time>2014-05-18T23:24:58Z</time>
      </trkpt>
      <trkpt lat="43.52441" lon="3.46357">
        <ele>35.23</ele>
        <time>2014-05-18T23:25:38Z</time>
      </trkpt>
      <trkpt lat="43.52441" lon="3.46356">
        <ele>34.74</ele>
        <time>2014-05-18T23:26:23Z</time>
      </trkpt>
      <trkpt lat="43.52441" lon="3.46357">
        <ele>34.74</ele>
        <time>2014-05-18T23:27:02Z</time>
      </trkpt>
      <trkpt lat="43.52441" lon="3.46356">
        <ele>36.19</ele>
        <time>2014-05-18T23:27:52Z</time>
      </trkpt>
      <trkpt lat="43.52441" lon="3.46357">
        <ele>36.19</ele>
        <time>2014-05-18T23:28:32Z</time>
      </trkpt>
      <trkpt lat="43.52442" lon="3.46357">
        <ele>36.67</ele>
        <time>2014-05-18T23:29:23Z</time>
      </trkpt>
      <trkpt lat="43.52442" lon="3.46357">
        <ele>37.15</ele>
        <time>2014-05-18T23:30:11Z</time>
      </trkpt>
      <trkpt lat="43.52442" lon="3.46357">
        <ele>36.67</ele>
        <time>2014-05-18T23:30:54Z</time>
      </trkpt>
      <trkpt lat="43.52442" lon="3.46357">
        <ele>37.15</ele>
        <time>2014-05-18T23:31:41Z</time>
      </trkpt>
      <trkpt lat="43.52443" lon="3.46358">
        <ele>37.63</ele>
        <time>2014-05-18T23:32:24Z</time>
      </trkpt>
      <trkpt lat="43.52432" lon="3.46334">
        <ele>39.55</ele>
        <time>2014-05-19T19:10:31Z</time>
      </trkpt>
      <trkpt lat="43.52431" lon="3.46331">
        <ele>39.55</ele>
        <time>2014-05-19T19:10:47Z</time>
      </trkpt>
      <trkpt lat="43.52424" lon="3.46329">
        <ele>39.55</ele>
        <time>2014-05-19T19:11:12Z</time>
      </trkpt>
      <trkpt lat="43.52418" lon="3.46326">
        <ele>39.55</ele>
        <time>2014-05-19T19:11:36Z</time>
      </trkpt>
      <trkpt lat="43.52423" lon="3.46332">
        <ele>39.55</ele>
        <time>2014-05-19T19:11:59Z</time>
      </trkpt>
      <trkpt lat="43.52427" lon="3.46317">
        <ele>18.88</ele>
        <time>2014-05-19T19:12:24Z</time>
      </trkpt>
      <trkpt lat="43.52429" lon="3.46332">
        <ele>29.94</ele>
        <time>2014-05-19T19:12:51Z</time>
      </trkpt>
      <trkpt lat="43.5243" lon="3.46333">
        <ele>29.46</ele>
        <time>2014-05-19T19:13:06Z</time>
      </trkpt>
      <trkpt lat="43.52447" lon="3.46359">
        <ele>19.36</ele>
        <time>2014-05-19T19:57:06Z</time>
      </trkpt>
      <trkpt lat="43.52453" lon="3.46351">
        <ele>11.67</ele>
        <time>2014-05-19T19:57:27Z</time>
      </trkpt>
      <trkpt lat="43.52445" lon="3.46335">
        <ele>20.81</ele>
        <time>2014-05-19T19:57:50Z</time>
      </trkpt>
      <trkpt lat="43.52455" lon="3.46346">
        <ele>30.42</ele>
        <time>2014-05-19T19:58:20Z</time>
      </trkpt>
      <trkpt lat="43.52448" lon="3.4635">
        <ele>29.94</ele>
        <time>2014-05-19T19:58:53Z</time>
      </trkpt>
      <trkpt lat="43.52448" lon="3.46352">
        <ele>29.94</ele>
        <time>2014-05-19T19:59:27Z</time>
      </trkpt>
      <trkpt lat="43.52447" lon="3.46349">
        <ele>30.42</ele>
        <time>2014-05-19T20:00:04Z</time>
      </trkpt>
      <trkpt lat="43.52446" lon="3.46351">
        <ele>28.5</ele>
        <time>2014-05-19T20:00:34Z</time>
      </trkpt>
      <trkpt lat="43.52445" lon="3.4635">
        <ele>29.46</ele>
        <time>2014-05-19T20:01:03Z</time>
      </trkpt>
      <trkpt lat="43.52443" lon="3.46349">
        <ele>32.82</ele>
        <time>2014-05-19T20:01:40Z</time>
      </trkpt>
      <trkpt lat="43.52441" lon="3.46348">
        <ele>35.23</ele>
        <time>2014-05-19T20:02:20Z</time>
      </trkpt>
      <trkpt lat="43.5244" lon="3.46348">
        <ele>34.26</ele>
        <time>2014-05-19T20:02:41Z</time>
      </trkpt>
      <trkpt lat="43.5244" lon="3.46347">
        <ele>34.26</ele>
        <time>2014-05-19T20:03:17Z</time>
      </trkpt>
      <trkpt lat="43.5244" lon="3.46348">
        <ele>34.74</ele>
        <time>2014-05-19T20:03:58Z</time>
      </trkpt>
      <trkpt lat="43.52439" lon="3.46348">
        <ele>35.23</ele>
        <time>2014-05-19T20:04:30Z</time>
      </trkpt>
      <trkpt lat="43.52439" lon="3.46347">
        <ele>36.19</ele>
        <time>2014-05-19T20:05:10Z</time>
      </trkpt>
      <trkpt lat="43.52439" lon="3.46348">
        <ele>36.19</ele>
        <time>2014-05-19T20:05:42Z</time>
      </trkpt>
      <trkpt lat="43.5244" lon="3.46348">
        <ele>35.23</ele>
        <time>2014-05-19T20:06:15Z</time>
      </trkpt>
      <trkpt lat="43.52439" lon="3.46348">
        <ele>35.23</ele>
        <time>2014-05-19T20:06:45Z</time>
      </trkpt>
      <trkpt lat="43.52439" lon="3.46347">
        <ele>35.23</ele>
        <time>2014-05-19T20:07:18Z</time>
      </trkpt>
      <trkpt lat="43.52439" lon="3.46348">
        <ele>35.71</ele>
        <time>2014-05-19T20:07:53Z</time>
      </trkpt>
      <trkpt lat="43.5244" lon="3.46348">
        <ele>35.23</ele>
        <time>2014-05-19T20:08:33Z</time>
      </trkpt>
      <trkpt lat="43.5244" lon="3.46348">
        <ele>35.23</ele>
        <time>2014-05-19T20:09:08Z</time>
      </trkpt>
      <trkpt lat="43.5244" lon="3.46348">
        <ele>35.23</ele>
        <time>2014-05-19T20:09:54Z</time>
      </trkpt>
      <trkpt lat="43.52441" lon="3.46348">
        <ele>35.71</ele>
        <time>2014-05-19T20:10:32Z</time>
      </trkpt>
      <trkpt lat="43.52441" lon="3.46348">
        <ele>36.19</ele>
        <time>2014-05-19T20:11:10Z</time>
      </trkpt>
      <trkpt lat="43.5244" lon="3.46348">
        <ele>36.19</ele>
        <time>2014-05-19T20:11:47Z</time>
      </trkpt>
      <trkpt lat="43.5244" lon="3.46348">
        <ele>36.19</ele>
        <time>2014-05-19T20:12:17Z</time>
      </trkpt>
      <trkpt lat="43.52439" lon="3.46348">
        <ele>35.71</ele>
        <time>2014-05-19T20:12:54Z</time>
      </trkpt>
      <trkpt lat="43.52439" lon="3.46348">
        <ele>35.71</ele>
        <time>2014-05-19T20:13:35Z</time>
      </trkpt>
    </trkseg>
  </trk>
</gpx>